[[{"header":{"parameterUnit":"m.s-1","parameterCategory":1,"la1":30.6,"la2":28.766,"lo1":-90.7593,"lo2":-88.6598,"dy":0.0162,"dx":0.0183,"nx":116,"ny":114,"refTime":"2023-07-15T00:00:00:Z","depth":0,"parameterNumber":2,"parameterNumberName":"U-component_of_WINDS"},"data":[0.0,0.0,0.0,0.0,0.0,0.0,0.0,0.0,0.0,0.0,0.0,0.0,0.0,0.0,0.0,0.0,0.0,0.0,0.0,0.0,0.0,0.0,0.0,0.0,0.0,0.0,0.0,0.0,0.0,0.0,0.0,0.0,0.0,0.0,0.0,0.0,0.0,0.0,0.0,0.0,0.0,0.0,0.0,0.0,0.0,0.0,0.0,0.0,0.0,0.0,0.0,0.0,0.0,0.0,0.0,0.0,0.0,0.0,0.0,0.0,0.0,0.0,0.0,0.0,0.0,0.0,0.0,0.0,0.0,0.0,0.0,0.0,0.0,0.0,0.0,0.0,0.0,0.0,0.0,0.0,0.0,0.0,0.0,0.0,0.0,0.0,0.0,0.0,0.0,0.0,0.0,0.0,0.0,0.0,0.0,0.0,0.0,0.0,0.0,0.0,0.0,0.0,0.0,0.0,0.0,0.0,0.0,0.0,0.0,0.0,0.0,0.0,0.0,0.0,0.0,0.0,0.0,0.0,0.0,0.0,0.0,0.0,0.0,0.0,0.0,0.0,0.0,0.0,0.0,0.0,0.0,0.0,0.0,0.0,0.0,0.0,0.0,0.0,0.0,0.0,0.0,0.0,0.0,0.0,0.0,0.0,0.0,0.0,0.0,0.0,0.0,0.0,0.0,0.0,0.0,0.0,0.0,0.0,0.0,0.0,0.0,0.0,0.0,0.0,0.0,0.0,0.0,0.0,0.0,0.0,0.0,0.0,0.0,0.0,0.0,0.0,0.0,0.0,0.0,0.0,0.0,0.0,0.0,0.0,0.0,0.0,0.0,0.0,0.0,0.0,0.0,0.0,0.0,0.0,0.0,0.0,0.0,0.0,0.0,0.0,0.0,0.0,0.0,0.0,0.0,0.0,0.0,0.0,0.0,0.0,0.0,0.0,0.0,0.0,0.0,0.0,0.0,0.0,0.0,0.0,0.0,0.0,0.0,0.0,0.0,0.0,0.0,0.0,0.0,0.0,0.0,0.0,0.0,0.0,0.0,0.0,0.0,0.0,0.0,0.0,0.0,0.0,0.0,0.0,0.0,0.0,0.0,0.0,0.0,0.0,0.0,0.0,0.0,0.0,0.0,0.0,0.0,0.0,0.0,0.0,0.0,0.0,0.0,0.0,0.0,0.0,0.0,0.0,0.0,0.0,0.0,0.0,0.0,0.0,0.0,0.0,0.0,0.0,0.0,0.0,0.0,0.0,0.0,0.0,0.0,0.0,0.0,0.0,0.0,0.0,0.0,0.0,0.0,0.0,0.0,0.0,0.0,0.0,0.0,0.0,0.0,0.0,0.0,0.0,0.0,0.0,0.0,0.0,0.0,0.0,0.0,0.0,0.0,0.0,0.0,0.0,0.0,0.0,0.0,0.0,0.0,0.0,0.0,0.0,0.0,0.0,0.0,0.0,0.0,0.0,0.0,0.0,0.0,0.0,0.0,0.0,0.0,0.0,0.0,0.0,0.0,0.0,0.0,0.0,0.0,0.0,0.0,0.0,0.0,0.0,0.0,0.0,0.0,0.0,0.0,0.0,0.0,0.0,0.0,0.0,0.0,0.0,0.0,0.0,0.0,0.0,0.0,0.0,0.0,0.0,0.0,0.0,0.0,0.0,0.0,0.0,0.0,0.0,0.0,0.0,0.0,0.0,0.0,0.0,0.0,0.0,0.0,0.0,0.0,0.0,0.0,0.0,0.0,0.0,0.0,0.0,0.0,0.0,0.0,0.0,0.0,0.0,0.0,0.0,0.0,0.0,0.0,0.0,0.0,0.0,0.0,0.0,0.0,0.0,0.0,0.0,0.0,0.0,0.0,0.0,0.0,0.0,0.0,0.0,0.0,0.0,0.0,0.0,0.0,0.0,0.0,0.0,0.0,0.0,0.0,0.0,0.0,0.0,0.0,0.0,0.0,0.0,0.0,0.0,0.0,0.0,0.0,0.0,0.0,0.0,0.0,0.0,0.0,0.0,0.0,0.0,0.0,0.0,0.0,0.0,0.0,0.0,0.0,0.0,0.0,0.0,0.0,0.0,0.0,0.0,0.0,0.0,0.0,0.0,0.0,0.0,0.0,0.0,0.0,0.0,0.0,0.0,0.0,0.0,0.0,0.0,0.0,0.0,0.0,0.0,0.0,0.0,0.0,0.0,0.0,0.0,0.0,0.0,0.0,0.0,0.0,0.0,0.0,0.0,0.0,0.0,0.0,0.0,0.0,0.0,0.0,0.0,0.0,0.0,0.0,0.0,0.0,0.0,0.0,0.0,0.0,0.0,0.0,0.0,0.0,0.0,0.0,0.0,0.0,0.0,0.0,0.0,0.0,0.0,0.0,0.0,0.0,0.0,0.0,0.0,0.0,0.0,0.0,0.0,0.0,0.0,0.0,0.0,0.0,0.0,0.0,0.0,0.0,0.0,0.0,0.0,0.0,0.0,0.0,0.0,0.0,0.0,0.0,0.0,0.0,0.0,0.0,0.0,0.0,0.0,0.0,0.0,0.0,0.0,0.0,0.0,0.0,0.0,0.0,0.0,0.0,0.0,0.0,0.0,0.0,0.0,0.0,0.0,0.0,0.0,0.0,0.0,0.0,0.0,0.0,0.0,0.0,0.0,0.0,0.0,0.0,0.0,0.0,0.0,0.0,0.0,0.0,0.0,0.0,0.0,0.0,0.0,0.0,0.0,0.0,0.0,0.0,0.0,0.0,0.0,0.0,0.0,0.0,0.0,0.0,0.0,0.0,0.0,0.0,0.0,0.0,0.0,0.0,0.0,0.0,0.0,0.0,0.0,0.0,0.0,0.0,0.0,0.0,0.0,0.0,0.0,0.0,0.0,0.0,0.0,0.0,0.0,0.0,0.0,0.0,0.0,0.0,0.0,0.0,0.0,0.0,0.0,0.0,0.0,0.0,0.0,0.0,0.0,0.0,0.0,0.0,0.0,0.0,0.0,0.0,0.0,0.0,0.0,0.0,0.0,0.0,0.0,0.0,0.0,0.0,0.0,0.0,0.0,0.0,0.0,0.0,0.0,0.0,0.0,0.0,0.0,0.0,0.0,0.0,0.0,0.0,0.0,0.0,0.0,0.0,0.0,0.0,0.0,0.0,0.0,0.0,0.0,0.0,0.0,0.0,0.0,0.0,0.0,0.0,0.0,0.0,0.0,0.0,0.0,0.0,0.0,0.0,0.0,0.0,0.0,0.0,0.0,0.0,0.0,0.0,0.0,0.0,0.0,0.0,0.0,0.0,0.0,0.0,0.0,0.0,0.0,0.0,0.0,0.0,0.0,0.0,0.0,0.0,0.0,0.0,0.0,0.0,0.0,0.0,0.0,0.0,0.0,0.0,0.0,0.0,0.0,0.0,0.0,0.0,0.0,0.0,0.0,0.0,0.0,0.0,0.0,0.0,0.0,0.0,0.0,0.0,0.0,0.0,0.0,0.0,0.0,0.0,0.0,0.0,0.0,0.0,0.0,0.0,0.0,0.0,0.0,0.0,0.0,0.0,0.0,0.0,0.0,0.0,0.0,0.0,0.0,0.0,0.0,0.0,0.0,0.0,0.0,0.0,0.0,0.0,0.0,0.0,0.0,0.0,0.0,0.0,0.0,0.0,0.0,0.0,0.0,0.0,0.0,0.0,0.0,0.0,0.0,0.0,0.0,0.0,0.0,0.0,0.0,0.0,0.0,0.0,0.0,0.0,0.0,0.0,0.0,0.0,0.0,0.0,0.0,0.0,0.0,0.0,0.0,0.0,0.0,0.0,0.0,0.0,0.0,0.0,0.0,0.0,0.0,0.0,0.0,0.0,0.0,0.0,0.0,0.0,0.0,0.0,0.0,0.0,0.0,0.0,0.0,0.0,0.0,0.0,0.0,0.0,0.0,0.0,0.0,0.0,0.0,0.0,0.0,0.0,0.0,0.0,0.0,0.0,0.0,0.0,0.0,0.0,0.0,0.0,0.0,0.0,0.0,0.0,0.0,0.0,0.0,0.0,0.0,0.0,0.0,0.0,0.0,0.0,0.0,0.0,0.0,0.0,0.0,0.0,0.0,0.0,0.0,0.0,0.0,0.0,0.0,0.0,0.0,0.0,0.0,0.0,0.0,0.0,0.0,0.0,0.0,0.0,0.0,0.0,0.0,0.0,0.0,0.0,0.0,0.0,0.0,0.0,0.0,0.0,0.0,0.0,0.0,0.0,0.0,0.0,0.0,0.0,0.0,0.0,0.0,0.0,0.0,0.0,0.0,0.0,0.0,0.0,0.0,0.0,0.0,0.0,0.0,0.0,0.0,0.0,0.0,0.0,0.0,0.0,0.0,0.0,0.0,0.0,0.0,0.0,0.0,0.0,0.0,0.0,0.0,0.0,0.0,0.0,0.0,0.0,0.0,0.0,0.0,0.0,0.0,0.0,0.0,0.0,0.0,0.0,0.0,0.0,0.0,0.0,0.0,0.0,0.0,0.0,0.0,0.0,0.0,0.0,0.0,0.0,0.0,0.0,0.0,0.0,0.0,0.0,0.0,0.0,0.0,0.0,0.0,0.0,0.0,0.0,0.0,0.0,0.0,0.0,0.0,0.0,0.0,0.0,0.0,0.0,0.0,0.0,0.0,0.0,0.0,0.0,0.0,0.0,0.0,0.0,0.0,0.0,0.0,0.0,0.0,0.0,0.0,0.0,0.0,0.0,0.0,0.0,0.0,0.0,0.0,0.0,0.0,0.0,0.0,0.0,0.0,0.0,0.0,0.0,0.0,0.0,0.0,0.0,0.0,0.0,0.0,0.0,0.0,0.0,0.0,0.0,0.0,0.0,0.0,0.0,0.0,0.0,0.0,0.0,0.0,0.0,0.0,0.0,0.0,0.0,0.0,0.0,0.0,0.0,0.0,0.0,0.0,0.0,0.0,0.0,0.0,0.0,0.0,0.0,0.0,0.0,0.0,0.0,0.0,0.0,0.0,0.0,0.0,0.0,0.0,0.0,0.0,0.0,0.0,0.0,0.0,0.0,0.0,0.0,0.0,0.0,0.0,0.0,0.0,0.0,0.0,0.0,0.0,0.0,0.0,0.0,0.0,0.0,0.0,0.0,0.0,0.0,0.0,0.0,0.0,0.0,0.0,0.0,0.0,0.0,0.0,0.0,0.0,0.0,0.0,0.0,0.0,0.0,0.0,0.0,0.0,0.0,0.0,0.0,0.0,0.0,0.0,0.0,0.0,0.0,0.0,0.0,0.0,0.0,0.0,0.0,0.0,0.0,0.0,0.0,0.0,0.0,0.0,0.0,0.0,0.0,0.0,0.0,0.0,0.0,0.0,0.0,0.0,0.0,0.0,0.0,0.0,0.0,0.0,0.0,0.0,0.0,0.0,0.0,0.0,0.0,0.0,0.0,0.0,0.0,0.0,0.0,0.0,0.0,0.0,0.0,0.0,0.0,0.0,0.0,0.0,0.0,0.0,0.0,0.0,0.0,0.0,0.0,0.0,0.0,0.0,0.0,0.0,0.0,0.0,0.0,0.0,0.0,0.0,0.0,0.0,0.0,0.0,0.0,0.0,0.0,0.0,0.0,0.0,0.0,0.0,0.0,0.0,0.0,0.0,0.0,0.0,0.0,0.0,0.0,0.0,0.0,0.0,0.0,0.0,0.0,0.0,0.0,0.0,0.0,0.0,0.0,0.0,0.0,0.0,0.0,0.0,0.0,0.0,0.0,0.0,0.0,0.0,0.0,0.0,0.0,0.0,0.0,0.0,0.0,0.0,0.0,0.0,0.0,0.0,0.0,0.0,0.0,0.0,0.0,0.0,0.0,0.0,0.0,0.0,0.0,0.0,0.0,0.0,0.0,0.0,0.0,0.0,0.0,0.0,0.0,0.0,0.0,0.0,0.0,0.0,0.0,0.0,0.0,0.0,0.0,0.0,0.0,0.0,0.0,0.0,0.0,0.0,0.0,0.0,0.0,0.0,0.0,0.0,0.0,0.0,0.0,0.0,0.0,0.0,0.0,0.0,0.0,0.0,0.0,0.0,0.0,0.0,0.0,0.0,0.0,0.0,0.0,0.0,0.0,0.0,0.0,0.0,0.0,0.0,-0.8411,0.0,0.0,0.0,0.0,0.0,0.0,0.0,0.0,0.0,0.0,0.0,0.0,0.0,0.0,0.0,0.0,0.0,0.0,0.0,0.0,0.0,0.0,0.0,0.0,0.0,0.0,0.0,0.0,0.0,0.0,0.0,0.0,0.0,0.0,0.0,0.0,0.0,0.0,0.0,0.0,0.0,0.0,0.0,0.0,0.0,0.0,0.0,0.0,0.0,0.0,0.0,0.0,0.0,0.0,0.0,0.0,0.0,0.0,0.0,0.0,0.0,0.0,0.0,0.0,0.0,0.0,0.0,0.0,0.0,0.0,0.0,0.0,0.0,0.0,0.0,0.0,0.0,0.0,0.0,0.0,0.0,0.0,0.0,0.0,0.0,0.0,0.0,0.0,0.0,0.0,0.0,0.0,0.0,0.0,0.0,0.0,0.0,0.0,0.0,0.0,0.0,0.0,0.0,0.0,0.0,0.0,0.0,0.0,0.0,0.0,0.0,0.0,0.0,0.0,0.0,0.0,-0.9911,0.0,0.0,0.0,0.0,0.0,0.0,0.0,0.0,0.0,0.0,0.0,0.0,0.0,0.0,0.0,0.0,0.0,0.0,0.0,0.0,0.0,0.0,0.0,0.0,0.0,0.0,0.0,0.0,0.0,0.0,0.0,0.0,0.0,0.0,0.0,0.0,0.0,0.0,0.0,0.0,0.0,0.0,0.0,0.0,0.0,0.0,0.0,0.0,0.0,0.0,0.0,0.0,0.0,0.0,0.0,0.0,0.0,0.0,0.0,0.0,0.0,0.0,0.0,0.0,0.0,0.0,0.0,0.0,0.0,0.0,0.0,0.0,0.0,0.0,0.0,0.0,0.0,0.0,0.0,0.0,0.0,0.0,0.0,0.0,0.0,0.0,0.0,0.0,0.0,0.0,0.0,0.0,0.0,0.0,0.0,0.0,0.0,0.0,0.0,0.0,0.0,0.0,0.0,0.0,0.0,0.0,0.0,0.0,-1.3327,-1.3587,-1.3569,-1.3399,-1.3598,-1.4058,-1.2998,-1.2283,-1.1832,-1.1688,0.0,0.0,0.0,0.0,0.0,0.0,0.0,0.0,0.0,0.0,0.0,0.0,0.0,0.0,0.0,0.0,0.0,0.0,0.0,0.0,0.0,0.0,0.0,0.0,0.0,0.0,0.0,0.0,0.0,0.0,0.0,0.0,0.0,0.0,0.0,0.0,0.0,0.0,-1.8118,-1.9508,-2.0061,-1.9803,-1.8616,0.0,0.0,0.0,0.0,0.0,0.0,0.0,0.0,0.0,0.0,0.0,0.0,0.0,0.0,0.0,0.0,0.0,0.0,0.0,0.0,0.0,0.0,0.0,0.0,0.0,0.0,0.0,0.0,0.0,0.0,0.0,0.0,0.0,0.0,0.0,0.0,0.0,0.0,0.0,0.0,0.0,0.0,0.0,-0.7796,-0.8928,0.0,0.0,0.0,0.0,0.0,0.0,0.0,0.0,0.0,0.0,0.0,0.0,0.0,-1.3179,-1.372,-1.4143,-1.4656,-1.5246,-1.5666,-1.5863,-1.5863,-1.5842,-1.6083,-1.652,-1.635,0.0,-1.3611,-1.3148,0.0,0.0,0.0,0.0,0.0,0.0,0.0,0.0,0.0,0.0,0.0,0.0,0.0,0.0,0.0,0.0,0.0,0.0,0.0,0.0,0.0,0.0,0.0,0.0,0.0,0.0,0.0,0.0,0.0,0.0,0.0,0.0,0.0,0.0,0.0,0.0,-1.8138,-1.9552,-2.1,-2.2024,-2.2732,-2.309,-2.2521,-2.1228,-1.9451,-1.9151,0.0,0.0,0.0,0.0,0.0,0.0,0.0,0.0,0.0,0.0,0.0,0.0,0.0,0.0,0.0,0.0,0.0,0.0,0.0,0.0,0.0,0.0,0.0,0.0,0.0,0.0,0.0,0.0,0.0,0.0,0.0,0.0,0.0,0.0,0.0,0.0,0.0,0.0,0.0,-0.8472,-0.9748,-1.0886,-1.1268,-1.1675,0.0,0.0,0.0,0.0,0.0,0.0,0.0,0.0,0.0,-1.3723,-1.4794,-1.5639,-1.6222,-1.6714,-1.7231,-1.7826,-1.8327,-1.8546,-1.8546,-1.8392,-1.8445,-1.8609,-1.8462,-1.7921,-1.6998,-1.5692,-1.4886,-1.4413,0.0,0.0,0.0,0.0,-1.3818,-1.3797,0.0,0.0,0.0,0.0,0.0,0.0,0.0,0.0,0.0,0.0,0.0,0.0,0.0,0.0,0.0,-1.3739,0.0,0.0,0.0,0.0,0.0,0.0,0.0,0.0,0.0,0.0,0.0,-1.9036,-2.0279,-2.168,-2.3254,-2.4189,-2.4887,-2.5419,-2.552,-2.4286,-2.2045,-2.1747,-2.065,0.0,0.0,0.0,0.0,0.0,0.0,0.0,0.0,0.0,0.0,0.0,0.0,0.0,0.0,0.0,0.0,0.0,0.0,0.0,0.0,0.0,0.0,0.0,0.0,0.0,0.0,0.0,0.0,0.0,0.0,0.0,0.0,0.0,0.0,0.0,0.0,0.0,0.0,-1.0339,-1.1482,-1.2633,-1.3391,-1.4053,0.0,0.0,0.0,0.0,0.0,0.0,-1.4695,-1.5661,-1.6251,-1.6356,-1.7271,-1.8107,-1.8881,-1.918,-1.9636,-2.0255,-2.0579,-2.0746,-2.072,-2.0525,-2.0447,-2.042,-2.0171,-2.0039,-1.9862,-1.7995,-1.6833,-1.6265,-1.6053,-1.6066,-1.6196,-1.6045,-1.6045,-1.6126,0.0,0.0,0.0,0.0,0.0,0.0,0.0,0.0,0.0,0.0,0.0,0.0,0.0,0.0,-1.4373,-1.4549,-1.5742,-1.6518,0.0,0.0,0.0,0.0,0.0,0.0,0.0,0.0,0.0,-1.9927,-2.2525,-2.3914,-2.4168,-2.561,-2.6384,-2.6519,-2.6598,-2.6016,-2.4903,-2.3768,-2.2856,-2.1991,0.0,0.0,0.0,0.0,0.0,0.0,0.0,0.0,0.0,0.0,0.0,0.0,0.0,0.0,0.0,0.0,0.0,0.0,0.0,0.0,0.0,0.0,0.0,0.0,0.0,0.0,0.0,0.0,0.0,0.0,0.0,0.0,0.0,0.0,0.0,0.0,0.0,0.0,0.0,-1.3878,-1.5055,0.0,0.0,0.0,0.0,-1.7411,-1.7411,-1.7404,-1.739,-1.7984,-1.862,-1.9168,-1.9737,-2.0593,-2.1791,-2.151,-2.1668,-2.2257,-2.2026,-2.1915,-2.1915,-2.1887,-2.1887,-2.1887,-2.167,-2.1504,-2.124,-1.938,-1.8486,-1.8275,-1.7581,-1.7529,-1.7859,-1.7792,-1.8048,-1.8407,0.0,0.0,0.0,0.0,0.0,0.0,0.0,0.0,0.0,0.0,0.0,0.0,0.0,-1.3706,-1.5225,-1.702,-1.6881,-1.7114,-1.8125,0.0,0.0,0.0,0.0,0.0,0.0,0.0,-2.088,-2.2827,-2.3779,-2.5001,-2.6472,-2.7487,-2.8249,-2.8818,-2.936,-2.9454,-2.9037,-2.657,-2.4896,-2.3779,-2.2599,-2.0775,0.0,0.0,0.0,0.0,0.0,0.0,0.0,0.0,0.0,0.0,0.0,0.0,0.0,0.0,0.0,0.0,0.0,0.0,0.0,0.0,0.0,0.0,0.0,0.0,0.0,0.0,0.0,0.0,0.0,0.0,0.0,0.0,0.0,0.0,0.0,0.0,0.0,-1.6546,-1.7454,0.0,-1.8775,-1.9412,-1.9781,-1.9781,-2.016,-2.0298,-2.0125,-2.0684,-2.1035,-2.1066,-2.1603,-2.2071,-2.2498,-2.279,-2.3028,-2.324,-2.3527,-2.3614,-2.3487,-2.3399,-2.3298,-2.3225,-2.2997,-2.291,-2.2776,-2.1643,-2.0804,-2.0155,-1.9878,-1.9794,-1.9787,-1.9677,-1.9686,-1.974,0.0,0.0,0.0,0.0,0.0,0.0,0.0,0.0,0.0,0.0,0.0,-1.1193,-1.3336,-1.4752,-1.6376,-1.8459,-1.8366,-1.8511,-1.9315,0.0,0.0,0.0,0.0,0.0,0.0,-2.1002,-2.2482,-2.4503,-2.518,-2.6436,-2.8215,-2.8944,-2.973,-3.056,-3.1092,-3.1421,-3.139,-2.9309,-2.7614,-2.622,-2.5068,-2.3222,-2.1028,0.0,0.0,0.0,0.0,0.0,0.0,0.0,0.0,0.0,0.0,0.0,0.0,0.0,0.0,0.0,0.0,0.0,0.0,0.0,0.0,0.0,0.0,0.0,0.0,0.0,0.0,0.0,0.0,0.0,0.0,0.0,0.0,0.0,0.0,0.0,-1.7232,-1.8671,-1.9737,-2.0512,-2.0918,-2.1513,-2.191,-2.191,-2.2284,-2.2432,-2.2257,-2.2821,-2.3142,-2.3189,-2.3717,-2.4109,-2.4312,-2.459,-2.4748,-2.4748,-2.505,-2.5106,-2.4961,-2.4685,-2.4459,-2.4311,-2.3926,-2.3747,-2.3675,-2.3377,-2.285,-2.218,-2.1448,-2.1178,-2.1153,-2.1054,-2.1167,-2.1326,0.0,0.0,0.0,0.0,0.0,0.0,0.0,0.0,0.0,0.0,-1.0491,-1.2225,-1.3593,-1.6022,-1.7908,-1.8692,-2.0186,-2.0811,-2.0195,-1.9688,0.0,0.0,0.0,0.0,-2.0428,-2.3057,-2.4534,-2.48,-2.6789,-2.8269,-2.927,-2.9959,-3.076,-3.1654,-3.167,-3.1742,-3.1886,-3.187,-3.0994,-2.9435,-2.7336,-2.5598,-2.4116,0.0,0.0,0.0,0.0,0.0,0.0,0.0,0.0,0.0,0.0,0.0,0.0,0.0,0.0,0.0,0.0,0.0,0.0,0.0,0.0,0.0,0.0,0.0,0.0,0.0,0.0,0.0,0.0,0.0,0.0,0.0,0.0,0.0,-1.5868,-1.7723,-1.9433,-2.012,-2.1791,-2.2876,-2.2876,-2.3419,-2.3818,-2.3818,-2.3832,-2.3846,-2.382,-2.4374,-2.4955,-2.555,-2.6131,-2.6713,-2.7294,-2.698,-2.6829,-2.6799,-2.6478,-2.6325,-2.6312,-2.5721,-2.5379,-2.5189,-2.4472,-2.409,-2.4011,-2.4391,-2.4548,-2.432,-2.2234,-2.1659,-2.1982,-2.1982,-2.2512,-2.3256,0.0,0.0,0.0,0.0,0.0,0.0,0.0,0.0,0.0,0.0,-1.0515,-1.243,-1.4358,-1.598,-1.7892,-2.0249,-2.0407,-2.0611,-2.1149,0.0,0.0,0.0,0.0,0.0,-2.3452,-2.4235,-2.5441,-2.7176,-2.8248,-2.9285,-3.0249,-3.1446,-3.2264,-3.2708,-3.3193,-3.3542,-3.3713,-3.3191,-3.2711,-3.2134,-2.9864,-2.7699,-2.5767,0.0,0.0,0.0,0.0,0.0,0.0,0.0,0.0,0.0,0.0,0.0,0.0,0.0,0.0,0.0,0.0,0.0,0.0,0.0,0.0,0.0,0.0,0.0,0.0,0.0,0.0,0.0,0.0,0.0,0.0,0.0,0.0,-1.8994,-1.8684,-1.9906,-2.124,-2.2282,-2.3578,-2.4397,-2.4397,-2.5322,-2.5952,-2.5952,-2.64,-2.6595,-2.6454,-2.6621,-2.673,-2.681,-2.6976,-2.7142,-2.7308,-2.7219,-2.7159,-2.7159,-2.6977,-2.6796,-2.6648,-2.6391,-2.6172,-2.5993,-2.5773,-2.5677,-2.5629,-2.5652,-2.555,-2.5374,-2.452,-2.4134,-2.401,-2.401,-2.3988,-2.3961,0.0,0.0,0.0,0.0,0.0,0.0,0.0,0.0,0.0,0.0,-1.0619,-1.2608,-1.4688,-1.6348,-1.8237,-2.0486,-2.0704,-2.0873,-2.1207,0.0,0.0,0.0,0.0,-2.3779,-2.4811,-2.5691,-2.6977,-2.8701,-2.9416,-3.0432,-3.1677,-3.2482,-3.3153,-3.3689,-3.4096,-3.4399,-3.4561,-3.4199,-3.3884,-3.3535,-3.2237,-3.0238,-2.7932,-2.6902,-2.5743,-2.4553,-2.3447,-2.2031,-2.0607,-2.0194,0.0,0.0,0.0,0.0,0.0,0.0,0.0,0.0,0.0,0.0,0.0,0.0,0.0,0.0,0.0,0.0,0.0,0.0,0.0,0.0,0.0,0.0,0.0,0.0,-2.0215,-2.1483,-2.2198,-2.2801,-2.3511,-2.4494,-2.5639,-2.6351,-2.6351,-2.6975,-2.74,-2.74,-2.7754,-2.7923,-2.7821,-2.8046,-2.8186,-2.8098,-2.835,-2.8446,-2.8342,-2.8296,-2.8235,-2.8174,-2.8019,-2.7896,-2.7745,-2.7421,-2.7189,-2.6995,-2.6647,-2.6478,-2.643,-2.6529,-2.6498,0.0,0.0,0.0,0.0,0.0,-2.4991,-2.481,0.0,0.0,0.0,0.0,0.0,0.0,0.0,0.0,0.0,0.0,0.0,-1.2728,-1.4635,-1.6721,-1.8546,-1.9914,-2.0863,-2.1246,0.0,0.0,0.0,-2.2621,-2.4076,-2.4984,-2.5263,-2.7142,-2.8615,-2.9643,-3.038,-3.1565,-3.3105,-3.321,-3.3714,-3.4521,-3.4546,-3.4618,-3.4739,-3.4899,-3.4635,-3.4151,-3.418,-3.2679,-3.0215,-2.8756,-2.7771,-2.6953,-2.538,-2.4384,-2.3653,-2.2787,0.0,0.0,0.0,0.0,0.0,0.0,0.0,0.0,0.0,0.0,0.0,0.0,0.0,0.0,0.0,0.0,0.0,0.0,0.0,0.0,0.0,0.0,0.0,0.0,-2.2636,-2.4034,-2.5697,-2.5928,-2.6074,-2.6578,-2.7625,-2.8311,-2.8311,-2.8368,-2.8411,-2.8411,-2.8411,-2.8411,-2.8411,0.0,0.0,0.0,0.0,-3.0005,-2.9853,-2.9713,-2.9602,-2.9477,-2.9289,-2.9162,-2.9149,-2.8578,-2.8267,-2.8085,-2.737,-2.6986,-2.6904,-2.7274,-2.7394,-2.7245,-2.6209,-2.5709,-2.5582,-2.5722,-2.5732,-2.5762,0.0,0.0,0.0,0.0,0.0,0.0,0.0,0.0,0.0,-0.8833,-1.0831,-1.268,-1.4242,-1.5716,-1.7451,-1.9593,-1.9952,-2.0617,0.0,0.0,-2.2751,-2.3664,-2.5021,-2.6113,-2.6912,-2.7924,-2.9092,-3.0479,-3.1304,-3.223,-3.3193,-3.3901,-3.4366,-3.4667,-3.4763,-3.4899,-3.5018,-3.5175,-3.5161,-3.5,-3.4421,-3.3111,-3.1385,-3.0439,-2.9564,-2.8704,-2.7732,-2.6885,-2.6094,-2.523,-2.4279,-2.3256,-2.1868,0.0,0.0,0.0,0.0,0.0,0.0,0.0,0.0,0.0,0.0,0.0,0.0,0.0,0.0,0.0,0.0,0.0,0.0,0.0,0.0,-2.354,-2.4826,-2.5879,-2.6656,-2.809,-2.8795,-2.8179,-2.8641,-2.8997,-2.8997,-2.9454,-2.974,-2.974,-2.974,-2.974,-2.974,-2.9868,-2.994,-2.994,-3.0054,-3.008,-3.0036,-3.0019,-2.9988,-2.9958,0.0,0.0,-2.9477,-2.9199,-2.9,-2.8888,-2.8732,-2.8646,-2.8628,-2.8706,-2.857,-2.8236,-2.7433,-2.7097,-2.7044,-2.6793,-2.6629,-2.6459,0.0,0.0,0.0,0.0,0.0,0.0,0.0,0.0,0.0,0.0,-1.0186,-1.1796,-1.32,-1.4935,-1.6586,-1.8071,-1.8978,0.0,0.0,-2.2269,-2.3141,-2.4001,-2.5755,-2.6955,-2.7474,-2.8565,-2.9893,-3.1445,-3.1941,-3.2814,-3.3956,-3.4406,-3.4707,-3.4899,-3.497,-3.5065,-3.5198,-3.5337,-3.54,-3.5333,-3.4628,-3.3652,-3.2509,-3.1625,-3.0792,-2.9982,-2.9148,-2.8573,-2.7997,-2.6765,-2.5747,-2.4802,-2.3663,-2.2241,-2.0847,0.0,0.0,0.0,0.0,0.0,0.0,0.0,0.0,0.0,0.0,0.0,0.0,0.0,0.0,-2.1095,0.0,0.0,-2.4171,-2.5783,-2.6758,-2.7584,-2.8439,-2.9397,-2.9753,-2.9131,-2.9535,-2.991,-2.991,-3.0153,-3.0341,-3.0341,-3.0341,-3.0341,-3.0341,-3.0341,-3.0485,-3.0801,-3.0816,-3.0943,-3.1211,-3.1211,-3.1148,-3.1054,-3.0649,-3.0412,-3.035,-2.9885,-2.9651,-2.9602,-2.9495,-2.9449,-2.9449,-2.9261,-2.9053,-2.8812,-2.8249,-2.7967,-2.7769,-2.7382,-2.7201,-2.7105,0.0,0.0,0.0,0.0,0.0,0.0,0.0,0.0,0.0,0.0,-0.9432,-1.0764,-1.2091,-1.4023,-1.5589,0.0,0.0,0.0,0.0,-2.1978,-2.3145,-2.413,-2.6122,-2.7366,-2.7639,-2.8968,-3.0417,-3.2033,-3.2279,-3.3116,-3.4477,-3.469,-3.4899,-3.5088,-3.5152,-3.5245,-3.5354,-3.5492,-3.5476,-3.529,-3.4781,-3.4045,-3.3119,-3.221,-3.1472,-3.0811,-2.9922,-2.9573,-2.9294,-2.7687,-2.6609,-2.578,-2.4975,-2.3766,-2.2516,-2.1788,-2.0576,0.0,0.0,0.0,0.0,0.0,0.0,0.0,0.0,0.0,-2.2075,-2.2874,-2.3391,-2.4133,-2.5552,-2.6167,-2.6766,-2.7845,-2.8491,-2.9163,-3.0008,-3.0259,-3.0233,-2.993,-3.0352,-3.0702,-3.0702,-3.0702,-3.0702,-3.0702,-3.0702,-3.0702,-3.0702,-3.0804,-3.108,-3.1589,-3.172,-3.1992,-3.242,-3.2434,-3.2356,-3.2195,-3.1709,-3.1375,-3.1214,-3.068,-3.0317,-3.0142,-2.9929,-2.9853,-2.9822,-2.9498,-2.9293,-2.9162,-2.8812,-2.849,-2.8177,-2.7769,-2.7635,-2.7691,0.0,0.0,0.0,0.0,0.0,0.0,0.0,0.0,0.0,0.0,0.0,0.0,0.0,0.0,0.0,0.0,0.0,0.0,-2.0651,-2.1605,-2.2793,-2.4299,-2.5815,-2.7013,-2.785,-2.866,-2.9848,-3.1401,-3.2136,-3.2928,-3.3736,-3.4631,-3.5065,-3.5111,-3.5354,-3.5469,-3.5492,-3.5678,-3.5377,-3.4783,-3.4832,-3.3945,-3.2516,-3.1698,-3.1221,-3.0874,-3.0001,-2.9694,-2.9438,-2.7819,-2.7195,-2.6941,-2.5889,-2.496,-2.4204,-2.405,0.0,-2.1759,-2.1479,-2.079,-2.0141,-2.0141,-2.1139,-2.2134,0.0,0.0,-2.4493,-2.5762,-2.5927,-2.6428,-2.8369,-2.8682,-2.8844,-2.9445,-3.0096,-3.0468,-3.0311,-3.0774,-3.1101,-3.094,-3.0999,-3.1043,-3.1043,-3.1043,-3.1043,-3.1043,-3.1043,-3.1043,-3.1043,-3.1559,-3.1852,-3.1926,-3.2516,-3.2855,-3.2928,-3.2928,-3.2897,-3.2897,-3.2823,-3.2407,-3.1725,-3.1652,-3.1105,-3.0266,-3.0127,-3.008,-3.005,-2.9696,-2.954,-2.9509,-2.9162,-2.8908,-2.8651,-2.821,-2.8165,-2.8294,0.0,0.0,0.0,0.0,0.0,0.0,0.0,0.0,0.0,0.0,0.0,0.0,0.0,0.0,0.0,0.0,0.0,0.0,-1.8958,-2.056,-2.216,-2.3694,-2.5183,-2.6377,-2.7248,-2.8433,-2.9632,-3.0793,-3.1589,-3.2403,-3.3199,-3.3605,-3.389,-3.4008,-3.4201,-3.431,-3.4414,-3.4529,-3.4406,-3.4082,-3.3717,-3.2895,-3.1832,-3.1066,-3.0139,-2.9262,-2.9288,-2.9246,0.0,0.0,-2.7409,-2.7131,-2.6167,-2.5544,-2.509,-2.4594,-2.3989,0.0,-2.2708,-2.2586,0.0,0.0,-2.3817,-2.5091,-2.5091,-2.6383,-2.775,-2.8311,-2.8596,-2.903,-2.9878,-3.016,-3.0354,0.0,-3.1116,-3.1432,-3.1206,-3.1404,-3.1539,-3.1336,-3.1336,-3.1278,-3.1117,-3.1117,-3.1117,-3.1117,-3.1117,-3.1235,-3.1589,-3.1854,-3.234,-3.3153,-3.3448,-3.3758,-3.4095,-3.4109,-3.4109,-3.4095,-3.3758,-3.3416,-3.3088,-3.2691,-3.2055,-3.1273,-3.0862,-3.077,-3.0888,-3.0764,-3.076,-3.0799,-3.0573,-3.0378,-3.0107,-2.9224,-2.8899,-2.8936,0.0,0.0,0.0,0.0,0.0,0.0,0.0,0.0,0.0,0.0,0.0,0.0,0.0,0.0,0.0,0.0,0.0,0.0,0.0,-1.9423,-2.1199,-2.2681,-2.4204,-2.551,-2.6534,-2.766,-2.8746,-2.9844,-3.0853,-3.1672,-3.2285,-3.2767,-3.3086,-3.3262,-3.3385,-3.3409,-3.3325,-3.343,-3.3214,-3.2769,-3.2276,-3.1608,-3.0818,-2.9861,-2.8749,-2.776,-2.825,-2.8196,0.0,0.0,-2.66,-2.6356,-2.59,-2.5624,-2.5397,-2.4962,-2.4899,-2.4836,-2.414,0.0,0.0,-2.5152,-2.6472,-2.7809,-2.7809,-2.9022,-3.0179,-3.0366,-3.0694,-3.097,-3.113,-3.1378,-3.1554,-3.15,-3.1802,-3.2025,-3.187,-3.1841,-3.1813,-3.1655,-3.1655,-3.1568,-3.1366,-3.1307,-3.1293,-3.1293,-3.1322,-3.1619,-3.2243,-3.2406,-3.2999,-3.4157,-3.4347,-3.4626,-3.5067,-3.5082,-3.5082,-3.5067,-3.4626,-3.4315,-3.4108,-3.341,-3.2817,-3.2313,-3.1825,-3.1733,-3.1897,-3.1803,-3.1827,-3.1903,-3.1641,-3.1443,-3.1202,-3.0423,-2.9971,-2.9867,0.0,0.0,0.0,0.0,0.0,0.0,0.0,0.0,0.0,0.0,0.0,0.0,0.0,0.0,0.0,0.0,0.0,0.0,0.0,-1.8267,-1.9751,-2.1293,-2.2766,-2.4297,-2.5897,-2.5963,-2.6796,-2.8459,-2.9985,-3.0742,-3.0812,-3.242,-3.3262,-3.3406,-3.3528,-3.3243,-3.2644,-3.276,-3.1958,-3.0603,-3.0694,-3.0229,-2.9299,-2.7789,-2.7091,-2.6943,-2.6961,0.0,0.0,0.0,-2.4407,-2.4395,-2.4945,-2.5024,0.0,-2.5528,-2.6021,-2.643,0.0,0.0,-2.8176,-2.8176,-2.9134,-3.0109,-3.0109,-3.0541,-3.1134,-3.1809,-3.1836,-3.1913,-3.2447,-3.2547,-3.2465,-3.2216,-3.2176,-3.215,-3.2025,-3.1996,-3.1996,-3.1996,-3.1996,-3.1996,0.0,-3.187,-3.1784,-3.1784,-3.1883,-3.2256,-3.2924,-3.3396,-3.3969,-3.4647,-3.5179,-3.5457,-3.5472,-3.5472,-3.5472,-3.5472,-3.5457,-3.5115,-3.4457,-3.3658,-3.3268,-3.3253,-3.3024,-3.2946,-3.293,-3.2584,-3.2486,-3.2405,-3.1903,-3.1608,-3.1513,-3.1667,-3.1521,-3.1162,0.0,0.0,0.0,0.0,0.0,0.0,0.0,0.0,0.0,0.0,0.0,0.0,0.0,0.0,0.0,0.0,0.0,0.0,0.0,-1.6825,-1.8288,-1.9835,-2.1323,-2.2639,-2.3752,-2.4755,-2.5814,-2.6949,-2.7987,-2.8798,-2.9393,-2.9995,-3.0386,-3.0559,-3.0636,-3.0612,-3.0481,-3.0572,-3.004,-2.911,-2.9162,-2.8386,-2.7149,-2.6631,-2.5405,-2.3986,0.0,0.0,0.0,0.0,0.0,-2.4424,-2.4996,-2.5111,-2.5221,-2.6148,-2.6571,-2.6863,0.0,0.0,-2.9323,-2.9742,-3.0792,-3.1745,-3.1745,-3.2143,-3.2467,-3.2246,-3.2054,-3.1847,-3.1607,-3.1472,-3.1368,-3.1153,-3.1512,-3.1724,-3.1506,-3.1832,-3.2094,-3.2025,-3.1996,0.0,0.0,0.0,0.0,-3.194,-3.1968,-3.2482,-3.359,-3.3818,-3.4425,-3.5531,-3.574,-3.5829,-3.5829,-3.5829,-3.5829,-3.5829,-3.5829,-3.5708,-3.5451,-3.477,-3.4437,-3.4376,-3.3786,-3.3708,-3.3971,-3.375,-3.368,-3.3761,-3.3561,-3.3259,-3.2893,-3.2814,-3.2797,-3.2709,0.0,0.0,0.0,0.0,0.0,0.0,0.0,0.0,0.0,0.0,0.0,0.0,0.0,0.0,0.0,0.0,0.0,0.0,0.0,0.0,-1.684,-1.8375,-1.9615,-2.0779,-2.1899,-2.2865,-2.3902,-2.5027,-2.5879,-2.67,-2.7542,-2.7867,-2.8163,-2.8355,-2.8391,-2.834,-2.8217,-2.8266,-2.7868,-2.7161,-2.6868,-2.6146,-2.5215,-2.4666,-2.3478,0.0,0.0,0.0,0.0,0.0,0.0,-2.338,-2.4495,-2.5294,-2.5964,-2.6681,-2.7401,-2.8099,-2.8903,-2.9942,-3.0898,-3.1301,-3.2158,-3.2911,-3.286,-3.2942,-3.2881,-3.2386,-3.1804,-3.1215,-3.0741,-3.036,-3.0158,-3.0251,-3.0654,-3.0949,-3.1039,-3.1628,-3.2004,-3.1867,-3.2069,-3.2206,0.0,0.0,0.0,-3.2066,-3.2122,-3.273,-3.4103,-3.4105,-3.4684,-3.6023,-3.6037,-3.6005,-3.6005,-3.6005,-3.6005,-3.6005,-3.6005,-3.6005,-3.599,-3.5564,-3.5367,-3.5337,-3.4803,-3.4724,-3.4911,-3.4735,-3.465,-3.4683,-3.4481,-3.4176,-3.3862,-3.3691,-3.3673,-3.3606,0.0,0.0,0.0,0.0,0.0,0.0,0.0,0.0,0.0,0.0,0.0,0.0,0.0,0.0,0.0,0.0,0.0,0.0,0.0,0.0,0.0,-1.682,-1.7665,-1.8789,-2.0246,-2.0414,-2.1242,-2.2725,-2.3676,-2.4508,-2.5246,-2.6084,-2.6588,-2.6769,-2.6769,-2.6455,-2.5921,-2.5921,-2.5491,-2.4764,-2.3991,-2.365,-2.346,-2.1958,0.0,0.0,0.0,0.0,0.0,0.0,0.0,0.0,0.0,-2.5593,-2.713,-2.7226,-2.8563,-3.0011,-3.0141,-3.1454,-3.2812,-3.2868,-3.3299,-3.3668,-3.3507,-3.294,-3.239,-3.22,-3.1026,-2.9998,0.0,0.0,-2.892,-2.9425,-2.9588,-2.9899,-3.06,-3.1311,-3.1695,0.0,0.0,0.0,0.0,0.0,0.0,-3.2247,0.0,-3.3026,-3.4428,-3.4327,-3.485,-3.6165,-3.6085,-3.6037,-3.6037,-3.6037,-3.6037,-3.6037,-3.6037,-3.6037,-3.6037,-3.6037,-3.6037,-3.6037,-3.6005,-3.5894,-3.572,-3.5587,-3.5392,-3.5162,-3.4679,-3.4491,-3.4428,-3.4335,-3.4158,-3.3923,0.0,0.0,0.0,0.0,0.0,0.0,0.0,0.0,0.0,0.0,0.0,0.0,0.0,0.0,0.0,0.0,0.0,0.0,0.0,0.0,0.0,0.0,0.0,0.0,0.0,0.0,0.0,0.0,-2.1375,-2.2197,-2.2884,-2.3251,-2.3485,-2.3585,-2.363,-2.3596,-2.3502,-2.3547,-2.3129,-2.244,0.0,-2.1764,-2.115,0.0,0.0,0.0,0.0,0.0,0.0,0.0,0.0,0.0,0.0,-2.6477,-2.7557,-2.9098,-2.9847,-3.0484,-3.1994,-3.2699,-3.3145,-3.3646,-3.382,-3.3694,-3.3097,-3.2382,-3.1485,-3.0299,-2.8942,-2.7771,0.0,0.0,0.0,-2.6788,-2.8091,0.0,-2.9223,-3.0298,0.0,0.0,0.0,-3.2209,-3.2726,-3.2773,0.0,0.0,-3.2621,-3.3153,-3.4558,-3.4606,-3.5135,-3.6368,-3.6398,-3.6367,-3.6367,-3.6367,-3.6367,-3.6367,-3.6367,-3.6367,-3.6367,-3.6367,-3.6367,-3.6352,-3.6211,-3.6116,-3.6038,-3.5767,-3.5572,-3.5451,-3.5663,-3.5502,-3.5198,-3.5453,-3.5549,-3.5489,0.0,0.0,0.0,0.0,0.0,0.0,0.0,0.0,0.0,0.0,0.0,0.0,0.0,0.0,0.0,0.0,0.0,0.0,0.0,0.0,0.0,0.0,0.0,0.0,0.0,0.0,0.0,0.0,0.0,0.0,-2.0073,-2.0241,-2.0357,-2.0424,-2.0466,-2.0528,-2.0568,-2.0622,0.0,0.0,0.0,0.0,0.0,0.0,0.0,0.0,0.0,0.0,0.0,0.0,0.0,-2.4961,-2.6067,-2.7498,-2.8995,-3.0121,0.0,-3.1944,-3.3001,-3.3445,-3.3689,-3.4028,-3.3824,-3.3345,-3.2546,-3.1277,-2.9941,-2.8688,-2.6798,0.0,0.0,0.0,0.0,0.0,0.0,0.0,-2.8332,-2.9375,-3.0306,0.0,-3.1524,0.0,-3.2382,-3.271,-3.2924,0.0,-3.2827,-3.3336,-3.4716,-3.4794,-3.5372,-3.6677,-3.6724,-3.6724,-3.6724,-3.6724,-3.6724,-3.6724,-3.6724,-3.6724,-3.6724,-3.6647,-3.6585,-3.6569,0.0,-3.6274,-3.6179,-3.6006,-3.5948,-3.6052,-3.6212,-3.6255,-3.6201,-3.6468,-3.6478,-3.6283,0.0,0.0,0.0,0.0,0.0,0.0,0.0,0.0,0.0,0.0,0.0,0.0,0.0,0.0,0.0,0.0,0.0,0.0,0.0,0.0,0.0,0.0,0.0,0.0,0.0,0.0,0.0,0.0,0.0,0.0,0.0,0.0,0.0,0.0,0.0,0.0,0.0,0.0,0.0,0.0,0.0,0.0,0.0,0.0,0.0,0.0,0.0,0.0,0.0,0.0,-2.3508,-2.5496,-2.6436,-2.8486,-3.0588,-3.0767,-3.2144,-3.3597,-3.3578,-3.3925,-3.4275,-3.4151,-3.3623,-3.2846,-3.1894,-3.0019,-2.8174,-2.713,0.0,-2.2741,-2.2628,0.0,-2.2062,-2.3309,0.0,-2.5563,-2.7458,-2.8487,-2.9225,-2.9855,-3.113,-3.1944,-3.1909,-3.2556,-3.3032,-3.315,-3.311,-3.3623,-3.486,-3.5016,-3.5671,-3.6968,-3.7015,-3.7015,-3.7015,-3.7015,-3.7015,-3.7015,-3.7015,-3.7015,-3.6984,-3.6831,-3.6723,-3.6723,-3.6585,-3.6414,-3.6274,-3.6287,-3.6493,-3.676,-3.6727,-3.6977,-3.7367,-3.7441,-3.7168,-3.6839,0.0,0.0,0.0,0.0,0.0,0.0,0.0,0.0,0.0,0.0,-0.7949,0.0,0.0,0.0,0.0,0.0,0.0,0.0,0.0,0.0,0.0,0.0,0.0,0.0,0.0,0.0,0.0,0.0,0.0,0.0,0.0,0.0,0.0,0.0,0.0,0.0,0.0,0.0,0.0,0.0,0.0,0.0,0.0,0.0,0.0,0.0,0.0,0.0,0.0,0.0,-2.2752,-2.5025,-2.758,-2.9044,-3.0155,-3.1948,-3.3005,-3.3736,-3.4321,-3.4374,-3.43,-3.4275,-3.3681,-3.274,-3.1366,-2.941,0.0,0.0,0.0,-2.1311,-2.0639,-2.0416,0.0,-2.1388,0.0,0.0,0.0,0.0,-2.879,0.0,0.0,0.0,0.0,0.0,0.0,0.0,0.0,-3.4341,-3.5018,-3.5629,-3.6275,-3.6984,-3.7015,-3.7015,-3.7015,-3.7015,-3.7015,-3.7015,-3.7015,-3.7015,-3.7015,-3.6969,-3.6938,-3.6938,-3.6754,0.0,-3.6631,-3.6903,-3.7065,-3.7197,-3.7986,-3.8277,-3.8197,-3.8253,-3.8132,-3.7818,0.0,0.0,0.0,0.0,0.0,0.0,0.0,0.0,0.0,0.0,-0.7949,-0.8014,0.0,0.0,0.0,0.0,0.0,0.0,0.0,0.0,0.0,0.0,0.0,0.0,0.0,0.0,0.0,0.0,0.0,0.0,0.0,0.0,0.0,0.0,0.0,0.0,0.0,0.0,0.0,0.0,0.0,0.0,0.0,0.0,0.0,0.0,0.0,0.0,0.0,0.0,-2.1365,-2.3845,-2.7178,-2.9152,-3.0583,-3.2374,-3.3288,-3.3862,-3.4517,-3.4594,-3.4374,-3.3852,-3.2884,-3.1547,-2.9664,0.0,0.0,0.0,0.0,-1.8772,-1.8008,0.0,0.0,0.0,0.0,0.0,0.0,0.0,0.0,0.0,0.0,0.0,0.0,0.0,0.0,0.0,0.0,-3.5138,-3.5263,-3.6274,-3.6985,-3.7255,-3.7241,-3.7241,-3.7241,-3.7241,-3.7241,-3.7241,-3.7241,-3.7241,-3.7241,-3.7165,-3.7089,-3.7089,-3.6923,0.0,-3.7235,-3.7402,-3.778,-3.8287,-3.8774,-3.8987,-3.9067,-3.9,-3.8701,-3.8277,0.0,0.0,0.0,0.0,0.0,0.0,0.0,-0.6586,-0.7308,-0.7831,-0.7957,-0.8007,-0.8021,-0.8128,-0.8204,0.0,0.0,0.0,0.0,0.0,0.0,0.0,0.0,0.0,0.0,0.0,0.0,0.0,0.0,0.0,0.0,0.0,0.0,0.0,0.0,0.0,0.0,0.0,0.0,0.0,0.0,0.0,0.0,0.0,0.0,0.0,0.0,0.0,0.0,0.0,-1.9788,-2.2065,-2.5614,-2.8282,-3.0393,-3.1979,-3.2868,-3.3468,-3.4103,-3.4254,-3.4034,-3.3246,-3.1945,-3.032,-2.822,-2.554,0.0,0.0,-1.8434,-1.6749,-1.5846,0.0,0.0,0.0,0.0,0.0,0.0,0.0,0.0,0.0,0.0,0.0,0.0,0.0,0.0,0.0,0.0,0.0,-3.5934,-3.6996,-3.7599,-3.7599,-3.7599,-3.7599,-3.7599,-3.7599,-3.7599,-3.7599,-3.7599,-3.7553,-3.7539,-3.7389,-3.7284,-3.727,-3.7105,0.0,0.0,-3.7901,-3.8481,-3.9339,-3.9409,-3.9599,-3.9788,-3.9517,-3.9119,-3.8627,0.0,0.0,0.0,0.0,0.0,0.0,0.0,-0.6981,-0.7831,-0.7897,-0.7956,-0.8021,-0.8078,-0.8156,-0.8204,0.0,0.0,0.0,0.0,0.0,0.0,0.0,0.0,0.0,0.0,0.0,0.0,0.0,0.0,0.0,0.0,0.0,0.0,0.0,0.0,0.0,0.0,0.0,0.0,0.0,0.0,0.0,0.0,0.0,0.0,0.0,0.0,0.0,0.0,0.0,0.0,-1.9566,-2.2649,-2.5548,-2.8204,-3.0279,0.0,0.0,-3.2696,-3.2788,-3.2681,-3.2593,-3.1313,-2.9702,-2.8209,0.0,0.0,-1.9881,-1.8116,-1.6662,-1.5247,-1.5041,-1.5542,0.0,0.0,0.0,0.0,0.0,0.0,0.0,0.0,0.0,0.0,0.0,0.0,0.0,0.0,0.0,-3.7604,-3.7796,-3.7876,-3.7876,-3.7876,-3.7876,-3.7876,-3.7876,-3.7876,-3.7876,-3.7876,-3.7788,-3.7671,-3.7671,-3.7583,-3.7464,-3.727,0.0,0.0,-3.8587,-3.9108,-3.9771,-4.0063,-4.0216,-4.0172,-3.9589,-3.9337,-3.9192,0.0,0.0,0.0,0.0,0.0,0.0,0.0,-0.6761,-0.7497,-0.791,-0.8013,-0.8064,-0.8107,-0.8156,-0.8204,0.0,0.0,0.0,0.0,0.0,0.0,0.0,0.0,0.0,0.0,0.0,0.0,0.0,0.0,0.0,0.0,0.0,0.0,0.0,0.0,0.0,0.0,0.0,0.0,0.0,0.0,0.0,0.0,0.0,0.0,0.0,0.0,0.0,0.0,0.0,0.0,0.0,-1.9721,-2.1497,0.0,0.0,-2.9513,-2.9914,-3.1073,-3.1345,-3.1165,-3.0688,-2.9362,-2.7686,-2.5754,0.0,0.0,-1.7776,-1.6139,-1.4854,-1.3828,-1.4,-1.4486,0.0,0.0,0.0,0.0,0.0,0.0,0.0,0.0,0.0,0.0,0.0,0.0,0.0,0.0,0.0,-3.7718,-3.7866,-3.7905,-3.7905,-3.7905,-3.7905,-3.7905,-3.7905,-3.7905,-3.7905,-3.7905,-3.7876,-3.7817,-3.7817,-3.7788,-3.7746,-3.7995,0.0,0.0,-3.9499,-4.0056,-4.0577,-4.0603,-4.0539,-4.0366,-4.0051,-3.9696,-3.9352,0.0,0.0,0.0,0.0,0.0,0.0,-0.5642,-0.6449,-0.7167,-0.7635,-0.7941,-0.8114,-0.8128,-0.8176,-0.8209,-0.8234,0.0,0.0,0.0,0.0,0.0,0.0,0.0,0.0,0.0,0.0,0.0,-0.9498,-1.0168,0.0,0.0,0.0,0.0,0.0,0.0,0.0,0.0,0.0,0.0,0.0,0.0,0.0,0.0,0.0,0.0,0.0,0.0,0.0,0.0,0.0,0.0,0.0,0.0,0.0,0.0,0.0,-2.7136,-2.7396,-2.8834,-2.9231,-2.9095,-2.852,-2.7205,-2.5586,0.0,0.0,-1.8327,-1.6403,-1.4713,-1.342,-1.2908,-1.3054,-1.3388,-1.383,0.0,0.0,0.0,0.0,0.0,0.0,0.0,0.0,0.0,0.0,0.0,0.0,0.0,0.0,-3.7363,-3.7674,-3.7951,-3.816,-3.8177,-3.8177,-3.8177,-3.8177,-3.8148,-3.8107,-3.8107,-3.8078,-3.7992,-3.7992,-3.7963,-3.7937,-3.8535,0.0,0.0,-4.0165,-4.0694,-4.112,-4.095,-4.078,-4.0558,-4.0401,-4.0051,-3.9625,0.0,0.0,0.0,0.0,0.0,0.0,0.0,-0.6141,-0.7006,-0.7013,-0.7649,-0.8128,-0.8183,-0.8209,-0.8234,-0.8287,0.0,0.0,0.0,0.0,0.0,0.0,0.0,0.0,0.0,0.0,-0.87,-0.9498,-1.0168,-1.0887,-1.1592,0.0,0.0,0.0,0.0,0.0,0.0,0.0,0.0,0.0,0.0,0.0,0.0,0.0,0.0,0.0,0.0,0.0,0.0,0.0,0.0,0.0,0.0,0.0,0.0,0.0,-2.405,-2.4365,-2.5838,-2.6235,-2.6235,-2.6219,-2.5023,-2.3637,0.0,0.0,-1.7714,-1.6289,-1.4308,-1.2811,-1.2811,-1.2218,-1.2211,-1.3655,-1.4538,0.0,0.0,0.0,0.0,0.0,0.0,0.0,0.0,0.0,0.0,0.0,0.0,0.0,-3.6685,-3.7347,-3.8051,-3.8772,-3.8805,-3.8805,-3.8805,-3.8805,-3.8738,-3.8588,-3.8588,-3.8448,-3.8209,-3.8209,-3.8078,-3.7937,0.0,0.0,0.0,-4.0372,-4.0858,-4.129,-4.1169,-4.095,-4.0765,-4.0558,-4.0401,-4.0226,0.0,0.0,0.0,0.0,0.0,0.0,0.0,-0.5426,-0.587,-0.6324,-0.6991,-0.7431,-0.745,-0.794,-0.8079,-0.758,0.0,0.0,0.0,0.0,0.0,0.0,0.0,0.0,0.0,0.0,-0.8832,-1.0041,-1.0261,-1.0954,-1.2083,-1.2083,-1.1832,0.0,0.0,0.0,0.0,0.0,0.0,0.0,0.0,0.0,0.0,0.0,0.0,0.0,0.0,0.0,0.0,0.0,0.0,0.0,0.0,0.0,0.0,0.0,0.0,0.0,-2.2791,-2.3189,-2.3189,-2.3189,-2.2415,-2.1286,-2.004,0.0,-1.6312,-1.4865,-1.3222,-1.2193,-1.2713,-1.2228,-1.2092,-1.3055,-1.4259,0.0,0.0,0.0,0.0,0.0,0.0,0.0,0.0,0.0,0.0,0.0,0.0,0.0,-3.6925,-3.7652,-3.8272,-3.8772,-3.8805,-3.8805,-3.8805,-3.8805,-3.8777,-3.8738,-3.8738,-3.8694,-3.8628,-3.8628,-3.8516,0.0,0.0,0.0,0.0,-4.1215,-4.1676,-4.1686,-4.1505,-4.1339,-4.1122,-4.095,-4.078,-4.0593,0.0,0.0,0.0,0.0,0.0,0.0,0.0,-0.4936,-0.5244,-0.5669,-0.6311,-0.6729,-0.6752,-0.7214,-0.7322,-0.6855,0.0,0.0,0.0,0.0,0.0,0.0,0.0,0.0,0.0,-0.8069,-0.8899,-1.0297,-1.0297,-1.0999,-1.2313,-1.2313,-1.2079,-1.1668,-1.1384,0.0,0.0,0.0,0.0,0.0,0.0,0.0,-0.8261,0.0,0.0,0.0,0.0,0.0,0.0,0.0,0.0,0.0,0.0,0.0,0.0,0.0,-1.61,0.0,0.0,-2.0188,-2.0188,-2.0188,-1.9571,0.0,0.0,0.0,-1.5011,-1.4084,-1.2748,-1.196,-1.2699,-1.2289,-1.2177,-1.3193,-1.4359,0.0,0.0,0.0,0.0,0.0,0.0,0.0,0.0,0.0,0.0,0.0,0.0,0.0,-3.6804,-3.7552,-3.819,-3.8702,-3.8891,-3.8985,-3.8985,-3.8985,-3.8942,-3.8887,-3.8887,-3.886,-3.8805,-3.8805,-3.875,0.0,0.0,0.0,0.0,-4.177,-4.2158,-4.1947,-4.1834,-4.1621,-4.139,-4.1321,-4.112,-4.0882,0.0,0.0,0.0,0.0,0.0,0.0,0.0,0.0,0.0,0.0,-0.5605,-0.6053,-0.6108,-0.6165,-0.618,0.0,0.0,0.0,0.0,0.0,0.0,0.0,0.0,0.0,0.0,-0.7805,-0.8878,-1.0272,-1.0272,-1.0966,-1.2292,-1.2292,-1.2292,-1.2261,-1.1569,-1.0878,-1.0111,-0.8694,-0.8094,-0.8094,-0.8109,-0.8144,0.0,0.0,0.0,0.0,0.0,0.0,0.0,0.0,0.0,0.0,0.0,0.0,0.0,0.0,0.0,0.0,0.0,0.0,0.0,0.0,0.0,0.0,0.0,0.0,0.0,-1.3837,-1.2745,-1.2028,-1.2755,-1.2382,-1.2443,-1.3877,0.0,0.0,0.0,0.0,0.0,0.0,0.0,0.0,0.0,0.0,0.0,0.0,0.0,0.0,-3.6363,-3.7099,-3.7836,-3.8589,-3.9075,-3.9325,-3.9325,-3.9325,-3.9228,-3.905,-3.905,-3.8996,-3.886,-3.886,-3.886,0.0,0.0,0.0,0.0,-4.2051,-4.2429,-4.2142,-4.2142,-4.1916,-4.1621,-4.1621,-4.1439,-4.1135,0.0,0.0,0.0,0.0,0.0,0.0,0.0,0.0,0.0,0.0,-0.4923,-0.5339,-0.5353,-0.5856,-0.5995,0.0,0.0,0.0,0.0,0.0,0.0,0.0,0.0,0.0,0.0,-0.7746,-0.8758,-1.0073,-1.0117,-1.0826,-1.2153,-1.2205,-1.2216,-1.2226,-1.2035,-1.1279,-1.0036,-0.868,-0.8094,-0.8109,-0.8161,-0.8195,0.0,0.0,0.0,0.0,-0.8396,-0.8435,0.0,0.0,0.0,0.0,0.0,0.0,0.0,0.0,-1.1412,-1.1694,-1.2953,0.0,-1.5823,-1.5823,-1.5663,0.0,0.0,0.0,0.0,0.0,0.0,0.0,0.0,0.0,0.0,0.0,0.0,0.0,0.0,0.0,0.0,0.0,0.0,0.0,0.0,0.0,0.0,0.0,0.0,-3.5626,-3.6363,-3.7099,-3.7836,-3.8589,-3.9257,-3.9599,-3.9599,-3.9599,-3.9573,-3.9547,-3.9547,-3.9504,-3.9478,-3.9478,-3.9441,0.0,0.0,0.0,-4.1127,-4.2433,-4.2774,-4.246,-4.246,-4.227,-4.198,-4.198,-4.1866,-4.1702,0.0,0.0,0.0,0.0,0.0,0.0,0.0,0.0,0.0,0.0,0.0,0.0,0.0,0.0,0.0,0.0,0.0,0.0,0.0,0.0,0.0,0.0,0.0,0.0,-0.6531,-0.723,-0.8385,-1.0003,-1.0038,-1.0767,-1.2101,-1.2133,-1.2164,-1.2169,-1.1522,-1.0804,-1.0011,-0.8672,-0.8094,-0.8109,-0.8168,0.0,0.0,0.0,0.0,0.0,-0.8396,-0.8441,0.0,-0.8581,-0.8606,-0.8679,0.0,0.0,0.0,0.0,-1.0392,-1.0624,-1.171,-1.2879,-1.3866,-1.4205,-1.4287,-1.4178,0.0,0.0,0.0,0.0,0.0,0.0,0.0,0.0,0.0,0.0,0.0,0.0,0.0,0.0,0.0,0.0,0.0,0.0,0.0,0.0,0.0,0.0,0.0,-3.562,-3.6024,-3.6771,-3.7384,-3.7795,-3.8898,-3.9547,-3.9703,-3.9703,-3.9703,-3.9703,-3.9703,-3.9703,-3.9703,-3.9703,-3.9651,0.0,0.0,0.0,-4.1399,-4.2779,-4.3113,-4.2805,-4.2759,-4.2571,-4.2302,-4.227,-4.2125,-4.198,0.0,0.0,0.0,0.0,0.0,0.0,0.0,0.0,0.0,0.0,0.0,0.0,0.0,0.0,0.0,0.0,0.0,0.0,0.0,0.0,0.0,0.0,0.0,-0.5412,-0.5966,-0.6742,-0.8067,-0.9976,-0.9985,-1.0705,-1.2075,-1.2101,-1.2086,-1.1984,-1.0681,-1.0042,-0.9866,-0.8626,-0.8109,-0.8116,-0.8175,0.0,0.0,0.0,0.0,0.0,0.0,0.0,0.0,-0.8538,-0.8602,-0.8616,-0.8687,0.0,0.0,0.0,0.0,0.0,-1.1429,-1.1826,-1.2042,-1.2894,-1.3093,-1.3126,-1.3242,0.0,0.0,0.0,0.0,0.0,0.0,0.0,0.0,0.0,0.0,0.0,0.0,0.0,0.0,0.0,0.0,0.0,0.0,0.0,0.0,0.0,0.0,-3.56,-3.5622,-3.6372,-3.6847,-3.6945,-3.8323,-3.9172,-3.948,-3.9715,-3.9833,-3.9833,-3.9833,-3.9833,-3.9833,-3.9833,-3.9833,-3.9917,0.0,0.0,-4.1637,-4.2912,-4.3363,-4.3174,-4.3023,-4.2837,-4.2634,-4.2508,-4.2349,-4.2125,0.0,0.0,0.0,0.0,0.0,0.0,0.0,0.0,0.0,0.0,0.0,0.0,0.0,0.0,0.0,0.0,0.0,0.0,0.0,0.0,0.0,0.0,-0.5188,-0.5864,-0.5917,-0.7126,-0.847,-0.9917,-0.9914,-1.0648,-1.2012,-1.2065,-1.18,-1.1226,-1.0441,-0.9789,-0.9212,-0.8426,-0.8139,-0.819,-0.8193,0.0,0.0,0.0,0.0,0.0,0.0,0.0,0.0,-0.8396,-0.8604,-0.8616,-0.8687,0.0,0.0,0.0,0.0,0.0,-1.0667,-1.1072,-1.1396,-1.2762,-1.3093,-1.3258,-1.3887,0.0,0.0,0.0,0.0,0.0,0.0,0.0,0.0,0.0,0.0,0.0,0.0,0.0,0.0,0.0,0.0,0.0,0.0,0.0,0.0,0.0,0.0,-3.5644,-3.5773,-3.6469,-3.6945,-3.7075,-3.7894,-3.8382,-3.8438,-3.9739,-4.037,-4.037,-4.037,-4.037,-4.037,-4.037,-4.037,-4.0396,0.0,-4.1623,-4.22,-4.2662,-4.309,-4.3492,-4.3388,-4.3146,-4.2837,-4.2837,-4.2634,-4.2286,0.0,0.0,0.0,0.0,0.0,0.0,0.0,0.0,0.0,0.0,0.0,0.0,0.0,0.0,0.0,0.0,0.0,0.0,0.0,0.0,0.0,-0.4,-0.5253,-0.5933,-0.5907,-0.6862,-0.8192,-0.989,-0.9893,-1.0625,-1.2002,-1.2112,-1.1785,-1.1072,-1.0395,-0.9751,-0.9104,-0.8432,-0.8175,-0.8209,0.0,0.0,0.0,0.0,0.0,0.0,0.0,0.0,0.0,0.0,-0.8305,-0.8616,-0.8687,0.0,0.0,0.0,0.0,0.0,-1.0501,-1.0921,-1.1309,-1.2788,-1.3425,-1.3788,-1.4119,0.0,0.0,0.0,0.0,0.0,0.0,0.0,0.0,0.0,0.0,0.0,0.0,0.0,0.0,0.0,0.0,0.0,0.0,0.0,0.0,0.0,0.0,0.0,-3.5905,-3.6234,-3.6483,-3.661,-3.7396,-3.7841,-3.7868,-3.9055,-3.972,-3.9911,-4.0322,-4.051,-4.051,-4.051,-4.051,-4.0519,0.0,-4.1537,-4.1786,-4.27,-4.3103,-4.3136,-4.3403,-4.3312,-4.2976,-4.2728,-4.2476,-4.2174,0.0,0.0,0.0,0.0,0.0,0.0,0.0,0.0,0.0,0.0,0.0,0.0,0.0,0.0,0.0,0.0,0.0,0.0,0.0,0.0,-0.3974,-0.3972,-0.5216,-0.5896,-0.5896,-0.6709,-0.8049,-0.989,-0.989,-1.063,-1.2002,-1.1964,-1.1558,-1.0841,-1.0173,-0.9551,-0.8926,-0.8414,-0.8209,-0.8234,0.0,0.0,0.0,0.0,0.0,0.0,0.0,0.0,0.0,0.0,0.0,0.0,0.0,0.0,0.0,-0.8699,-0.8699,-0.9025,-1.0515,-1.0967,-1.1389,-1.3057,0.0,-1.4307,-1.4655,0.0,0.0,0.0,0.0,0.0,0.0,0.0,0.0,0.0,0.0,0.0,0.0,0.0,0.0,0.0,0.0,0.0,0.0,0.0,0.0,0.0,0.0,0.0,-3.6041,-3.6062,-3.6127,-3.6268,-3.6964,-3.7343,-3.7373,-3.8221,-3.8958,-3.9581,-4.0147,-4.0508,-4.0662,-4.0655,-4.0631,-4.0666,-4.1175,-4.1358,-4.1383,-4.2625,-4.3003,-4.2827,-4.3418,-4.3432,-4.3035,-4.2555,-4.227,-4.2045,0.0,0.0,0.0,0.0,0.0,0.0,0.0,0.0,0.0,0.0,0.0,0.0,0.0,0.0,0.0,0.0,0.0,0.0,0.0,0.0,-0.3913,-0.391,-0.5188,-0.5903,-0.5903,-0.7167,-0.8506,-0.989,-0.989,-1.063,-1.1986,-1.1438,-1.0826,-1.0158,-0.9536,-0.8895,-0.8274,-0.8224,-0.8241,-0.8287,-0.8294,0.0,0.0,0.0,0.0,0.0,0.0,0.0,0.0,0.0,0.0,0.0,0.0,0.0,-0.8699,-0.8699,-0.8699,-0.9031,-1.0575,-1.1006,-1.1514,-1.3677,-1.4254,0.0,-1.6011,-1.6959,0.0,0.0,0.0,0.0,0.0,0.0,0.0,0.0,0.0,0.0,0.0,0.0,0.0,0.0,0.0,0.0,0.0,0.0,0.0,0.0,0.0,0.0,-3.6182,-3.6255,-3.6339,-3.6482,-3.6655,-3.6768,-3.6751,-3.7499,-3.8608,-4.0063,-4.0115,-4.0497,-4.114,-4.1099,-4.1047,-4.1064,-4.0862,-4.1079,-4.1605,-4.2163,-4.2621,-4.3031,-4.3656,-4.3568,-4.3035,-4.2555,-4.227,-4.2045,0.0,0.0,0.0,0.0,0.0,0.0,0.0,0.0,0.0,0.0,0.0,0.0,0.0,0.0,0.0,0.0,0.0,0.0,0.0,0.0,-0.3899,-0.3902,-0.4788,-0.547,-0.5883,-0.7212,-0.8349,-0.9287,-0.9736,-1.0233,-1.0754,-1.062,-1.0177,-0.9536,-0.9305,-0.8854,-0.8263,-0.8254,-0.8272,-0.8257,-0.7847,-0.7531,0.0,0.0,0.0,0.0,0.0,0.0,0.0,0.0,-0.684,-0.766,-0.7984,-0.8398,-0.8763,-0.877,-0.8754,-0.9099,-1.0593,-1.1023,-1.1582,-1.3814,-1.5078,0.0,0.0,-1.7836,0.0,0.0,0.0,0.0,0.0,0.0,0.0,0.0,0.0,0.0,0.0,0.0,0.0,0.0,0.0,0.0,0.0,0.0,0.0,0.0,0.0,0.0,-3.6377,-3.6402,-3.6502,-3.6623,-3.6725,-3.6748,-3.6748,-3.7126,-3.8093,-3.9612,-3.9948,-4.049,-4.1209,-4.118,-4.1146,-4.1093,-4.1,-4.0941,-4.0964,-4.1605,-4.204,-4.2384,-4.3118,-4.3265,-4.3052,-4.2429,-4.2174,-4.2013,0.0,0.0,0.0,0.0,0.0,0.0,0.0,0.0,0.0,0.0,0.0,0.0,0.0,0.0,0.0,0.0,0.0,0.0,-0.3873,-0.3862,-0.3873,-0.3873,-0.4534,-0.5124,-0.558,-0.6688,-0.7801,-0.8905,-0.9652,-1.0023,-1.0034,-0.9937,-0.9638,-0.9189,-0.9001,-0.8693,-0.8292,-0.8314,-0.8207,-0.7986,-0.7519,-0.7059,0.0,0.0,0.0,0.0,0.0,0.0,0.0,0.0,-0.6069,-0.7003,-0.7529,-0.8049,-0.8499,-0.8728,-0.88,-0.9124,-1.0635,-1.1073,-1.1716,0.0,0.0,0.0,-1.856,-1.9411,0.0,0.0,0.0,0.0,0.0,0.0,0.0,0.0,0.0,0.0,0.0,0.0,0.0,0.0,0.0,0.0,0.0,0.0,0.0,0.0,0.0,0.0,0.0,-3.6585,-3.6626,-3.6725,-3.6809,-3.6851,-3.6851,-3.695,-3.776,-3.9301,-3.9678,-4.0358,-4.1323,-4.1277,-4.1203,-4.1123,-4.1117,-4.0864,-4.0561,-4.1305,-4.1875,-4.23,-4.2878,-4.3113,-4.3005,-4.2365,-4.2109,-4.2013,0.0,0.0,0.0,0.0,0.0,0.0,0.0,0.0,0.0,0.0,0.0,0.0,0.0,0.0,0.0,0.0,0.0,0.0,-0.3799,-0.3799,-0.3808,-0.3808,-0.4493,-0.4892,-0.4892,-0.5551,-0.6884,-0.8875,-0.9679,-1.0075,-1.006,-0.9466,-0.9189,-0.9157,-0.8559,-0.8298,-0.8315,-0.8367,-0.801,-0.7396,-0.7396,-0.6555,-0.53,0.0,0.0,0.0,0.0,0.0,0.0,0.0,-0.5393,-0.5671,-0.7201,0.0,-0.7843,-0.8577,-0.88,-0.913,-1.0676,-1.1164,0.0,0.0,0.0,0.0,0.0,0.0,0.0,0.0,0.0,0.0,0.0,0.0,0.0,0.0,0.0,0.0,0.0,0.0,0.0,0.0,0.0,0.0,0.0,0.0,0.0,0.0,0.0,0.0,0.0,-3.6748,-3.6809,-3.6809,-3.6928,-3.7007,-3.7007,-3.7007,-3.7777,-3.9301,-3.9301,-4.013,-4.1604,-4.1471,-4.1318,-4.1209,-4.1123,-4.0864,-4.0561,-4.1305,-4.2163,-4.2986,-4.3059,-4.3113,-4.3005,-4.2365,-4.2109,-4.2013,0.0,0.0,0.0,0.0,0.0,0.0,0.0,0.0,0.0,0.0,0.0,0.0,0.0,0.0,0.0,0.0,0.0,0.0,-0.3679,-0.3772,-0.3808,-0.3808,-0.4052,-0.442,-0.4892,-0.5642,-0.6327,-0.6925,-0.7638,-0.8008,-0.8064,-0.8414,-0.8559,-0.8562,-0.8429,-0.8367,-0.8367,-0.839,-0.8013,-0.7354,-0.6832,-0.61,-0.5236,0.0,0.0,0.0,0.0,0.0,0.0,0.0,0.0,0.0,-0.6007,0.0,-0.7824,-0.8029,-0.849,-0.927,-1.0767,0.0,0.0,0.0,0.0,0.0,0.0,0.0,0.0,0.0,0.0,0.0,0.0,0.0,0.0,0.0,0.0,0.0,0.0,0.0,0.0,0.0,0.0,0.0,0.0,0.0,0.0,0.0,0.0,0.0,0.0,-3.6788,-3.6831,-3.6948,-3.6987,-3.7253,-3.7777,-3.7777,-3.8567,-4.0151,-4.0151,-4.0656,-4.1604,-4.156,-4.1408,-4.1209,-4.118,-4.0924,-4.0571,-4.1448,-4.1974,-4.2284,-4.2861,-4.3113,-4.3052,-4.2492,-4.2206,-4.2045,0.0,0.0,0.0,0.0,0.0,0.0,0.0,0.0,0.0,0.0,0.0,0.0,0.0,0.0,0.0,0.0,0.0,0.0,0.0,-0.3735,-0.3772,-0.3799,-0.3862,-0.4102,-0.4538,-0.5046,-0.5305,-0.5303,-0.6239,-0.6882,-0.7254,-0.7696,-0.8065,-0.8341,-0.8386,-0.8419,-0.8425,-0.8124,-0.7617,-0.6943,-0.6225,-0.5525,-0.4856,0.0,0.0,0.0,0.0,0.0,0.0,0.0,0.0,0.0,-0.5442,0.0,0.0,-0.7654,-0.8185,-0.8946,-1.0711,0.0,0.0,0.0,0.0,0.0,0.0,0.0,0.0,0.0,0.0,0.0,0.0,0.0,0.0,0.0,0.0,0.0,0.0,0.0,0.0,0.0,0.0,0.0,0.0,0.0,0.0,0.0,0.0,0.0,0.0,-3.6888,-3.7051,-3.7426,-3.7426,-3.7795,-3.8585,-3.8585,-3.9217,-4.0502,-4.0502,-4.0906,-4.1604,-4.1604,-4.1453,-4.1186,-4.1001,-4.0758,-4.0546,-4.1206,-4.1636,-4.1966,-4.2541,-4.2897,-4.3052,-4.2618,-4.2381,-4.2174,0.0,0.0,0.0,0.0,0.0,0.0,0.0,0.0,0.0,0.0,0.0,0.0,0.0,0.0,0.0,0.0,0.0,0.0,0.0,0.0,-0.3625,-0.3796,-0.3877,-0.3935,-0.3994,-0.4072,-0.4099,-0.4099,-0.5386,-0.6432,-0.7211,-0.7274,-0.7706,-0.8415,-0.8415,-0.8441,-0.846,-0.7716,-0.7023,-0.6345,-0.5672,-0.4955,-0.4305,-0.4305,0.0,0.0,0.0,0.0,0.0,0.0,0.0,0.0,-0.5274,-0.5548,-0.5899,-0.7371,-0.7858,-0.8398,0.0,0.0,0.0,0.0,0.0,0.0,0.0,0.0,0.0,0.0,0.0,0.0,0.0,0.0,0.0,0.0,0.0,0.0,0.0,0.0,0.0,0.0,0.0,0.0,0.0,0.0,0.0,0.0,0.0,0.0,0.0,-3.7007,-3.7341,-3.8093,-3.8111,-3.8532,-3.941,-3.9406,-3.9814,-4.0608,-4.0608,-4.0937,-4.1604,-4.1582,-4.1431,-4.1163,-4.071,-4.051,-4.0512,-4.0744,-4.1228,-4.1832,-4.2113,-4.2509,-4.2886,-4.2564,-4.2377,-4.222,0.0,0.0,0.0,0.0,0.0,0.0,0.0,0.0,0.0,0.0,0.0,0.0,0.0,0.0,0.0,0.0,0.0,0.0,0.0,0.0,-0.2791,-0.3756,-0.3917,-0.3979,-0.3994,-0.4062,-0.4108,-0.4099,-0.4965,-0.5785,-0.6525,-0.7054,-0.7732,-0.8483,-0.8483,-0.8514,-0.8532,-0.7789,-0.7091,-0.6412,-0.5692,-0.4956,-0.4305,-0.4305,-0.4302,0.0,0.0,0.0,0.0,0.0,0.0,0.0,-0.4685,-0.5173,-0.5853,-0.6765,-0.7476,-0.8489,0.0,0.0,0.0,0.0,0.0,0.0,0.0,0.0,0.0,0.0,0.0,0.0,0.0,0.0,0.0,0.0,0.0,0.0,0.0,0.0,0.0,0.0,0.0,0.0,0.0,0.0,0.0,0.0,0.0,0.0,-3.7007,-3.7007,-3.7341,-3.8093,-3.8111,-3.8796,-4.0239,-4.0239,-4.0604,0.0,-4.1358,-4.1446,-4.1604,-4.1493,-4.133,-4.1099,-4.068,-4.051,-4.0512,-4.0822,-4.098,-4.1073,-4.1432,-4.1585,-4.1605,-4.1416,-4.1222,-4.107,0.0,0.0,0.0,0.0,0.0,0.0,0.0,0.0,0.0,0.0,0.0,0.0,0.0,0.0,0.0,0.0,0.0,0.0,0.0,0.0,0.0,-0.3799,-0.3946,-0.4014,-0.4046,-0.4075,-0.4099,-0.4099,-0.452,-0.5271,-0.63,-0.6693,-0.7446,-0.8502,-0.8527,-0.8568,-0.8534,-0.747,-0.6816,-0.6397,-0.5311,-0.4652,-0.4305,-0.4305,-0.4305,-0.4308,-0.4332,0.0,0.0,0.0,0.0,0.0,0.0,0.0,-0.5286,-0.6043,-0.6849,-0.7988,0.0,0.0,0.0,0.0,0.0,0.0,0.0,0.0,0.0,0.0,0.0,0.0,0.0,0.0,0.0,0.0,0.0,0.0,0.0,0.0,0.0,0.0,0.0,0.0,0.0,0.0,0.0,0.0,0.0,-3.7143,-3.7143,-3.7143,-3.7476,-3.8154,-3.8579,-3.9332,-4.0485,-4.0854,-4.1218,-4.1604,-4.1604,-4.152,-4.1408,-4.134,-4.1221,-4.107,-4.0745,-4.0558,-4.0502,-4.0561,-4.0718,-4.0913,-4.1065,-4.1239,-4.1385,-4.13,-4.1185,-4.1041,0.0,0.0,0.0,0.0,0.0,0.0,0.0,0.0,0.0,0.0,0.0,0.0,0.0,0.0,0.0,0.0,0.0,0.0,0.0,0.0,0.0,-0.3879,-0.397,-0.4039,-0.4094,-0.4098,-0.4099,-0.4099,-0.4168,0.0,0.0,0.0,0.0,-0.8521,-0.8575,-0.8606,-0.8536,-0.7245,-0.662,-0.6394,-0.5043,-0.4435,-0.431,-0.431,-0.431,-0.4332,-0.4388,-0.4405,-0.4431,-0.4485,0.0,0.0,0.0,0.0,-0.4672,-0.5485,-0.6285,-0.7408,0.0,0.0,0.0,0.0,0.0,0.0,0.0,0.0,0.0,0.0,0.0,0.0,0.0,0.0,0.0,0.0,0.0,0.0,0.0,0.0,0.0,0.0,0.0,0.0,0.0,0.0,0.0,0.0,0.0,-3.7297,-3.7297,-3.7297,-3.7612,-3.8309,-3.8962,-3.9696,-4.0506,-4.1117,-4.1503,-4.1604,-4.1604,-4.1475,-4.1232,-4.1209,-4.1134,-4.1047,-4.081,-4.0648,-4.051,-4.0271,-4.0434,-4.0826,-4.0731,-4.094,-4.1311,-4.1311,-4.1255,-4.1189,0.0,0.0,0.0,0.0,0.0,0.0,0.0,0.0,0.0,0.0,0.0,0.0,0.0,0.0,0.0,0.0,0.0,0.0,-0.0253,0.0,0.0,-0.3984,-0.3991,-0.4039,-0.4094,-0.4098,-0.4099,-0.4099,0.0,0.0,0.0,0.0,0.0,-0.8587,0.0,-0.8636,-0.8638,-0.7802,-0.7124,-0.6509,-0.5669,-0.4963,-0.4389,-0.4389,-0.4389,-0.4392,-0.4398,-0.4443,-0.4491,-0.4496,-0.4499,0.0,0.0,0.0,-0.4749,-0.5544,-0.6356,0.0,0.0,0.0,0.0,0.0,0.0,0.0,0.0,0.0,0.0,0.0,0.0,0.0,0.0,0.0,0.0,0.0,0.0,0.0,0.0,0.0,0.0,0.0,0.0,0.0,0.0,0.0,0.0,0.0,-3.6906,-3.7297,-3.7297,-3.7297,-3.7631,-3.8353,-3.8549,-3.927,-4.0577,-4.068,-4.1024,-4.1604,-4.1604,-4.1515,-4.138,-4.1255,-4.1111,-4.0912,-4.0769,-4.0697,-4.0673,-4.051,-4.0364,-4.024,-4.0197,-4.018,-4.0135,-4.0135,-4.0187,-4.0298,0.0,0.0,0.0,0.0,0.0,0.0,0.0,0.0,0.0,0.0,0.0,0.0,0.0,0.0,0.0,0.0,0.0,0.0,0.0,-0.1845,-0.3274,-0.4019,-0.4051,-0.4065,-0.4091,-0.3326,-0.3333,-0.4158,0.0,0.0,0.0,-0.6366,-0.7183,0.0,0.0,0.0,0.0,-0.7956,-0.7489,-0.7147,-0.645,-0.5983,-0.5682,-0.5683,-0.5681,-0.5627,-0.5215,-0.5123,-0.5101,-0.4646,-0.4517,-0.4549,-0.4561,0.0,0.0,0.0,0.0,0.0,0.0,0.0,0.0,0.0,0.0,0.0,0.0,0.0,0.0,0.0,0.0,0.0,0.0,0.0,0.0,0.0,0.0,0.0,0.0,0.0,0.0,0.0,0.0,0.0,0.0,0.0,0.0,0.0,-3.6506,-3.6934,-3.6862,-3.7272,-3.7626,-3.7832,-3.8312,-3.8821,-3.9355,-3.9773,-4.0306,-4.0972,-4.0972,-4.1135,-4.1403,-4.134,-4.1198,-4.1006,-4.0864,-4.0769,-4.0697,-4.0648,-4.051,-4.032,-4.032,-4.0337,-4.0355,-4.0355,-4.0461,-4.0621,0.0,0.0,0.0,0.0,0.0,0.0,0.0,0.0,0.0,0.0,0.0,0.0,0.0,0.0,0.0,0.0,0.0,0.0,0.0,-0.0985,-0.2339,-0.4054,-0.4108,-0.4092,-0.4101,-0.2724,-0.2538,0.0,0.0,0.0,-0.6332,-0.6401,-0.7224,0.0,-0.8681,0.0,0.0,0.0,0.0,0.0,0.0,-0.688,-0.6727,-0.6731,-0.6743,-0.6685,-0.6135,-0.597,-0.5915,-0.5313,-0.5018,-0.491,-0.4902,-0.477,0.0,0.0,0.0,0.0,0.0,0.0,0.0,0.0,0.0,0.0,0.0,0.0,0.0,0.0,0.0,0.0,0.0,0.0,0.0,0.0,0.0,0.0,0.0,0.0,0.0,0.0,0.0,0.0,0.0,0.0,0.0,0.0,-3.594,-3.6355,-3.6251,-3.7022,-3.7363,-3.7182,-3.7966,-3.8389,-3.8449,-3.9143,-3.9749,-4.0246,-4.0204,-4.0438,-4.0871,-4.0831,-4.0737,-4.0613,-4.0862,-4.0918,-4.0823,-4.0823,-4.0752,-4.0655,-4.0662,-4.0734,-4.084,-4.0894,-4.1065,-4.126,0.0,0.0,0.0,0.0,0.0,0.0,0.0,0.0,0.0,0.0,0.0,0.0,-0.2144,-0.1999,-0.1446,-0.0114,0.0,0.0,0.0,-0.0064,-0.1334,-0.4077,-0.4142,0.0,-0.4097,-0.2713,-0.2073,0.0,0.0,0.0,-0.6401,-0.6467,-0.7321,-0.8792,-0.8717,-0.877,-0.8897,0.0,0.0,0.0,0.0,0.0,0.0,0.0,0.0,0.0,0.0,-0.6839,-0.6829,-0.6786,-0.6313,-0.5735,-0.5744,-0.5253,-0.4693,0.0,0.0,0.0,0.0,0.0,0.0,0.0,0.0,0.0,0.0,0.0,0.0,0.0,0.0,0.0,0.0,0.0,0.0,0.0,0.0,0.0,0.0,0.0,0.0,0.0,0.0,0.0,0.0,0.0,0.0,0.0,-3.5114,-3.5563,-3.5545,-3.6318,-3.668,-3.6557,-3.7327,-3.8024,-3.8565,-3.9204,-3.9526,-3.9541,-3.9417,-3.9371,-3.9406,-3.9283,-3.9202,-3.9289,-4.0605,-4.1186,-4.1186,-4.1186,-4.1134,-4.107,-4.1134,-4.1163,-4.1209,-4.1453,-4.1679,-4.1903,0.0,0.0,0.0,0.0,0.0,0.0,0.0,0.0,0.0,0.0,0.0,0.0,0.0,-0.3514,-0.3311,-0.2803,-0.1897,-0.0959,-0.0065,-0.1684,-0.2336,-0.1542,-0.3208,-0.4162,-0.4164,-0.1903,0.0,0.0,0.0,-0.4784,-0.5765,-0.631,-0.7135,-0.8168,-0.8633,-0.8874,-0.8959,-0.8959,0.0,0.0,0.0,0.0,0.0,0.0,0.0,0.0,0.0,0.0,0.0,-0.8068,-0.7552,-0.7173,-0.6177,-0.5689,-0.5377,0.0,0.0,0.0,0.0,0.0,0.0,0.0,0.0,0.0,0.0,0.0,0.0,0.0,0.0,0.0,0.0,0.0,0.0,0.0,0.0,0.0,0.0,0.0,0.0,0.0,0.0,0.0,0.0,0.0,0.0,0.0,0.0,-3.5036,-3.4989,-3.5668,-3.6253,-3.6675,-3.693,-3.7345,-3.795,-3.8102,-3.8337,-3.873,-3.8669,-3.8892,-3.9284,-3.9263,-3.9242,-3.9259,-3.9863,-3.9962,-3.9725,-3.9831,-3.9848,-3.9844,-3.9966,-4.012,-4.032,-4.1064,-4.1546,-4.195,0.0,0.0,0.0,0.0,0.0,0.0,0.0,0.0,0.0,0.0,0.0,0.0,0.0,0.0,-0.4331,-0.431,-0.3401,-0.2448,-0.1506,-0.2288,-0.1954,-0.0079,-0.1795,-0.2796,-0.2796,-0.0953,0.0,0.0,0.0,0.0,0.0,-0.5882,-0.6821,-0.7851,-0.8372,-0.8774,0.0,0.0,0.0,-0.961,0.0,0.0,-1.0854,0.0,0.0,0.0,0.0,0.0,0.0,0.0,-0.9309,-0.8464,0.0,0.0,0.0,0.0,0.0,0.0,0.0,0.0,0.0,0.0,0.0,0.0,0.0,0.0,0.0,0.0,0.0,0.0,0.0,0.0,0.0,0.0,0.0,0.0,0.0,0.0,0.0,0.0,0.0,0.0,0.0,0.0,0.0,0.0,0.0,0.0,-3.432,-3.5006,-3.5711,-3.641,-3.6567,-3.6843,-3.7238,-3.7342,-3.7602,-3.7958,-3.7919,-3.8144,-3.8556,-3.8556,-3.8593,-3.8634,-3.8755,-3.8916,-3.9118,-3.9245,-3.9329,-3.9391,-3.96,-3.98,-4.0049,-4.0851,-4.1524,-4.2186,0.0,0.0,0.0,0.0,0.0,0.0,0.0,0.0,0.0,-0.4399,0.0,0.0,0.0,0.0,0.0,-0.4344,-0.4324,-0.4308,-0.4308,-0.1688,-0.0083,-0.0,0.0,0.0,0.0,0.0,0.0,0.0,0.0,0.0,0.0,0.0,-0.6376,-0.7838,-0.794,-0.8411,-0.9181,0.0,-0.9708,-1.0502,0.0,-1.1041,-1.1859,0.0,0.0,0.0,-1.3986,-1.3764,0.0,0.0,0.0,0.0,0.0,0.0,0.0,0.0,0.0,0.0,0.0,0.0,0.0,0.0,0.0,0.0,0.0,0.0,0.0,0.0,0.0,0.0,0.0,0.0,0.0,0.0,0.0,0.0,0.0,0.0,0.0,0.0,0.0,0.0,0.0,0.0,0.0,0.0,-3.3675,-3.3652,-3.3601,-3.4371,-3.5066,-3.5659,-3.6191,-3.6467,-3.6485,-3.7076,-3.7338,-3.7279,-3.7166,-3.7108,-3.7108,-3.7108,-3.7184,-3.7297,-3.7373,-3.8185,-3.9458,-3.9587,-3.9726,-3.9878,-4.0128,-4.0329,-4.0488,-4.0851,-4.1662,-4.2628,0.0,0.0,0.0,0.0,0.0,0.0,0.0,0.0,-0.4423,0.0,0.0,0.0,-0.5267,-0.5267,-0.5234,-0.5169,-0.4684,-0.4376,-0.4376,-0.3623,-0.223,-0.01,0.0,0.0,0.0,0.0,0.0,0.0,0.0,0.0,0.0,0.0,0.0,0.0,-0.7013,-0.7745,-0.8577,-0.9126,0.0,0.0,-1.1223,-1.2297,0.0,0.0,0.0,0.0,0.0,-1.5879,-1.5603,0.0,-1.4077,-1.2644,0.0,0.0,0.0,0.0,0.0,0.0,-0.8045,0.0,0.0,0.0,0.0,0.0,0.0,0.0,0.0,0.0,0.0,0.0,0.0,0.0,0.0,0.0,0.0,0.0,0.0,0.0,0.0,0.0,0.0,0.0,0.0,0.0,0.0,0.0,-3.3042,-3.3274,-3.3797,-3.4481,-3.49,-3.4972,-3.5593,-3.5861,-3.5781,-3.6415,-3.6684,-3.6575,-3.7088,-3.7298,-3.7241,-3.7241,-3.7279,-3.7373,-3.7485,-3.7863,-3.8347,-3.8384,-3.8456,-3.8563,-3.8855,-3.9116,-3.9372,-4.0296,-4.1316,-4.2334,0.0,0.0,0.0,0.0,0.0,0.0,0.0,0.0,0.0,0.0,0.0,0.0,-0.6148,-0.6117,-0.6078,-0.6052,-0.5345,-0.4907,-0.4907,-0.4619,-0.3676,-0.1961,-0.0677,0.0,0.0,0.0,0.0,0.0,0.0,0.0,0.0,0.0,0.0,0.0,0.0,0.0,0.0,0.0,0.0,0.0,-1.1737,0.0,0.0,-1.5782,-1.6805,0.0,0.0,0.0,-1.7753,-1.7335,-1.5986,0.0,0.0,0.0,0.0,0.0,0.0,0.0,0.0,0.0,0.0,0.0,0.0,0.0,-1.3653,-1.5134,-1.6609,0.0,0.0,0.0,0.0,0.0,0.0,0.0,0.0,0.0,0.0,0.0,0.0,0.0,0.0,0.0,0.0,-3.1229,-3.1559,-3.2316,-3.239,-3.2693,-3.3361,-3.3738,-3.4022,-3.4226,-3.4888,-3.5164,-3.4988,-3.5695,-3.5969,-3.5794,-3.6576,-3.6912,-3.6911,-3.7268,-3.7448,-3.7541,-3.7721,-3.7898,-3.8089,-3.8223,-3.8271,-3.8283,-3.8615,-3.8894,-3.9183,-3.9894,-4.1092,-4.2404,0.0,0.0,0.0,0.0,0.0,0.0,0.0,0.0,0.0,0.0,-0.7075,-0.7219,-0.7285,-0.7162,-0.7086,-0.7082,-0.6253,-0.5712,-0.5617,-0.4993,-0.4598,-0.4508,-0.1938,-0.0345,-0.0,0.0,0.0,0.0,0.0,0.0,0.0,0.0,0.0,0.0,0.0,0.0,0.0,0.0,0.0,-1.2058,-1.2086,-1.3616,0.0,0.0,-1.8015,0.0,-2.0292,-2.0171,-1.966,-1.9487,-1.7477,0.0,0.0,0.0,0.0,0.0,-1.0319,0.0,0.0,0.0,0.0,0.0,0.0,0.0,-1.3711,-1.513,-1.6274,0.0,0.0,0.0,0.0,0.0,0.0,0.0,0.0,0.0,0.0,0.0,0.0,0.0,0.0,0.0,-3.0362,-3.0426,-3.0777,-3.1626,-3.1752,-3.2024,-3.2557,-3.2524,-3.2787,-3.3469,-3.4058,-3.431,-3.4193,-3.4905,-3.5182,-3.5011,-3.5812,-3.6185,-3.6239,-3.7077,-3.7542,-3.7631,-3.7982,-3.8221,-3.837,-3.8698,-3.8755,-3.8691,-3.9013,-3.9311,-3.9556,-3.9705,-4.0956,-4.2633,-0.4477,0.0,0.0,0.0,0.0,0.0,0.0,0.0,0.0,-0.6988,-0.811,-0.9135,-0.9733,-0.9199,-0.8814,-0.8808,-0.7488,-0.6366,-0.5727,-0.5547,-0.5168,-0.4534,-0.394,-0.2482,-0.0052,0.0,0.0,0.0,0.0,0.0,0.0,0.0,0.0,0.0,0.0,0.0,0.0,0.0,0.0,-1.2302,-1.2223,0.0,-1.683,-1.6997,-1.8481,-2.048,-2.0614,-2.1025,-2.1308,0.0,-1.8784,-1.7485,0.0,0.0,0.0,0.0,0.0,0.0,0.0,0.0,0.0,0.0,0.0,0.0,-1.3852,-1.47,-1.543,0.0,0.0,0.0,0.0,0.0,0.0,0.0,0.0,0.0,0.0,0.0,0.0,0.0,0.0,0.0,-2.8699,-2.8774,-2.9371,-3.0796,-3.1463,-3.1818,-3.1897,-3.1777,-3.2052,-3.2763,-3.2817,-3.3063,-3.3584,-3.4191,-3.4458,-3.4378,-3.5079,-3.5453,-3.5593,-3.6415,-3.6929,-3.7166,-3.7934,-3.8435,-3.8732,-3.8946,-3.9031,-3.9027,-3.9305,-3.9599,-3.9829,-4.0027,-4.1235,-4.2795,-0.4547,0.0,0.0,0.0,0.0,0.0,0.0,0.0,0.0,-0.8746,-0.9883,-1.0785,-1.1171,-1.0816,-1.0555,-1.0547,-0.9078,-0.7976,-0.7566,-0.679,-0.5991,-0.5182,-0.4767,-0.3843,-0.2325,-0.1569,-0.0811,0.0,0.0,0.0,0.0,0.0,0.0,0.0,0.0,0.0,0.0,0.0,-0.9732,-1.2399,-1.2284,0.0,-1.7199,-1.7157,-1.8923,-2.1406,-2.1444,-2.1734,-2.1932,-2.0782,-1.9569,0.0,0.0,-1.6843,-1.6119,0.0,-1.4734,-1.3795,0.0,0.0,0.0,-1.3141,0.0,0.0,0.0,-1.4885,-1.5218,-1.5246,0.0,0.0,0.0,0.0,0.0,0.0,0.0,0.0,0.0,0.0,0.0,0.0,0.0,0.0,-2.719,-2.7604,-2.8161,-2.8896,-2.9639,-3.0198,-3.0483,-3.0831,-3.1304,-3.1977,-3.1871,-3.212,-3.2795,-3.3061,-3.335,-3.3667,-3.439,-3.48,-3.4869,-3.5758,-3.6483,-3.7078,-3.7685,-3.833,-3.8979,-3.9205,-3.9389,-3.9495,-3.9647,-3.9829,-4.0068,-4.0244,-4.1415,-4.297,-0.4617,0.0,0.0,0.0,0.0,0.0,0.0,0.0,0.0,-1.0777,-1.1639,-1.2234,-1.2379,0.0,0.0,0.0,-1.0974,-1.0001,-0.9686,0.0,-0.7125,-0.6331,-0.5512,-0.4928,-0.4618,-0.3473,-0.2226,-0.0933,0.0,0.0,0.0,0.0,0.0,0.0,0.0,0.0,0.0,0.0,0.0,-1.2434,0.0,-1.4616,-1.7283,-1.7231,-1.9251,-2.2167,-2.2554,-2.2605,-2.2364,-2.1626,0.0,-1.9106,-1.8992,-1.8417,0.0,0.0,0.0,0.0,0.0,0.0,0.0,0.0,0.0,-1.4863,0.0,0.0,0.0,-1.5321,-1.5306,0.0,0.0,0.0,0.0,0.0,0.0,0.0,0.0,0.0,0.0,0.0,0.0,0.0,0.0,-2.656,-2.7099,-2.6985,-2.766,-2.8324,-2.8859,-2.9604,-3.0327,-3.0962,-3.1009,-3.1396,-3.2222,-3.2173,-3.2451,-3.315,-3.3766,-3.4087,-3.4171,-3.5072,-3.5937,-3.6729,-3.736,-3.8118,-3.896,-3.9364,-3.9705,-3.9956,-3.9956,-4.0078,-4.0272,-4.056,-4.1706,-4.3134,-0.4708,-0.4697,0.0,0.0,0.0,0.0,0.0,0.0,0.0,-1.1828,-1.263,0.0,0.0,0.0,0.0,0.0,0.0,0.0,-1.0722,0.0,0.0,-0.8145,-0.727,-0.6145,-0.4717,-0.4592,-0.444,-0.4261,0.0,0.0,0.0,0.0,0.0,0.0,-0.5846,0.0,0.0,0.0,-1.088,0.0,-1.41,-1.5742,0.0,-1.7281,-1.9325,-2.2384,-2.394,-2.4075,-2.3411,0.0,-2.1747,-2.0866,0.0,-1.9345,-1.8662,0.0,0.0,0.0,0.0,0.0,0.0,0.0,-1.7356,0.0,0.0,0.0,-1.6227,-1.5456,0.0,-1.5293,-1.5307,0.0,0.0,0.0,0.0,0.0,0.0,0.0,0.0,0.0,0.0,0.0,0.0,-2.5385,-2.6212,-2.6147,-2.6864,-2.733,-2.7353,-2.8005,-2.8711,-2.944,-3.0012,-3.0972,-3.2361,-3.2254,-3.2557,-3.3277,-3.324,-3.3322,-3.3526,-3.4356,-3.492,-3.5325,-3.6975,-3.7917,-3.8378,-3.9298,-3.987,-4.0176,-4.0176,-4.0252,-4.0477,-4.133,-4.2306,-4.3308,-0.4766,-0.4759,0.0,0.0,0.0,0.0,0.0,0.0,0.0,-1.2803,-1.4016,0.0,0.0,0.0,0.0,0.0,0.0,-1.4412,0.0,0.0,0.0,0.0,-0.9368,0.0,-0.6996,-0.6493,-0.579,-0.4853,-0.4671,0.0,0.0,0.0,0.0,0.0,-0.6628,0.0,-0.9094,0.0,0.0,0.0,0.0,0.0,0.0,-1.7946,-1.9887,-2.2596,-2.4308,-2.4436,-2.3763,0.0,-2.2784,0.0,0.0,0.0,0.0,0.0,0.0,0.0,0.0,0.0,0.0,0.0,0.0,0.0,-1.733,0.0,-1.712,0.0,0.0,0.0,0.0,0.0,0.0,0.0,-1.4071,0.0,0.0,0.0,0.0,0.0,0.0,0.0,0.0,0.0,0.0,0.0,-2.4691,-2.5288,-2.5686,-2.6373,-2.7316,-2.8526,-2.8717,-2.9549,-3.11,-3.1445,-3.2006,-3.2776,-3.3183,-3.3415,-3.3524,-3.3937,-3.4476,-3.5192,-3.6628,-3.7667,-3.847,-3.9496,-4.0089,-4.0317,-4.0351,-4.04,-4.0577,-4.1566,-4.2447,-4.3332,-0.5508,0.0,0.0,0.0,0.0,0.0,0.0,0.0,0.0,0.0,0.0,0.0,-1.6564,-1.7323,0.0,0.0,-1.7189,-1.6725,0.0,0.0,-1.3861,0.0,0.0,0.0,0.0,0.0,-0.7338,-0.5935,0.0,0.0,0.0,0.0,0.0,0.0,0.0,-0.8762,-1.017,0.0,0.0,-1.4344,-1.5392,-1.6823,-1.8431,-1.9407,-2.0923,-2.2766,-2.4447,-2.4705,-2.4224,-2.3995,-2.3543,0.0,-2.2058,0.0,0.0,0.0,0.0,0.0,-1.971,0.0,0.0,0.0,0.0,0.0,0.0,0.0,0.0,0.0,0.0,0.0,0.0,0.0,-1.5047,0.0,0.0,-1.3194,0.0,0.0,0.0,0.0,0.0,0.0,0.0,0.0,0.0,-2.1844,-2.2551,-2.3295,-2.4063,-2.4992,-2.6008,-2.7102,-2.7623,-2.853,-2.9854,-3.0789,-3.1644,-3.2425,-3.3222,-3.3633,-3.3657,-3.378,-3.4234,-3.5006,-3.6124,-3.7227,-3.8321,-3.9333,-4.0024,-4.0427,-4.05,-4.0534,-4.0706,-4.1903,-4.2737,-4.3427,-0.7326,-0.6643,0.0,0.0,0.0,0.0,0.0,0.0,0.0,0.0,0.0,0.0,0.0,0.0,0.0,0.0,0.0,-1.915,-1.8367,0.0,-1.5905,0.0,0.0,-1.3094,0.0,0.0,0.0,-0.8575,0.0,0.0,0.0,0.0,0.0,0.0,0.0,-0.932,-1.0206,-1.1932,-1.3626,-1.5303,-1.6949,-1.8654,-2.0373,0.0,-2.2578,-2.291,-2.4594,0.0,0.0,-2.4269,-2.3972,0.0,0.0,0.0,0.0,0.0,0.0,0.0,0.0,0.0,0.0,-2.0321,0.0,0.0,0.0,0.0,-1.8903,0.0,0.0,0.0,0.0,-1.597,-1.4847,-1.3117,0.0,0.0,0.0,0.0,0.0,0.0,0.0,0.0,0.0,0.0,0.0,-2.0206,-2.0949,-2.1715,-2.2532,-2.3945,-2.4729,-2.4706,-2.6916,-2.84,-2.9026,-3.0595,-3.1722,-3.2425,-3.3222,-3.3657,-3.3807,-3.3855,-3.4036,-3.4398,-3.5394,-3.6476,-3.7604,-3.8556,-3.9541,-4.0496,-4.0573,-4.0633,-4.0906,-4.2615,-4.3312,-4.3634,0.0,0.0,0.0,0.0,0.0,0.0,0.0,-1.3357,0.0,0.0,0.0,0.0,0.0,0.0,-2.0841,0.0,0.0,-2.1259,-2.1003,-1.9969,0.0,0.0,0.0,-1.5531,0.0,0.0,0.0,0.0,0.0,0.0,0.0,0.0,0.0,0.0,0.0,-0.999,0.0,0.0,0.0,0.0,0.0,-1.9645,-2.1273,0.0,0.0,-2.2992,-2.4702,-2.5332,0.0,-2.5019,-2.4931,-2.4782,-2.3927,-2.3662,-2.3554,-2.3049,-2.2689,0.0,0.0,0.0,-2.2123,-2.2123,0.0,0.0,0.0,0.0,0.0,0.0,0.0,0.0,0.0,0.0,-1.5887,0.0,0.0,0.0,0.0,0.0,0.0,0.0,0.0,0.0,0.0,0.0,0.0,-1.8524,-1.8741,-1.9445,-2.0835,-2.1345,-2.2531,-2.4598,-2.5915,-2.7177,-2.8381,-3.0002,-3.115,-3.1875,-3.2697,-3.3392,-3.3998,-3.4074,-3.4221,-3.4487,-3.549,-3.6543,-3.7652,-3.8619,-3.9643,-4.058,-4.0647,-4.0713,-4.0918,-4.2079,-4.2524,-4.2786,-0.8747,0.0,0.0,0.0,0.0,0.0,0.0,0.0,0.0,0.0,-1.8146,0.0,-2.0299,0.0,-2.2262,0.0,-2.2816,-2.2816,-2.2829,-2.2079,0.0,-2.0885,-1.9597,0.0,0.0,0.0,0.0,0.0,0.0,-0.9577,0.0,0.0,0.0,0.0,0.0,0.0,0.0,0.0,-1.4415,0.0,0.0,-2.043,0.0,0.0,-2.3045,-2.3484,0.0,-2.543,-2.5434,-2.5436,-2.5444,-2.5348,-2.478,-2.461,-2.4498,-2.3982,-2.3621,-2.3411,-2.3453,-2.325,0.0,-2.3003,-2.2585,0.0,-2.2155,0.0,0.0,0.0,0.0,0.0,0.0,0.0,0.0,0.0,0.0,0.0,0.0,-1.1305,0.0,0.0,0.0,0.0,0.0,0.0,-1.6229,-1.6796,-1.6788,-1.7485,0.0,0.0,-2.1079,-2.338,-2.4718,-2.6166,-2.7735,-2.9291,-3.0587,-3.1651,-3.2446,-3.3297,-3.4136,-3.4257,-3.4427,-3.4661,-3.567,-3.6692,-3.7753,-3.8758,-3.9742,-4.0598,-4.0662,-4.0744,-4.0914,-4.1811,-4.2319,-4.2754,0.0,0.0,0.0,0.0,-1.0356,0.0,0.0,0.0,-1.5739,0.0,-1.9102,-2.0492,-2.1344,-2.2895,-2.3885,-2.3923,-2.391,0.0,-2.3999,-2.3286,0.0,0.0,-2.199,-2.1182,-2.0297,0.0,0.0,0.0,0.0,0.0,0.0,0.0,0.0,0.0,-0.9826,0.0,-1.2806,-1.2845,-1.4843,-1.8123,-1.9856,-2.1046,-2.1862,-2.2731,-2.3566,-2.4377,-2.5205,-2.5496,-2.5499,-2.5495,-2.5503,-2.5506,-2.5492,-2.5499,-2.5499,-2.5499,-2.4953,-2.4352,-2.4352,-2.3763,-2.3137,-2.3137,0.0,0.0,0.0,0.0,-2.31,0.0,0.0,0.0,0.0,0.0,0.0,0.0,0.0,0.0,0.0,0.0,0.0,0.0,0.0,0.0,0.0,-1.2715,-1.3392,-1.5043,-1.5148,0.0,0.0,0.0,-2.0345,-2.1121,-2.3424,-2.5421,-2.7024,-2.8527,-3.0078,-3.1721,-3.2481,-3.3332,-3.4221,-3.4427,-3.4623,-3.4856,-3.5865,-3.6875,-3.789,-3.8893,-3.9817,-4.0602,-4.0675,-4.0742,-4.0915,-4.1814,-4.2694,-4.3447,-1.2161,-1.2223,-1.2513,0.0,-1.3294,-1.3523,0.0,0.0,0.0,0.0,-2.0422,-2.1622,-2.3073,-2.4188,-2.5074,-2.5684,-2.6314,0.0,0.0,0.0,0.0,-2.4657,-2.4413,-2.3331,-2.1282,-1.9968,0.0,-1.6247,0.0,0.0,-1.1144,0.0,0.0,0.0,0.0,0.0,-1.2845,-1.3487,-1.5741,-1.9019,-2.0752,-2.198,0.0,0.0,-2.4501,-2.5263,-2.5489,-2.5573,-2.5577,-2.558,-2.556,-2.556,-2.5567,-2.557,-2.5573,-2.5562,-2.5429,-2.5277,-2.5274,-2.5104,-2.4934,-2.4934,-2.445,-2.3969,0.0,0.0,0.0,0.0,0.0,0.0,0.0,0.0,0.0,0.0,0.0,0.0,0.0,0.0,0.0,0.0,0.0,0.0,0.0,-1.24,-1.2955,-1.3404,-1.3981,0.0,0.0,0.0,0.0,-2.035,-2.2703,-2.4702,-2.6276,-2.7828,-2.9745,-3.193,-3.2124,-3.303,-3.4495,-3.4612,-3.472,-3.4936,-3.5949,-3.6937,-3.795,-3.8919,-3.9834,-4.0674,-4.075,-4.0823,-4.0908,-4.1146,-4.1796,-4.252,-1.4201,0.0,0.0,-1.6067,0.0,0.0,-1.622,0.0,0.0,-2.008,-2.1555,0.0,-2.4369,-2.5269,-2.6098,-2.6933,-2.745,0.0,-2.7785,0.0,0.0,-2.6477,-2.6092,-2.5082,-2.3341,-2.1733,0.0,-1.774,0.0,0.0,-1.2048,0.0,0.0,0.0,0.0,-1.1598,0.0,-1.4948,-1.7344,-1.9891,-2.1255,0.0,0.0,-2.4175,-2.4879,-2.5638,-2.5643,-2.5622,-2.5601,-2.5601,-2.5601,-2.5601,-2.5601,-2.5607,-2.5593,-2.5593,-2.5598,-2.5603,-2.5608,-2.5608,-2.5608,-2.5608,-2.5223,-2.4875,-2.4875,-2.4549,-2.4243,0.0,0.0,0.0,0.0,0.0,0.0,0.0,0.0,0.0,0.0,0.0,0.0,0.0,0.0,0.0,0.0,-1.1603,-1.1828,-1.2198,0.0,0.0,0.0,0.0,0.0,-1.9515,-2.1573,-2.3771,-2.6057,-2.7274,-2.9092,-3.1516,-3.1882,-3.2756,-3.4076,-3.4569,-3.485,-3.5058,-3.6419,-3.7376,-3.8032,-3.9348,-4.019,-4.0707,-4.0773,-4.0844,-4.0907,-4.0907,-4.1218,-4.1626,0.0,0.0,0.0,0.0,0.0,0.0,0.0,-1.958,0.0,-2.0847,0.0,-2.4552,-2.5526,-2.6376,-2.7155,-2.7926,0.0,-2.8179,-2.823,-2.826,-2.8208,-2.8082,-2.7424,-2.6621,-2.5698,-2.3405,0.0,0.0,0.0,0.0,0.0,0.0,0.0,0.0,0.0,0.0,0.0,-1.6678,-1.9039,-2.0756,-2.1613,-2.2958,-2.4418,-2.4535,-2.5044,-2.571,-2.571,-2.5652,-2.5619,-2.5619,-2.5619,-2.5619,-2.5619,-2.5604,-2.5611,-2.5602,-2.5607,-2.5611,-2.5602,-2.5619,-2.5619,-2.5619,-2.5607,-2.5613,-2.5613,-2.5658,-2.5705,-2.5694,-2.5091,-2.4531,0.0,0.0,0.0,0.0,0.0,0.0,0.0,0.0,0.0,0.0,0.0,0.0,0.0,0.0,0.0,0.0,0.0,0.0,0.0,0.0,0.0,-1.8689,-2.0418,-2.2793,-2.5868,0.0,-2.8402,-3.0762,-3.1692,-3.2586,-3.346,-3.4452,-3.4992,-3.5214,-3.7028,-3.7878,-3.8137,-3.9892,-4.0661,-4.072,-4.0773,-4.0839,-4.0903,-4.0907,-4.0907,-4.0912,0.0,0.0,0.0,0.0,0.0,-2.1563,-2.279,-2.2053,-2.2111,-2.4212,-2.4887,-2.5735,-2.7272,-2.8203,-2.8781,-2.894,-2.9611,0.0,0.0,0.0,0.0,-2.9097,-2.8966,-2.8216,-2.6695,-2.551,-2.3733,0.0,0.0,0.0,0.0,0.0,0.0,0.0,0.0,0.0,-1.6101,-1.7442,0.0,-2.1652,-2.2529,-2.3483,-2.4477,-2.5201,-2.5572,-2.571,-2.571,-2.5686,-2.5681,-2.5681,-2.5681,-2.5681,-2.5681,-2.5683,-2.5683,-2.5681,-2.5683,-2.5683,-2.5681,-2.5681,-2.5681,-2.5681,-2.5683,-2.5683,-2.5683,-2.5684,-2.5705,-2.5707,-2.557,-2.524,-2.4525,0.0,0.0,0.0,0.0,0.0,0.0,0.0,0.0,0.0,0.0,0.0,0.0,0.0,0.0,0.0,0.0,0.0,0.0,0.0,0.0,0.0,-2.0208,0.0,0.0,0.0,-2.8245,-3.0008,-3.1544,-3.2742,-3.3686,-3.4576,-3.5065,-3.5288,-3.7091,-3.7928,-3.8148,-3.9952,-4.0726,-4.0782,-4.079,-4.0848,-4.0893,-4.0898,-4.0941,-4.0978,0.0,0.0,0.0,0.0,0.0,0.0,0.0,-2.5197,0.0,-2.5977,-2.6468,-2.723,-2.8497,-2.8999,-2.9429,-2.9887,-3.0303,-3.0568,-3.0595,-3.0636,-3.0451,-3.0035,-2.9622,0.0,-2.759,-2.6301,-2.4384,-2.1804,0.0,0.0,-1.4752,0.0,0.0,0.0,0.0,-1.4997,0.0,0.0,0.0,-2.2546,-2.3425,-2.4303,-2.5123,-2.5533,-2.5709,-2.5709,-2.5709,-2.5709,-2.5708,-2.5694,-2.571,-2.569,-2.5694,-2.5697,-2.5699,-2.5699,-2.6013,-2.6363,-2.6378,-2.6706,-2.7056,-2.7056,-2.7056,-2.7056,-2.7056,-2.7056,-2.6921,-2.6473,-2.6377,-2.5969,-2.4647,-2.3401,0.0,0.0,0.0,0.0,0.0,0.0,0.0,0.0,0.0,0.0,0.0,0.0,0.0,0.0,0.0,0.0,0.0,0.0,0.0,0.0,0.0,0.0,0.0,0.0,0.0,-2.9244,-3.1351,-3.2598,-3.3069,-3.4475,-3.516,-3.5326,-3.6696,-3.7567,-3.8182,-4.0005,-4.0777,-4.08,-4.0796,-4.0842,-4.0907,-4.0931,-4.0978,-4.1064,0.0,-2.4547,0.0,0.0,-2.6343,0.0,-2.7341,-2.793,-2.8109,-2.7376,-2.7872,-2.862,-2.9502,-2.9603,-2.9864,-3.0563,-3.0625,-3.0641,-3.0711,-3.0699,-3.072,-3.0727,-3.0055,-2.9313,-2.8481,-2.7028,-2.5051,0.0,0.0,0.0,0.0,0.0,0.0,0.0,0.0,0.0,0.0,0.0,-2.1677,-2.3434,-2.4118,-2.4918,-2.57,-2.57,-2.57,-2.57,-2.57,-2.57,-2.5699,-2.5705,-2.5698,-2.5699,-2.5704,-2.5708,-2.575,-2.5925,-2.6453,-2.7038,-2.7228,-2.777,-2.8296,-2.8296,-2.8296,-2.8296,-2.8296,-2.8296,-2.8101,-2.7421,-2.7129,-2.6583,-2.5201,-2.4655,0.0,0.0,0.0,0.0,0.0,0.0,0.0,0.0,0.0,0.0,0.0,0.0,0.0,0.0,0.0,0.0,0.0,0.0,0.0,0.0,0.0,-2.1329,-2.3627,0.0,-2.7852,-2.8499,-3.117,-3.2439,-3.2514,-3.4361,-3.5234,-3.5346,-3.6318,-3.7358,-3.8518,-4.0134,-4.0809,-4.0794,-4.0796,-4.0837,-4.0883,-4.0965,-4.1131,-4.1392,0.0,0.0,0.0,0.0,0.0,0.0,-2.9121,-2.9232,-2.9243,-2.9156,-2.923,-2.959,-3.0479,-3.0575,-3.0605,-3.0687,-3.0697,-3.0685,-3.0707,-3.0761,-3.0784,-3.0794,-3.0711,-3.0256,-2.9391,-2.8519,-2.716,0.0,0.0,-2.0717,0.0,0.0,0.0,0.0,0.0,0.0,0.0,-2.0526,-2.2029,-2.4294,-2.4372,-2.4918,-2.57,-2.57,-2.57,-2.57,-2.57,-2.57,-2.57,-2.5699,-2.5699,-2.5699,-2.5699,-2.5699,-2.5855,-2.6657,-2.6949,-2.7164,-2.7965,-2.8238,-2.8296,-2.8296,-2.8296,-2.8296,-2.8296,-2.8296,-2.8277,-2.8199,-2.7554,-2.6949,-2.6793,-2.5463,-2.4367,0.0,0.0,0.0,0.0,0.0,0.0,0.0,0.0,0.0,0.0,-1.5249,0.0,0.0,0.0,0.0,0.0,0.0,0.0,-1.757,0.0,-2.1107,-2.2791,-2.6051,-2.7687,-2.7752,-3.1012,-3.2578,-3.2637,-3.4402,-3.525,-3.5365,-3.636,-3.7765,-3.9437,-4.0404,-4.0797,-4.0803,-4.0804,-4.0807,-4.0823,-4.0941,-4.1498,-4.2291,0.0,0.0,0.0,0.0,0.0,0.0,0.0,-3.13,-3.096,-3.0954,-3.0503,-3.0306,-3.0652,-3.0749,-3.0758,-3.0758,-3.077,-3.0762,-3.075,-3.0782,-3.0793,-3.0804,-3.081,-3.0409,-2.9585,-2.9235,-2.7972,0.0,0.0,0.0,0.0,0.0,0.0,0.0,0.0,-1.9902,-2.1445,-2.2441,-2.3476,-2.4453,-2.4961,-2.5391,-2.5703,-2.5703,-2.5703,-2.5703,-2.5703,-2.5703,-2.5703,-2.5703,-2.5703,-2.5798,-2.6326,-2.6483,-2.6659,-2.7519,-2.8143,-2.8631,-2.8982,-2.9451,-2.986,-2.986,-2.986,-2.986,-2.986,-2.986,-2.9703,-2.9196,-2.8395,-2.7771,-2.7771,-2.7203,-2.6577,0.0,0.0,0.0,0.0,0.0,0.0,0.0,0.0,0.0,0.0,0.0,0.0,0.0,0.0,0.0,0.0,0.0,0.0,-1.7011,0.0,-2.186,-2.352,-2.6303,-2.7931,-2.8406,-3.1245,-3.2626,-3.2711,-3.4473,-3.5338,-3.5553,-3.6967,-3.8016,-3.8837,-4.0216,-4.0797,-4.0803,-4.0804,-4.0818,-4.0877,-4.0978,-4.1556,-4.2435,-3.0683,0.0,-3.1024,0.0,-3.2905,-3.3472,-3.354,-3.2903,-3.2325,-3.2063,-3.1493,-3.102,-3.0762,-3.0774,-3.0804,-3.0804,-3.0808,-3.0798,-3.079,-3.0794,-3.0799,-3.0809,-3.0812,0.0,-2.9988,-2.9734,-2.8703,-2.6853,-2.5467,0.0,0.0,0.0,0.0,0.0,-2.1053,-2.1815,-2.2733,-2.4179,-2.4921,-2.5234,-2.6112,-2.6463,-2.6463,-2.6462,-2.6461,-2.6461,-2.6461,-2.6461,-2.6461,-2.6461,-2.6464,-2.6523,-2.6894,-2.7187,-2.7559,-2.8437,-2.9121,-2.9668,-2.9902,-3.0429,-3.0898,-3.0898,-3.0898,-3.0898,-3.0898,-3.0898,-3.0722,-3.0116,-2.9296,-2.8671,-2.867,-2.8475,-2.8103,-2.7478,0.0,0.0,0.0,0.0,0.0,0.0,-2.1862,-2.0883,-1.976,0.0,0.0,0.0,0.0,0.0,0.0,0.0,0.0,0.0,0.0,0.0,-2.4452,-2.6647,-2.8268,-2.9334,-3.1594,-3.2817,-3.3153,-3.4649,-3.5429,-3.5694,-3.7373,-3.8138,-3.8328,-4.0075,-4.0803,-4.0796,-4.0809,-4.0848,-4.0946,-4.1252,-4.1932,-4.2811,-3.0694,-3.0694,-3.1778,-3.5154,-3.5852,-3.5568,-3.4379,-3.3721,-3.3065,-3.221,-3.2099,-3.1767,-3.0899,-3.0792,-3.0798,-3.0798,-3.0798,-3.0803,-3.0792,-3.0798,-3.0804,0.0,0.0,-3.0894,-3.0875,-3.0035,-2.9586,-2.9549,0.0,0.0,-2.5605,0.0,-2.3043,-2.3043,-2.3063,-2.3551,-2.443,-2.5308,-2.6187,-2.7046,-2.7925,-2.8277,-2.8277,-2.8277,-2.8277,-2.8277,-2.8277,-2.8277,-2.8277,-2.8277,-2.8277,-2.8121,-2.7261,-2.7593,-2.8453,-2.9332,-2.9586,-2.9781,-3.064,-3.0894,-3.0895,-3.0895,-3.0895,-3.0895,-3.0895,-3.0895,-3.0895,-3.0897,-3.0194,-2.9589,-2.957,-2.8886,-2.83,-2.828,0.0,0.0,0.0,0.0,0.0,0.0,-2.3602,-2.2386,-2.064,0.0,0.0,0.0,0.0,0.0,0.0,0.0,0.0,-2.0247,-2.1233,0.0,-2.5361,-2.6986,-2.8639,-3.0305,-3.1999,-3.3245,-3.4115,-3.5007,-3.5468,-3.5694,-3.7373,-3.8138,-3.8328,-4.0075,-4.079,-4.08,-4.0796,-4.0844,-4.1014,-4.1941,-4.2835,-4.3717,-3.4237,-3.4247,-3.4597,-3.5684,-3.5938,-3.5871,-3.5488,-3.4786,-3.4183,-3.3902,-3.2831,-3.1995,-3.1723,-3.1152,-3.0796,0.0,-3.0845,-3.0868,0.0,-3.0871,-3.0871,-3.0873,-3.0894,-3.0895,-3.0896,-3.0623,-3.0195,-2.9609,0.0,0.0,0.0,-2.5403,-2.5187,-2.5751,-2.5754,-2.6241,-2.7078,-2.7353,-2.7626,-2.7915,-2.8185,-2.8301,-2.8301,-2.8258,-2.8237,-2.8237,-2.8237,-2.8237,-2.8237,-2.8237,-2.8626,-2.9075,-2.8781,-2.8931,-2.9351,-3.023,-3.0484,-3.0543,-3.0816,-3.0894,-3.0894,-3.0894,-3.0894,-3.0894,-3.0894,-3.0894,-3.0895,-3.0895,-3.068,-3.0486,-3.0487,-3.0253,-2.9883,-2.9277,-2.8457,0.0,0.0,0.0,0.0,0.0,-2.4152,-2.3522,0.0,-2.2275,0.0,0.0,0.0,0.0,0.0,0.0,0.0,0.0,-2.2934,0.0,-2.6266,-2.7888,-2.9552,-3.127,-3.2307,-3.3559,-3.4988,-3.5327,-3.5811,-3.6485,-3.7662,-3.8511,-3.9172,-4.0331,-4.0808,-4.0806,-4.0858,-4.1266,-4.1883,-4.2198,-4.3258,-4.46,-3.5883,-3.5924,-3.5938,-3.5938,-3.5976,-3.5991,-3.6,-3.5549,-3.5063,-3.4739,-3.3744,-3.2945,-3.2617,-3.2107,0.0,-3.0891,-3.0874,-3.0895,-3.0895,-3.0896,-3.0897,-3.0898,-3.0898,-3.0898,-3.0898,-3.0898,0.0,-3.0095,-2.9762,-2.888,-2.7488,-2.6939,-2.6954,-2.7458,-2.7441,-2.7753,-2.8276,-2.8611,-2.8746,-2.878,-2.9109,-2.9244,-2.9223,-2.92,-2.9179,-2.9179,-2.9179,-2.9179,-2.9179,-2.9179,-2.9548,-2.9996,-2.9996,-3.0012,-3.0163,-3.0692,-3.0869,-3.085,-3.085,-3.085,-3.085,-3.085,-3.085,-3.085,-3.085,-3.085,-3.0871,-3.0892,-3.0892,-3.0893,-3.0896,-3.0896,-3.0721,-3.0175,-2.9082,-2.8105,-2.7559,0.0,0.0,0.0,0.0,0.0,0.0,-2.4072,-2.3851,0.0,0.0,0.0,0.0,0.0,0.0,-2.2319,-2.44,-2.6192,-2.7654,-2.8975,-3.0494,-3.2196,-3.3314,-3.4416,-3.5494,-3.5836,-3.6299,-3.6909,-3.8125,-3.8974,-3.9576,-4.044,-4.0818,-4.0876,-4.1233,-4.1758,-4.2376,-4.3031,-4.4005,-4.5046,-3.5914,-3.5951,-3.5992,0.0,-3.6005,0.0,-3.5992,-3.5992,-3.572,-3.4901,-3.4745,-3.4394,-3.3572,-3.3435,-3.2773,-3.1209,0.0,0.0,0.0,-3.0898,-3.0898,-3.0897,-3.0895,-3.0894,-3.0894,-3.0894,-3.0894,-3.0894,-3.0088,-2.9263,-2.8476,-2.8469,-2.8442,-2.8377,-2.8377,-2.8376,-2.8434,-2.9251,-2.9583,-2.9659,-3.0462,-3.0794,-3.0794,-3.0794,-3.0794,-3.0794,-3.0794,-3.0794,-3.0794,-3.0794,-3.0794,-3.0794,-3.0794,-3.0796,-3.0798,-3.0809,-3.0795,-3.0799,-3.0799,-3.0799,-3.0799,-3.0799,-3.0799,-3.0799,-3.08,-3.08,-3.0822,-3.0886,-3.0888,-3.0889,-3.0893,-3.0894,-3.0894,-3.0894,-2.949,-2.8377,-2.8319,0.0,0.0,0.0,0.0,0.0,0.0,-2.5874,-2.5884,0.0,0.0,0.0,0.0,0.0,-2.3371,-2.5622,-2.579,-2.7001,-2.9369,-3.0245,-3.149,-3.3109,-3.4845,-3.5675,-3.5713,-3.6524,-3.6967,-3.7165,-3.8736,-3.9489,-3.9658,-4.0477,-4.0876,-4.1067,-4.1896,-4.2319,-4.2685,-4.4307,-4.498,-4.5211,0.0,0.0,-3.5999,-3.5993,-3.5995,-3.5996,-3.5995,-3.5996,-3.5937,-3.5721,-3.5115,-3.4626,-3.441,-3.3804,-3.3238,-3.285,-3.2205,-3.1561,-3.0936,-3.0896,-3.0896,-3.0895,-3.0895,-3.0894,-3.0894,-3.0894,-3.0872,-3.0825,-3.0618,-3.0416,-3.0219,-3.0216,-3.0195,-3.0173,-3.0184,-3.0176,-3.0204,-3.0392,-3.046,-3.0431,-3.0645,-3.0723,-3.0723,-3.0723,-3.0723,-3.0723,-3.0723,-3.0723,-3.0723,-3.0723,-3.0723,-3.0723,-3.0723,-3.0757,-3.0795,-3.0796,-3.0803,-3.0804,-3.0804,-3.0804,-3.0804,-3.0804,-3.0804,-3.0806,-3.0794,-3.0795,-3.0796,-3.0821,-3.0822,-3.0844,-3.0889,-3.0909,-3.0891,-3.0894,-2.9996,-2.9059,-2.8395,-2.7362,0.0,0.0,-2.6698,-2.6949,-2.7623,-2.7678,-2.7673,0.0,0.0,0.0,0.0,-2.7634,-2.734,-2.6626,-2.8459,-2.9726,-3.0283,-3.1753,-3.2984,-3.4015,-3.5713,-3.6524,-3.6543,-3.7456,-3.8202,-3.8827,-3.9288,-3.9853,-4.051,-4.0775,-4.1281,-4.1927,-4.2183,-4.3107,-4.4334,-4.4803,-4.5405,-4.6015,-3.6009,-3.6009,-3.5993,-3.5993,-3.5991,-3.6009,-3.6004,-3.6008,-3.6009,-3.6004,-3.5591,-3.5296,-3.5292,-3.4863,-3.4433,-3.4023,-3.2822,-3.1909,-3.148,-3.1086,-3.085,-3.085,-3.0846,-3.0843,-3.0843,-3.0843,-3.0839,-3.0791,-3.0803,-3.0796,-3.079,-3.0806,-3.08,-3.0795,-3.0762,-3.0752,-3.0745,-3.0756,-3.0731,-3.0703,-3.0703,-3.0703,-3.0703,-3.0703,-3.0703,-3.0703,-3.0703,-3.0703,-3.0703,-3.0703,-3.0703,-3.0703,-3.0703,-3.0712,-3.0747,-3.0745,-3.0784,-3.0798,-3.0798,-3.0798,-3.0798,-3.0798,-3.0798,-3.0799,-3.0806,-3.0806,-3.0809,-3.0796,-3.0798,-3.0819,-3.0844,-3.0845,-3.0846,-3.0849,-3.0148,-2.9427,-2.8958,-2.814,0.0,-2.7597,-2.7598,-2.7948,-2.8802,-2.9226,-2.961,-3.0013,-3.0372,0.0,-3.0583,-3.1037,-3.0469,-2.8695,-3.036,-3.1441,-3.1786,-3.3093,-3.4332,-3.5546,-3.6466,-3.7104,-3.7518,-3.8423,-3.9073,-3.9518,-3.9915,-4.0607,-4.1449,-4.1476,-4.2028,-4.2887,-4.3319,-4.4083,-4.501,-4.5424,-4.6133,-4.685,-3.5996,-3.5995,-3.5993,-3.5996,-3.5992,-3.5992,-3.5992,-3.5991,-3.6007,-3.5988,-3.5981,-3.5994,-3.6005,-3.6005,-3.5693,-3.4952,-3.3417,-3.2373,-3.212,-3.1409,-3.0934,-3.0817,-3.0806,-3.0798,-3.0798,-3.0796,-3.0794,-3.0794,-3.079,-3.0784,-3.0774,-3.0782,-3.0772,-3.0781,-3.0725,-3.0697,-3.0697,-3.0697,-3.0694,-3.0694,-3.0694,-3.0694,-3.0691,-3.0691,-3.0688,-3.0688,-3.0688,-3.0688,-3.0688,-3.0688,-3.0688,-3.0688,-3.071,-3.0694,-3.0694,-3.0697,-3.0735,-3.0788,-3.0788,-3.079,-3.0792,-3.0792,-3.0792,-3.0794,-3.0796,-3.0893,-3.0994,-3.1004,-3.1103,-3.1183,-3.1188,-3.1072,-3.0994,-3.0995,-3.0317,-2.9734,-2.9617,0.0,-2.8492,-2.8494,-2.8613,-2.9023,-2.9881,-3.0715,-3.1508,-3.2248,-3.2978,-3.3393,-3.3403,-3.3526,-3.2895,-3.1333,-3.2016,-3.2769,-3.3576,-3.4447,-3.5582,-3.701,-3.7268,-3.7777,-3.8526,-3.9386,-3.9785,-3.9823,-4.0643,-4.145,-4.2214,-4.2344,-4.2965,-4.3871,-4.4626,-4.5028,-4.5304,-4.6152,-4.6909,-4.7518,-3.6003,-3.5999,-3.5998,-3.5994,-3.5992,-3.5992,-3.5992,-3.6001,-3.5988,-3.5923,-3.5966,-3.6007,-3.6005,-3.6005,-3.5947,-3.581,-3.488,-3.3674,-3.2209,-3.1973,-3.1562,-3.0822,-3.0799,-3.0798,-3.0798,-3.08,-3.0806,-3.0806,-3.0747,-3.0714,-3.0712,-3.0728,-3.0728,-3.0725,-3.0707,-3.0698,-3.0698,-3.0707,-3.0701,-3.0701,-3.0701,-3.069,-3.0695,-3.0695,-3.0661,-3.0626,-3.0626,-3.0626,-3.0626,-3.0626,-3.0626,-3.063,-3.0688,-3.0706,-3.0704,-3.0695,-3.0716,-3.0717,-3.0717,-3.0764,-3.0794,-3.0794,-3.0801,-3.0791,-3.0802,-3.1369,-3.1898,-3.1909,-3.2477,-3.3005,-3.2994,-3.2392,-3.1908,-3.1895,-3.1172,-3.0373,-2.9691,0.0,-2.9406,-2.9391,-3.0057,-3.082,-3.1639,-3.2498,-3.3042,-3.3191,-3.3322,-3.3394,-3.3404,-3.4107,-3.434,-3.401,-3.414,-3.457,-3.5383,-3.6197,-3.6741,-3.7027,-3.8486,-3.9261,-3.943,-4.0245,-4.0613,-4.0657,-4.1577,-4.2068,-4.2257,-4.3059,-4.39,-4.4727,-4.491,-4.5438,-4.6209,-4.7006,-4.7383,-4.7604,-3.5995,-3.5978,-3.5942,-3.5942,-3.5942,-3.5942,-3.5942,-3.5953,-3.5948,-3.5895,-3.5931,-3.5946,-3.5946,-3.5941,-3.5955,-3.5955,-3.558,-3.4815,-3.3526,-3.2606,-3.1718,-3.0839,-3.0769,-3.0743,-3.0743,-3.0747,-3.0742,-3.0742,-3.0728,-3.0703,-3.0703,-3.0691,-3.0704,-3.0695,-3.0694,-3.068,-3.0649,-3.0642,-3.0657,-3.0696,-3.1165,-3.1352,-3.1402,-3.1863,-3.1743,-3.1308,-3.1308,-3.0993,-3.0606,-3.0606,-3.0916,-3.1308,-3.134,-3.1677,-3.1957,-3.1484,-3.1034,-3.0703,-3.0703,-3.0728,-3.0753,-3.0753,-3.0764,-3.0911,-3.1386,-3.1802,-3.2238,-3.2697,-3.3126,-3.3403,-3.3393,-3.3066,-3.2796,-3.2804,-3.2064,0.0,-3.0997,-3.094,-3.0944,-3.0948,-3.1712,-3.2399,-3.2754,-3.3594,-3.41,-3.4097,-3.4541,-3.4807,-3.4799,-3.5176,-3.5574,-3.5992,-3.6008,-3.6183,-3.6553,-3.7354,-3.797,-3.8409,-3.9257,-3.9874,-4.031,-4.0728,-4.115,-4.1578,-4.2043,-4.2793,-4.3693,-4.4111,-4.485,-4.566,-4.569,-4.5956,-4.6405,-4.7192,-4.7771,-4.8262,-3.5981,-3.5936,-3.5908,-3.5908,-3.5908,-3.5908,-3.5908,-3.5908,-3.5894,-3.5902,-3.5892,-3.5903,-3.59,-3.5908,-3.5901,-3.5901,-3.5885,-3.5505,-3.4627,-3.3186,-3.1971,-3.1123,-3.0831,-3.0703,-3.0703,-3.0694,-3.0691,-3.0691,-3.0682,-3.0678,-3.0678,-3.0681,-3.069,-3.0676,-3.068,-3.0641,-3.0606,-3.0819,-3.0897,-3.0974,-3.1851,-3.2195,-3.2249,-3.2927,-3.2768,-3.2182,-3.2182,-3.1756,-3.1189,-3.1189,-3.1635,-3.2182,-3.2171,-3.2637,-3.3044,-3.2393,-3.1759,-3.1203,-3.0801,-3.0707,-3.0749,-3.0947,-3.104,-3.1307,-3.218,-3.2542,-3.2864,-3.3536,-3.3831,-3.3972,-3.3988,-3.3834,-3.37,-3.3692,0.0,-3.2392,0.0,-3.2401,-3.2404,-3.2409,-3.3171,-3.3702,-3.3708,-3.4492,-3.5,-3.4999,-3.5621,-3.6083,-3.6292,-3.6302,-3.6662,-3.747,-3.7503,-3.7511,-3.7504,-3.8298,-3.9015,-3.9639,-3.9874,-4.0328,-4.0913,-4.0974,-4.1442,-4.224,-4.2498,-4.3482,-4.4917,-4.5139,-4.5657,-4.6309,-4.6306,-4.6405,-4.6686,-4.7483,-4.8304,-4.9111,-3.5916,-3.5892,-3.5908,-3.5908,-3.5908,-3.5908,-3.5908,-3.5908,-3.5903,-3.5905,-3.5908,-3.5901,-3.5908,-3.5905,-3.5905,-3.5905,-3.5849,-3.5445,-3.4563,-3.3639,-3.2753,-3.1948,-3.1131,-3.0703,-3.0703,-3.0695,-3.0697,-3.0697,-3.0638,-3.0614,-3.0614,-3.0614,-3.061,-3.061,-3.061,-3.0606,-3.0645,-3.1463,-3.1792,-3.187,-3.2742,-3.3073,-3.3016,-3.3069,-3.3074,-3.3015,-3.3015,-3.2977,-3.2919,-3.2919,-3.2957,-3.302,-3.3006,-3.3055,-3.3117,-3.3102,-3.3052,-3.2678,-3.1127,-3.0703,-3.0895,-3.1705,-3.1916,-3.2143,-3.3015,-3.3836,-3.4429,-3.4506,-3.5151,-3.5725,-3.5712,-3.5108,-3.4606,-3.4601,0.0,0.0,-3.3306,-3.3295,-3.3301,-3.3308,-3.407,-3.4599,-3.4604,-3.5388,-3.5898,-3.5898,-3.5956,-3.6345,-3.7162,-3.7191,-3.7567,-3.8387,-3.8399,-3.8396,-3.8397,-3.9194,-3.963,-3.9704,-4.0525,-4.0933,-4.0988,-4.0992,-4.1478,-4.2338,-4.3159,-4.4033,-4.4975,-4.5833,-4.6249,-4.6302,-4.6307,-4.6765,-4.7506,-4.8308,-4.9157,-5.0026,-3.6317,-3.5908,-3.5908,-3.5908,-3.5908,-3.5897,-3.5833,-3.5866,-3.5895,-3.5898,-3.5905,-3.5885,-3.5841,-3.585,-3.5838,-3.5842,-3.5782,-3.5594,-3.5279,-3.4466,-3.3152,-3.1216,-3.0808,-3.0633,-3.0633,-3.0642,-3.0634,-3.0634,-3.0614,-3.0606,-3.0606,-3.0606,-3.0888,-3.1403,-3.1403,-3.168,-3.2169,-3.2498,-3.2634,-3.2711,-3.3548,-3.3866,-3.3895,-3.4433,-3.4301,-3.384,-3.384,-3.3492,-3.3029,-3.3029,-3.3393,-3.384,-3.3831,-3.4234,-3.4617,-3.411,-3.3568,-3.3006,-3.2356,-3.2223,-3.2322,-3.266,-3.2745,-3.2965,-3.386,-3.4325,-3.4753,-3.5285,-3.5678,-3.5898,-3.59,-3.565,-3.5443,-3.5446,0.0,-3.4207,-3.4215,-3.4204,-3.4212,-3.4215,-3.498,-3.5512,-3.5518,-3.5813,-3.6226,-3.6775,-3.6816,-3.7187,-3.8066,-3.8627,-3.9026,-3.9302,-3.9823,-3.985,-3.9318,-4.0151,-4.0545,-4.0503,-4.0834,-4.0999,-4.0996,-4.0999,-4.1772,-4.312,-4.3506,-4.4465,-4.5792,-4.615,-4.6303,-4.6308,-4.6299,-4.6782,-4.7605,-4.8405,-4.9227,-5.0063,-3.7993,-3.7525,-3.7525,-3.7525,-3.7507,-3.7283,-3.6697,-3.681,-3.6899,-3.6705,-3.646,-3.6258,-3.6187,-3.5937,-3.5765,-3.5761,-3.5718,-3.5679,-3.5669,-3.4903,-3.3418,-3.111,-3.1013,-3.0877,-3.0606,-3.0602,-3.0597,-3.0597,-3.0608,-3.074,-3.0972,-3.0972,-3.1447,-3.2285,-3.2285,-3.258,-3.3111,-3.3367,-3.3473,-3.3539,-3.4378,-3.4701,-3.4778,-3.5372,-3.5225,-3.4717,-3.4717,-3.4312,-3.3811,-3.3811,-3.4214,-3.4701,-3.4701,-3.5143,-3.5546,-3.4947,-3.4342,-3.3898,-3.39,-3.3915,-3.3902,-3.3659,-3.3617,-3.3832,-3.4671,-3.4909,-3.5127,-3.5744,-3.5861,-3.5872,-3.5895,-3.5905,-3.5894,-3.5894,-3.5434,-3.5071,-3.5082,-3.5092,-3.5119,-3.5119,-3.5633,-3.6108,-3.6388,-3.6412,-3.6767,-3.7647,-3.7712,-3.8085,-3.8965,-3.9803,-4.0267,-4.0217,-4.0783,-4.0818,-4.02,-4.081,-4.1083,-4.1025,-4.1025,-4.1033,-4.1032,-4.1036,-4.1983,-4.3623,-4.3673,-4.4688,-4.6306,-4.6303,-4.6308,-4.6322,-4.6571,-4.7162,-4.7979,-4.8783,-4.9591,-5.0356,-4.1107,-4.1107,-4.1107,-4.1107,-4.0988,-4.0338,-3.8669,-3.8918,-3.9073,-3.8475,-3.764,-3.7078,-3.7027,-3.6227,-3.5713,-3.5707,-3.5643,-3.5596,-3.5606,-3.4793,-3.3592,-3.1982,-3.1909,-3.1502,-3.0645,-3.0628,-3.0619,-3.0619,-3.0612,-3.1023,-3.1811,-3.1811,-3.2275,-3.3107,-3.3107,-3.3111,-3.3181,-3.3978,-3.4309,-3.4383,-3.5244,-3.5598,-3.5598,-3.5598,-3.5598,-3.5598,-3.5598,-3.5598,-3.5598,-3.5598,-3.5598,-3.5598,-3.5598,-3.5598,-3.5598,-3.5598,-3.5598,-3.5598,-3.5598,-3.5598,-3.5415,-3.4686,-3.4516,-3.471,-3.551,-3.5708,-3.5722,-3.5786,-3.5795,-3.583,-3.5895,-3.5895,-3.5905,-3.5908,-3.5892,-3.5909,-3.5909,-3.5958,-3.6005,-3.6005,-3.6013,-3.6352,-3.7212,-3.7303,-3.7662,-3.8541,-3.8624,-3.9,-3.9863,-4.0664,-4.1093,-4.1108,-4.1108,-4.1107,-4.1107,-4.1097,-4.1093,-4.1093,-4.1093,-4.1093,-4.1093,-4.1093,-4.2049,-4.3692,-4.3697,-4.4686,-4.6295,-4.6308,-4.6303,-4.6387,-4.7198,-4.7999,-4.8791,-4.9601,-5.0409,-5.1099,-4.1107,-4.1107,-4.1075,-4.098,-4.0888,-4.0654,-4.0165,-3.9558,-3.8961,-3.8404,-3.8059,-3.7854,-3.7835,-3.7063,-3.6518,-3.6477,-3.5937,-3.5602,-3.559,-3.5366,-3.4735,-3.363,-3.3033,-3.2628,-3.2353,-3.2348,-3.2358,-3.2357,-3.2347,-3.2447,-3.2637,-3.2637,-3.3101,-3.3931,-3.3931,-3.4278,-3.4876,-3.5108,-3.5186,-3.5168,-3.5432,-3.5501,-3.5455,-3.5415,-3.5381,-3.5381,-3.5381,-3.5422,-3.5462,-3.5462,-3.5495,-3.5547,-3.5591,-3.5598,-3.5598,-3.5598,-3.5598,-3.5598,-3.5598,-3.5598,-3.5552,-3.5339,-3.527,-3.5343,-3.5635,-3.5694,-3.5708,-3.5727,-3.5727,-3.5745,-3.5826,-3.5823,-3.5853,-3.5885,-3.5908,-3.59,-3.59,-3.5921,-3.6168,-3.6772,-3.684,-3.7178,-3.8055,-3.814,-3.8497,-3.9382,-4.0001,-4.0479,-4.0739,-4.0974,-4.1093,-4.1093,-4.1093,-4.1092,-4.1107,-4.1101,-4.1093,-4.1099,-4.1099,-4.1092,-4.1093,-4.1094,-4.2057,-4.3697,-4.3699,-4.4684,-4.6307,-4.6305,-4.6269,-4.6318,-4.7174,-4.7961,-4.8725,-4.9598,-5.0419,-5.1108,-4.1027,-4.1027,-4.098,-4.0883,-4.0788,-4.0739,-4.0761,-4.0181,-3.9627,-3.9298,-3.8913,-3.867,-3.8678,-3.7906,-3.7225,-3.6839,-3.6036,-3.5554,-3.5554,-3.5554,-3.5329,-3.4795,-3.4312,-3.3738,-3.307,-3.3051,-3.3059,-3.3062,-3.3062,-3.3224,-3.3516,-3.3516,-3.3984,-3.4814,-3.4814,-3.5091,-3.5554,-3.5554,-3.5509,-3.5416,-3.5427,-3.5405,-3.5364,-3.5315,-3.55,-3.5814,-3.5814,-3.6052,-3.64,-3.64,-3.6418,-3.6404,-3.6118,-3.6035,-3.5977,-3.5644,-3.5554,-3.5554,-3.5554,-3.5554,-3.556,-3.5559,-3.557,-3.5618,-3.5654,-3.5651,-3.5653,-3.5654,-3.5654,-3.5674,-3.5741,-3.5778,-3.5814,-3.585,-3.5856,-3.5869,-3.5895,-3.6164,-3.6587,-3.7139,-3.7503,-3.8059,-3.8922,-3.9004,-3.9379,-4.0244,-4.0808,-4.1094,-4.1101,-4.1103,-4.1108,-4.1093,-4.1093,-4.1093,-4.1093,-4.1093,-4.1091,-4.1098,-4.1098,-4.1093,-4.1101,-4.1094,-4.2056,-4.3698,-4.3708,-4.4687,-4.6305,-4.6269,-4.6243,-4.6323,-4.7482,-4.8205,-4.8732,-4.9947,-5.0668,-5.1049,-4.0878,-4.0869,-4.0858,-4.079,-4.0674,-4.0609,-4.0675,-4.0681,-4.0688,-4.0694,-3.9985,-3.9489,-3.9487,-3.8709,-3.7866,-3.7061,-3.6149,-3.5608,-3.5608,-3.5538,-3.5501,-3.5502,-3.5502,-3.4796,-3.3259,-3.3226,-3.3226,-3.3226,-3.3226,-3.3625,-3.4416,-3.4391,-3.4821,-3.5585,-3.5579,-3.5541,-3.5474,-3.5486,-3.5405,-3.53,-3.5369,-3.5389,-3.54,-3.5477,-3.6002,-3.6692,-3.6692,-3.719,-3.7879,-3.7888,-3.7896,-3.777,-3.7049,-3.6807,-3.6661,-3.5921,-3.5666,-3.5608,-3.5608,-3.5551,-3.5488,-3.5489,-3.5541,-3.5591,-3.5598,-3.5598,-3.5596,-3.561,-3.5602,-3.5618,-3.5689,-3.5737,-3.578,-3.5782,-3.5792,-3.5815,-3.5872,-3.6591,-3.7143,-3.728,-3.8075,-3.8951,-3.9822,-3.9914,-4.0233,-4.1033,-4.1103,-4.1095,-4.1106,-4.1093,-4.1099,-4.1106,-4.1106,-4.1106,-4.1107,-4.1107,-4.1093,-4.1108,-4.1108,-4.1108,-4.1108,-4.1108,-4.2048,-4.369,-4.3691,-4.4684,-4.629,-4.624,-4.6203,-4.6341,-4.7889,-4.8538,-4.8771,-5.0396,-5.0991,-5.0986,-4.0759,-4.07,-4.0649,-4.0641,-4.0619,-4.0598,-4.0619,-4.0612,-4.0624,-4.061,-4.0365,-4.0185,-4.0177,-3.9415,-3.8815,-3.8615,-3.7275,-3.6445,-3.6445,-3.5851,-3.5507,-3.5494,-3.5494,-3.5321,-3.4962,-3.5001,-3.5001,-3.4956,-3.4956,-3.5053,-3.5232,-3.5185,-3.5268,-3.5441,-3.5393,-3.5352,-3.533,-3.5339,-3.53,-3.5291,-3.5919,-3.6133,-3.6155,-3.6841,-3.7222,-3.7375,-3.7375,-3.7497,-3.7686,-3.7793,-3.7863,-3.7857,-3.7701,-3.7643,-3.7605,-3.7421,-3.6892,-3.6355,-3.6355,-3.5897,-3.542,-3.5415,-3.5462,-3.554,-3.5585,-3.5598,-3.5604,-3.5596,-3.5596,-3.5608,-3.5623,-3.5637,-3.5664,-3.5708,-3.577,-3.5801,-3.5825,-3.6553,-3.7354,-3.8058,-3.8914,-3.9781,-4.0664,-4.0731,-4.0827,-4.1003,-4.1067,-4.1098,-4.1103,-4.1105,-4.1095,-4.1094,-4.1094,-4.1099,-4.1107,-4.1107,-4.1092,-4.1093,-4.1093,-4.1093,-4.1091,-4.1093,-4.2051,-4.369,-4.37,-4.4663,-4.6212,-4.6212,-4.6177,-4.6216,-4.7203,-4.7969,-4.8632,-4.9633,-5.0426,-5.0882,-4.0712,-4.0615,-4.0564,-4.0586,-4.0554,-4.0523,-4.0546,-4.0527,-4.0495,-4.0495,-4.0436,-4.0411,-4.0411,-3.9983,-3.9553,-3.9131,-3.7977,-3.7091,-3.6669,-3.6269,-3.5842,-3.5472,-3.542,-3.542,-3.5453,-3.5462,-3.5456,-3.5449,-3.5449,-3.5429,-3.5405,-3.5794,-3.5963,-3.5941,-3.632,-3.646,-3.64,-3.6394,-3.6379,-3.6373,-3.6776,-3.6891,-3.6929,-3.7337,-3.7764,-3.8125,-3.8125,-3.8393,-3.8756,-3.8861,-3.8927,-3.8877,-3.8494,-3.8388,-3.8301,-3.7961,-3.7537,-3.7182,-3.7206,-3.6915,-3.6585,-3.6585,-3.6619,-3.6445,-3.572,-3.5541,-3.5547,-3.5554,-3.5554,-3.5566,-3.5596,-3.5595,-3.5618,-3.5646,-3.5672,-3.5853,-3.6304,-3.7109,-3.7967,-3.8868,-3.9732,-4.0449,-4.0902,-4.0941,-4.0976,-4.1006,-4.1039,-4.1053,-4.1053,-4.1086,-4.11,-4.1094,-4.1094,-4.1099,-4.1108,-4.1108,-4.1095,-4.1104,-4.1091,-4.1093,-4.1093,-4.1092,-4.2045,-4.3699,-4.3679,-4.4614,-4.6195,-4.6162,-4.6108,-4.6134,-4.694,-4.7746,-4.8547,-4.9386,-5.0228,-5.0821,-4.0662,-4.0579,-4.0496,-4.0565,-4.0476,-4.0417,-4.0465,-4.0438,-4.0379,-4.0379,-4.0389,-4.0381,-4.0381,-4.0381,-4.0093,-3.9374,-3.8578,-3.7792,-3.7071,-3.6907,-3.652,-3.5851,-3.5764,-3.5764,-3.584,-3.5764,-3.563,-3.5379,-3.5532,-3.5568,-3.5523,-3.6385,-3.6744,-3.6725,-3.7434,-3.7687,-3.7585,-3.7566,-3.7557,-3.7557,-3.7649,-3.7676,-3.7676,-3.7757,-3.8239,-3.8864,-3.8864,-3.9342,-3.9975,-4.0036,-4.0057,-3.9953,-3.9289,-3.908,-3.8966,-3.8363,-3.8084,-3.7987,-3.8029,-3.7959,-3.7871,-3.7871,-3.7888,-3.7547,-3.6214,-3.5787,-3.5647,-3.5489,-3.5463,-3.5489,-3.5534,-3.5566,-3.5618,-3.5758,-3.5789,-3.6122,-3.7044,-3.7873,-3.8695,-3.948,-4.0343,-4.0888,-4.0878,-4.0891,-4.0924,-4.0984,-4.0979,-4.1,-4.1003,-4.1048,-4.1081,-4.1083,-4.1223,-4.1245,-4.1091,-4.125,-4.1257,-4.1092,-4.1094,-4.1102,-4.1103,-4.1254,-4.2183,-4.3693,-4.379,-4.4715,-4.6177,-4.6099,-4.6032,-4.6053,-4.6712,-4.7559,-4.8512,-4.9538,-5.0318,-5.0758,-4.0534,-4.0481,-4.0425,-4.0422,-4.0405,-4.0396,-4.0405,-4.037,-4.0316,-4.0316,-4.0318,-4.0301,-4.0301,-4.0301,-4.0262,-4.0148,-3.94,-3.8891,-3.8776,-3.8109,-3.7674,-3.7578,-3.7559,-3.7559,-3.7559,-3.7559,-3.6803,-3.5315,-3.6071,-3.6393,-3.6356,-3.7165,-3.7523,-3.745,-3.7509,-3.7518,-3.7498,-3.7399,-3.7339,-3.7404,-3.8088,-3.835,-3.8444,-3.912,-3.946,-3.9554,-3.9554,-3.9675,-3.9826,-3.9837,-3.9889,-3.9903,-3.98,-3.9804,-3.9827,-3.9723,-3.9212,-3.8671,-3.868,-3.8212,-3.7731,-3.7731,-3.7819,-3.7846,-3.7624,-3.6999,-3.6232,-3.5491,-3.5338,-3.5338,-3.5345,-3.5386,-3.5664,-3.6421,-3.6612,-3.6922,-3.7757,-3.8666,-3.9284,-3.9412,-4.0254,-4.0812,-4.0804,-4.0867,-4.0908,-4.0917,-4.0904,-4.0949,-4.1003,-4.1007,-4.1018,-4.1016,-4.1731,-4.1805,-4.1117,-4.1852,-4.1857,-4.1096,-4.11,-4.1109,-4.1138,-4.1878,-4.2724,-4.3655,-4.4397,-4.5254,-4.611,-4.6042,-4.5978,-4.5919,-4.6022,-4.7022,-4.8585,-5.0159,-5.0722,-5.072,-4.0444,-4.0419,-4.0394,-4.0388,-4.037,-4.0334,-4.0334,-4.0317,-4.03,-4.03,-4.0301,-4.0301,-4.0301,-4.0263,-4.0234,-4.0186,-3.9853,-3.9452,-3.8956,-3.8593,-3.8191,-3.774,-3.7722,-3.7742,-3.7721,-3.7722,-3.7361,-3.6578,-3.7012,-3.7175,-3.7135,-3.7909,-3.8232,-3.824,-3.8614,-3.8769,-3.8726,-3.8663,-3.8641,-3.8678,-3.8945,-3.906,-3.9098,-3.9408,-3.9533,-3.9533,-3.9533,-3.9539,-3.9575,-3.9623,-3.967,-3.9735,-3.9735,-3.9781,-3.9826,-3.987,-3.9627,-3.9374,-3.9437,-3.9221,-3.8994,-3.9023,-3.908,-3.9003,-3.8507,-3.8106,-3.7617,-3.6902,-3.637,-3.6025,-3.6025,-3.6059,-3.6201,-3.6573,-3.7076,-3.772,-3.855,-3.9022,-3.9463,-3.9947,-4.0402,-4.0694,-4.0694,-4.0739,-4.0806,-4.0837,-4.0849,-4.0874,-4.0936,-4.0943,-4.1178,-4.1653,-4.2081,-4.2369,-4.2489,-4.2889,-4.2873,-4.25,-4.25,-4.225,-4.1776,-4.2175,-4.3049,-4.43,-4.4638,-4.5259,-4.603,-4.5966,-4.5938,-4.59,-4.5854,-4.6871,-4.8489,-4.9671,-5.0352,-5.0692]},{"header":{"parameterUnit":"m.s-1","parameterCategory":1,"la1":30.6,"la2":28.766,"lo1":-90.7593,"lo2":-88.6598,"dy":0.0162,"dx":0.0183,"nx":116,"ny":114,"refTime":"2023-07-15T00:00:00:Z","depth":0,"parameterNumber":3,"parameterNumberName":"V-component_of_WINDS"},"data":[0.0,0.0,0.0,0.0,0.0,0.0,0.0,0.0,0.0,0.0,0.0,0.0,0.0,0.0,0.0,0.0,0.0,0.0,0.0,0.0,0.0,0.0,0.0,0.0,0.0,0.0,0.0,0.0,0.0,0.0,0.0,0.0,0.0,0.0,0.0,0.0,0.0,0.0,0.0,0.0,0.0,0.0,0.0,0.0,0.0,0.0,0.0,0.0,0.0,0.0,0.0,0.0,0.0,0.0,0.0,0.0,0.0,0.0,0.0,0.0,0.0,0.0,0.0,0.0,0.0,0.0,0.0,0.0,0.0,0.0,0.0,0.0,0.0,0.0,0.0,0.0,0.0,0.0,0.0,0.0,0.0,0.0,0.0,0.0,0.0,0.0,0.0,0.0,0.0,0.0,0.0,0.0,0.0,0.0,0.0,0.0,0.0,0.0,0.0,0.0,0.0,0.0,0.0,0.0,0.0,0.0,0.0,0.0,0.0,0.0,0.0,0.0,0.0,0.0,0.0,0.0,0.0,0.0,0.0,0.0,0.0,0.0,0.0,0.0,0.0,0.0,0.0,0.0,0.0,0.0,0.0,0.0,0.0,0.0,0.0,0.0,0.0,0.0,0.0,0.0,0.0,0.0,0.0,0.0,0.0,0.0,0.0,0.0,0.0,0.0,0.0,0.0,0.0,0.0,0.0,0.0,0.0,0.0,0.0,0.0,0.0,0.0,0.0,0.0,0.0,0.0,0.0,0.0,0.0,0.0,0.0,0.0,0.0,0.0,0.0,0.0,0.0,0.0,0.0,0.0,0.0,0.0,0.0,0.0,0.0,0.0,0.0,0.0,0.0,0.0,0.0,0.0,0.0,0.0,0.0,0.0,0.0,0.0,0.0,0.0,0.0,0.0,0.0,0.0,0.0,0.0,0.0,0.0,0.0,0.0,0.0,0.0,0.0,0.0,0.0,0.0,0.0,0.0,0.0,0.0,0.0,0.0,0.0,0.0,0.0,0.0,0.0,0.0,0.0,0.0,0.0,0.0,0.0,0.0,0.0,0.0,0.0,0.0,0.0,0.0,0.0,0.0,0.0,0.0,0.0,0.0,0.0,0.0,0.0,0.0,0.0,0.0,0.0,0.0,0.0,0.0,0.0,0.0,0.0,0.0,0.0,0.0,0.0,0.0,0.0,0.0,0.0,0.0,0.0,0.0,0.0,0.0,0.0,0.0,0.0,0.0,0.0,0.0,0.0,0.0,0.0,0.0,0.0,0.0,0.0,0.0,0.0,0.0,0.0,0.0,0.0,0.0,0.0,0.0,0.0,0.0,0.0,0.0,0.0,0.0,0.0,0.0,0.0,0.0,0.0,0.0,0.0,0.0,0.0,0.0,0.0,0.0,0.0,0.0,0.0,0.0,0.0,0.0,0.0,0.0,0.0,0.0,0.0,0.0,0.0,0.0,0.0,0.0,0.0,0.0,0.0,0.0,0.0,0.0,0.0,0.0,0.0,0.0,0.0,0.0,0.0,0.0,0.0,0.0,0.0,0.0,0.0,0.0,0.0,0.0,0.0,0.0,0.0,0.0,0.0,0.0,0.0,0.0,0.0,0.0,0.0,0.0,0.0,0.0,0.0,0.0,0.0,0.0,0.0,0.0,0.0,0.0,0.0,0.0,0.0,0.0,0.0,0.0,0.0,0.0,0.0,0.0,0.0,0.0,0.0,0.0,0.0,0.0,0.0,0.0,0.0,0.0,0.0,0.0,0.0,0.0,0.0,0.0,0.0,0.0,0.0,0.0,0.0,0.0,0.0,0.0,0.0,0.0,0.0,0.0,0.0,0.0,0.0,0.0,0.0,0.0,0.0,0.0,0.0,0.0,0.0,0.0,0.0,0.0,0.0,0.0,0.0,0.0,0.0,0.0,0.0,0.0,0.0,0.0,0.0,0.0,0.0,0.0,0.0,0.0,0.0,0.0,0.0,0.0,0.0,0.0,0.0,0.0,0.0,0.0,0.0,0.0,0.0,0.0,0.0,0.0,0.0,0.0,0.0,0.0,0.0,0.0,0.0,0.0,0.0,0.0,0.0,0.0,0.0,0.0,0.0,0.0,0.0,0.0,0.0,0.0,0.0,0.0,0.0,0.0,0.0,0.0,0.0,0.0,0.0,0.0,0.0,0.0,0.0,0.0,0.0,0.0,0.0,0.0,0.0,0.0,0.0,0.0,0.0,0.0,0.0,0.0,0.0,0.0,0.0,0.0,0.0,0.0,0.0,0.0,0.0,0.0,0.0,0.0,0.0,0.0,0.0,0.0,0.0,0.0,0.0,0.0,0.0,0.0,0.0,0.0,0.0,0.0,0.0,0.0,0.0,0.0,0.0,0.0,0.0,0.0,0.0,0.0,0.0,0.0,0.0,0.0,0.0,0.0,0.0,0.0,0.0,0.0,0.0,0.0,0.0,0.0,0.0,0.0,0.0,0.0,0.0,0.0,0.0,0.0,0.0,0.0,0.0,0.0,0.0,0.0,0.0,0.0,0.0,0.0,0.0,0.0,0.0,0.0,0.0,0.0,0.0,0.0,0.0,0.0,0.0,0.0,0.0,0.0,0.0,0.0,0.0,0.0,0.0,0.0,0.0,0.0,0.0,0.0,0.0,0.0,0.0,0.0,0.0,0.0,0.0,0.0,0.0,0.0,0.0,0.0,0.0,0.0,0.0,0.0,0.0,0.0,0.0,0.0,0.0,0.0,0.0,0.0,0.0,0.0,0.0,0.0,0.0,0.0,0.0,0.0,0.0,0.0,0.0,0.0,0.0,0.0,0.0,0.0,0.0,0.0,0.0,0.0,0.0,0.0,0.0,0.0,0.0,0.0,0.0,0.0,0.0,0.0,0.0,0.0,0.0,0.0,0.0,0.0,0.0,0.0,0.0,0.0,0.0,0.0,0.0,0.0,0.0,0.0,0.0,0.0,0.0,0.0,0.0,0.0,0.0,0.0,0.0,0.0,0.0,0.0,0.0,0.0,0.0,0.0,0.0,0.0,0.0,0.0,0.0,0.0,0.0,0.0,0.0,0.0,0.0,0.0,0.0,0.0,0.0,0.0,0.0,0.0,0.0,0.0,0.0,0.0,0.0,0.0,0.0,0.0,0.0,0.0,0.0,0.0,0.0,0.0,0.0,0.0,0.0,0.0,0.0,0.0,0.0,0.0,0.0,0.0,0.0,0.0,0.0,0.0,0.0,0.0,0.0,0.0,0.0,0.0,0.0,0.0,0.0,0.0,0.0,0.0,0.0,0.0,0.0,0.0,0.0,0.0,0.0,0.0,0.0,0.0,0.0,0.0,0.0,0.0,0.0,0.0,0.0,0.0,0.0,0.0,0.0,0.0,0.0,0.0,0.0,0.0,0.0,0.0,0.0,0.0,0.0,0.0,0.0,0.0,0.0,0.0,0.0,0.0,0.0,0.0,0.0,0.0,0.0,0.0,0.0,0.0,0.0,0.0,0.0,0.0,0.0,0.0,0.0,0.0,0.0,0.0,0.0,0.0,0.0,0.0,0.0,0.0,0.0,0.0,0.0,0.0,0.0,0.0,0.0,0.0,0.0,0.0,0.0,0.0,0.0,0.0,0.0,0.0,0.0,0.0,0.0,0.0,0.0,0.0,0.0,0.0,0.0,0.0,0.0,0.0,0.0,0.0,0.0,0.0,0.0,0.0,0.0,0.0,0.0,0.0,0.0,0.0,0.0,0.0,0.0,0.0,0.0,0.0,0.0,0.0,0.0,0.0,0.0,0.0,0.0,0.0,0.0,0.0,0.0,0.0,0.0,0.0,0.0,0.0,0.0,0.0,0.0,0.0,0.0,0.0,0.0,0.0,0.0,0.0,0.0,0.0,0.0,0.0,0.0,0.0,0.0,0.0,0.0,0.0,0.0,0.0,0.0,0.0,0.0,0.0,0.0,0.0,0.0,0.0,0.0,0.0,0.0,0.0,0.0,0.0,0.0,0.0,0.0,0.0,0.0,0.0,0.0,0.0,0.0,0.0,0.0,0.0,0.0,0.0,0.0,0.0,0.0,0.0,0.0,0.0,0.0,0.0,0.0,0.0,0.0,0.0,0.0,0.0,0.0,0.0,0.0,0.0,0.0,0.0,0.0,0.0,0.0,0.0,0.0,0.0,0.0,0.0,0.0,0.0,0.0,0.0,0.0,0.0,0.0,0.0,0.0,0.0,0.0,0.0,0.0,0.0,0.0,0.0,0.0,0.0,0.0,0.0,0.0,0.0,0.0,0.0,0.0,0.0,0.0,0.0,0.0,0.0,0.0,0.0,0.0,0.0,0.0,0.0,0.0,0.0,0.0,0.0,0.0,0.0,0.0,0.0,0.0,0.0,0.0,0.0,0.0,0.0,0.0,0.0,0.0,0.0,0.0,0.0,0.0,0.0,0.0,0.0,0.0,0.0,0.0,0.0,0.0,0.0,0.0,0.0,0.0,0.0,0.0,0.0,0.0,0.0,0.0,0.0,0.0,0.0,0.0,0.0,0.0,0.0,0.0,0.0,0.0,0.0,0.0,0.0,0.0,0.0,0.0,0.0,0.0,0.0,0.0,0.0,0.0,0.0,0.0,0.0,0.0,0.0,0.0,0.0,0.0,0.0,0.0,0.0,0.0,0.0,0.0,0.0,0.0,0.0,0.0,0.0,0.0,0.0,0.0,0.0,0.0,0.0,0.0,0.0,0.0,0.0,0.0,0.0,0.0,0.0,0.0,0.0,0.0,0.0,0.0,0.0,0.0,0.0,0.0,0.0,0.0,0.0,0.0,0.0,0.0,0.0,0.0,0.0,0.0,0.0,0.0,0.0,0.0,0.0,0.0,0.0,0.0,0.0,0.0,0.0,0.0,0.0,0.0,0.0,0.0,0.0,0.0,0.0,0.0,0.0,0.0,0.0,0.0,0.0,0.0,0.0,0.0,0.0,0.0,0.0,0.0,0.0,0.0,0.0,0.0,0.0,0.0,0.0,0.0,0.0,0.0,0.0,0.0,0.0,0.0,0.0,0.0,0.0,0.0,0.0,0.0,0.0,0.0,0.0,0.0,0.0,0.0,0.0,0.0,0.0,0.0,0.0,0.0,0.0,0.0,0.0,0.0,0.0,0.0,0.0,0.0,0.0,0.0,0.0,0.0,0.0,0.0,0.0,0.0,0.0,0.0,0.0,0.0,0.0,0.0,0.0,0.0,0.0,0.0,0.0,0.0,0.0,0.0,0.0,0.0,0.0,0.0,0.0,0.0,0.0,0.0,0.0,0.0,0.0,0.0,0.0,0.0,0.0,0.0,0.0,0.0,0.0,0.0,0.0,0.0,0.0,0.0,0.0,0.0,0.0,0.0,0.0,0.0,0.0,0.0,0.0,0.0,0.0,0.0,0.0,0.0,0.0,0.0,0.0,0.0,0.0,0.0,0.0,0.0,0.0,0.0,0.0,0.0,0.0,0.0,0.0,0.0,0.0,0.0,0.0,0.0,0.0,0.0,0.0,0.0,0.0,0.0,0.0,0.0,0.0,0.0,0.0,0.0,0.0,0.0,0.0,0.0,0.0,0.0,0.0,0.0,0.0,0.0,0.0,0.0,0.0,0.0,0.0,0.0,0.0,0.0,0.0,0.0,0.0,0.0,0.0,0.0,0.0,0.0,0.0,0.0,0.0,0.0,0.0,0.0,0.0,0.0,0.0,0.0,0.0,0.0,0.0,0.0,0.0,0.0,0.0,0.0,0.0,0.0,0.0,0.0,0.0,0.0,0.0,0.0,0.0,0.0,0.0,0.0,0.0,0.0,0.0,0.0,0.0,0.0,0.0,0.0,0.0,0.0,0.0,0.0,0.0,0.0,0.0,0.0,0.0,0.0,0.0,0.0,0.0,0.0,0.0,0.0,0.0,0.0,0.0,0.0,0.0,0.0,0.0,0.0,0.0,0.0,0.0,0.0,0.0,0.0,0.0,0.0,0.0,0.0,0.0,0.0,0.0,0.0,0.0,0.0,0.0,0.0,0.0,0.0,0.0,0.0,0.0,0.0,0.0,0.0,0.0,0.0,0.0,0.0,0.0,0.0,0.0,0.0,0.0,0.0,0.0,0.0,0.0,-1.1657,0.0,0.0,0.0,0.0,0.0,0.0,0.0,0.0,0.0,0.0,0.0,0.0,0.0,0.0,0.0,0.0,0.0,0.0,0.0,0.0,0.0,0.0,0.0,0.0,0.0,0.0,0.0,0.0,0.0,0.0,0.0,0.0,0.0,0.0,0.0,0.0,0.0,0.0,0.0,0.0,0.0,0.0,0.0,0.0,0.0,0.0,0.0,0.0,0.0,0.0,0.0,0.0,0.0,0.0,0.0,0.0,0.0,0.0,0.0,0.0,0.0,0.0,0.0,0.0,0.0,0.0,0.0,0.0,0.0,0.0,0.0,0.0,0.0,0.0,0.0,0.0,0.0,0.0,0.0,0.0,0.0,0.0,0.0,0.0,0.0,0.0,0.0,0.0,0.0,0.0,0.0,0.0,0.0,0.0,0.0,0.0,0.0,0.0,0.0,0.0,0.0,0.0,0.0,0.0,0.0,0.0,0.0,0.0,0.0,0.0,0.0,0.0,0.0,0.0,0.0,0.0,-1.361,0.0,0.0,0.0,0.0,0.0,0.0,0.0,0.0,0.0,0.0,0.0,0.0,0.0,0.0,0.0,0.0,0.0,0.0,0.0,0.0,0.0,0.0,0.0,0.0,0.0,0.0,0.0,0.0,0.0,0.0,0.0,0.0,0.0,0.0,0.0,0.0,0.0,0.0,0.0,0.0,0.0,0.0,0.0,0.0,0.0,0.0,0.0,0.0,0.0,0.0,0.0,0.0,0.0,0.0,0.0,0.0,0.0,0.0,0.0,0.0,0.0,0.0,0.0,0.0,0.0,0.0,0.0,0.0,0.0,0.0,0.0,0.0,0.0,0.0,0.0,0.0,0.0,0.0,0.0,0.0,0.0,0.0,0.0,0.0,0.0,0.0,0.0,0.0,0.0,0.0,0.0,0.0,0.0,0.0,0.0,0.0,0.0,0.0,0.0,0.0,0.0,0.0,0.0,0.0,0.0,0.0,0.0,0.0,-1.6275,-1.6592,-1.6607,-1.6769,-1.721,-1.7792,-1.6787,-1.6227,-1.6027,-1.594,0.0,0.0,0.0,0.0,0.0,0.0,0.0,0.0,0.0,0.0,0.0,0.0,0.0,0.0,0.0,0.0,0.0,0.0,0.0,0.0,0.0,0.0,0.0,0.0,0.0,0.0,0.0,0.0,0.0,0.0,0.0,0.0,0.0,0.0,0.0,0.0,0.0,0.0,-1.5715,-1.6735,-1.702,-1.669,-1.6005,0.0,0.0,0.0,0.0,0.0,0.0,0.0,0.0,0.0,0.0,0.0,0.0,0.0,0.0,0.0,0.0,0.0,0.0,0.0,0.0,0.0,0.0,0.0,0.0,0.0,0.0,0.0,0.0,0.0,0.0,0.0,0.0,0.0,0.0,0.0,0.0,0.0,0.0,0.0,0.0,0.0,0.0,0.0,-0.8697,-1.0069,0.0,0.0,0.0,0.0,0.0,0.0,0.0,0.0,0.0,0.0,0.0,0.0,0.0,-1.5431,-1.6099,-1.6892,-1.7583,-1.821,-1.9004,-1.9373,-1.9373,-1.939,-1.9773,-2.04,-2.0236,0.0,-1.8063,-1.7409,0.0,0.0,0.0,0.0,0.0,0.0,0.0,0.0,0.0,0.0,0.0,0.0,0.0,0.0,0.0,0.0,0.0,0.0,0.0,0.0,0.0,0.0,0.0,0.0,0.0,0.0,0.0,0.0,0.0,0.0,0.0,0.0,0.0,0.0,0.0,0.0,-1.5423,-1.6443,-1.7543,-1.8236,-1.8697,-1.8907,-1.84,-1.7421,-1.6106,-1.5857,0.0,0.0,0.0,0.0,0.0,0.0,0.0,0.0,0.0,0.0,0.0,0.0,0.0,0.0,0.0,0.0,0.0,0.0,0.0,0.0,0.0,0.0,0.0,0.0,0.0,0.0,0.0,0.0,0.0,0.0,0.0,0.0,0.0,0.0,0.0,0.0,0.0,0.0,0.0,-0.9085,-1.0591,-1.1854,-1.2351,-1.2825,0.0,0.0,0.0,0.0,0.0,0.0,0.0,0.0,0.0,-1.5787,-1.7056,-1.803,-1.8661,-1.9398,-2.0086,-2.0734,-2.1411,-2.1763,-2.1763,-2.1919,-2.2129,-2.2425,-2.2546,-2.218,-2.1418,-2.0085,-1.94,-1.917,0.0,0.0,0.0,0.0,-1.8931,-1.8946,0.0,0.0,0.0,0.0,0.0,0.0,0.0,0.0,0.0,0.0,0.0,0.0,0.0,0.0,0.0,-1.3799,0.0,0.0,0.0,0.0,0.0,0.0,0.0,0.0,0.0,0.0,0.0,-1.5903,-1.6791,-1.7793,-1.883,-1.9413,-1.9885,-2.022,-2.0029,-1.9103,-1.7653,-1.7337,-1.6426,0.0,0.0,0.0,0.0,0.0,0.0,0.0,0.0,0.0,0.0,0.0,0.0,0.0,0.0,0.0,0.0,0.0,0.0,0.0,0.0,0.0,0.0,0.0,0.0,0.0,0.0,0.0,0.0,0.0,0.0,0.0,0.0,0.0,0.0,0.0,0.0,0.0,0.0,-1.0895,-1.2206,-1.3429,-1.4298,-1.507,0.0,0.0,0.0,0.0,0.0,0.0,-1.6178,-1.7279,-1.8009,-1.8205,-1.9351,-2.0332,-2.1108,-2.1679,-2.2292,-2.2944,-2.3466,-2.3708,-2.3731,-2.3926,-2.3993,-2.4015,-2.4199,-2.4309,-2.4202,-2.2372,-2.1449,-2.1149,-2.1016,-2.108,-2.125,-2.134,-2.1487,-2.1645,0.0,0.0,0.0,0.0,0.0,0.0,0.0,0.0,0.0,0.0,0.0,0.0,0.0,0.0,-1.4436,-1.4454,-1.5301,-1.5847,0.0,0.0,0.0,0.0,0.0,0.0,0.0,0.0,0.0,-1.6173,-1.824,-1.9193,-1.9095,-2.0009,-2.0382,-2.0303,-2.0134,-1.9963,-1.9676,-1.8528,-1.7697,-1.7027,0.0,0.0,0.0,0.0,0.0,0.0,0.0,0.0,0.0,0.0,0.0,0.0,0.0,0.0,0.0,0.0,0.0,0.0,0.0,0.0,0.0,0.0,0.0,0.0,0.0,0.0,0.0,0.0,0.0,0.0,0.0,0.0,0.0,0.0,0.0,0.0,0.0,0.0,0.0,-1.4752,-1.6004,0.0,0.0,0.0,0.0,-1.8508,-1.8508,-1.8541,-1.8527,-1.9202,-1.9837,-2.0421,-2.1119,-2.2083,-2.3317,-2.3629,-2.4065,-2.4665,-2.495,-2.5099,-2.5099,-2.5123,-2.5123,-2.5123,-2.526,-2.5401,-2.5368,-2.3562,-2.2879,-2.2923,-2.2401,-2.264,-2.3274,-2.3398,-2.3842,-2.4427,0.0,0.0,0.0,0.0,0.0,0.0,0.0,0.0,0.0,0.0,0.0,0.0,0.0,-1.3887,-1.5159,-1.6508,-1.6231,-1.6241,-1.6791,0.0,0.0,0.0,0.0,0.0,0.0,0.0,-1.6796,-1.7955,-1.8704,-1.9489,-2.0267,-2.0902,-2.1287,-2.1471,-2.1626,-2.1597,-2.134,-1.9977,-1.8888,-1.8001,-1.7068,-1.5691,0.0,0.0,0.0,0.0,0.0,0.0,0.0,0.0,0.0,0.0,0.0,0.0,0.0,0.0,0.0,0.0,0.0,0.0,0.0,0.0,0.0,0.0,0.0,0.0,0.0,0.0,0.0,0.0,0.0,0.0,0.0,0.0,0.0,0.0,0.0,0.0,0.0,-1.6874,-1.7762,0.0,-1.9147,-1.9754,-2.013,-2.013,-2.047,-2.0745,-2.0886,-2.1513,-2.207,-2.2443,-2.3065,-2.3616,-2.4073,-2.4601,-2.4966,-2.5196,-2.5675,-2.594,-2.6028,-2.6159,-2.6276,-2.6367,-2.6514,-2.6589,-2.655,-2.5565,-2.507,-2.4945,-2.4767,-2.4884,-2.5213,-2.5299,-2.554,-2.5843,0.0,0.0,0.0,0.0,0.0,0.0,0.0,0.0,0.0,0.0,0.0,-1.1591,-1.3512,-1.472,-1.6022,-1.7632,-1.7277,-1.7149,-1.7545,0.0,0.0,0.0,0.0,0.0,0.0,-1.6706,-1.7605,-1.8759,-1.9321,-2.0057,-2.0973,-2.1466,-2.1848,-2.2102,-2.2332,-2.2309,-2.2082,-2.1099,-2.0109,-1.9137,-1.8297,-1.6949,-1.5383,0.0,0.0,0.0,0.0,0.0,0.0,0.0,0.0,0.0,0.0,0.0,0.0,0.0,0.0,0.0,0.0,0.0,0.0,0.0,0.0,0.0,0.0,0.0,0.0,0.0,0.0,0.0,0.0,0.0,0.0,0.0,0.0,0.0,0.0,0.0,-1.7157,-1.859,-1.9651,-2.0423,-2.0873,-2.1466,-2.1815,-2.1815,-2.2187,-2.2481,-2.2599,-2.3222,-2.3755,-2.4118,-2.4721,-2.5129,-2.5341,-2.5912,-2.6193,-2.6193,-2.6687,-2.6982,-2.7062,-2.6998,-2.7045,-2.7178,-2.7103,-2.7078,-2.7115,-2.7011,-2.6872,-2.6669,-2.6134,-2.6153,-2.6474,-2.6528,-2.6911,-2.7481,0.0,0.0,0.0,0.0,0.0,0.0,0.0,0.0,0.0,0.0,-1.0911,-1.2413,-1.3504,-1.5574,-1.7106,-1.7699,-1.8416,-1.8656,-1.8144,-1.7304,0.0,0.0,0.0,0.0,-1.5888,-1.7852,-1.8783,-1.8561,-2.0141,-2.0966,-2.112,-2.1667,-2.1991,-2.2113,-2.2124,-2.2021,-2.1812,-2.1801,-2.1351,-2.0515,-1.9052,-1.7924,-1.7044,0.0,0.0,0.0,0.0,0.0,0.0,0.0,0.0,0.0,0.0,0.0,0.0,0.0,0.0,0.0,0.0,0.0,0.0,0.0,0.0,0.0,0.0,0.0,0.0,0.0,0.0,0.0,0.0,0.0,0.0,0.0,0.0,0.0,-1.5424,-1.7493,-1.9264,-1.9902,-2.1602,-2.2727,-2.2727,-2.3317,-2.3663,-2.3663,-2.3676,-2.369,-2.3716,-2.4267,-2.4846,-2.5439,-2.6018,-2.6596,-2.7175,-2.7515,-2.7661,-2.7691,-2.8024,-2.8168,-2.8154,-2.7583,-2.7395,-2.7489,-2.706,-2.6931,-2.708,-2.7812,-2.8115,-2.7977,-2.6497,-2.6391,-2.7085,-2.7085,-2.7987,-2.9368,0.0,0.0,0.0,0.0,0.0,0.0,0.0,0.0,0.0,0.0,-1.0888,-1.2512,-1.3895,-1.5364,-1.6868,-1.8433,-1.8375,-1.8235,-1.8183,0.0,0.0,0.0,0.0,0.0,-1.7753,-1.8304,-1.9041,-1.9881,-2.0665,-2.1131,-2.1328,-2.2172,-2.2434,-2.227,-2.26,-2.2571,-2.2209,-2.1865,-2.16,-2.1269,-2.0096,-1.8904,-1.775,0.0,0.0,0.0,0.0,0.0,0.0,0.0,0.0,0.0,0.0,0.0,0.0,0.0,0.0,0.0,0.0,0.0,0.0,0.0,0.0,0.0,0.0,0.0,0.0,0.0,0.0,0.0,0.0,0.0,0.0,0.0,0.0,-1.7519,-1.7537,-1.8973,-2.0377,-2.1377,-2.2819,-2.3715,-2.3715,-2.4668,-2.5281,-2.5281,-2.5661,-2.5964,-2.6053,-2.6217,-2.644,-2.6693,-2.6858,-2.7024,-2.7189,-2.7278,-2.7337,-2.7337,-2.7572,-2.7748,-2.7836,-2.7811,-2.7883,-2.7997,-2.7881,-2.7838,-2.7908,-2.8178,-2.8376,-2.8429,-2.8269,-2.8446,-2.8805,-2.8805,-2.9229,-2.9855,0.0,0.0,0.0,0.0,0.0,0.0,0.0,0.0,0.0,0.0,-1.0759,-1.2444,-1.403,-1.5345,-1.6784,-1.8405,-1.8277,-1.8025,-1.7874,0.0,0.0,0.0,0.0,-1.8001,-1.8317,-1.8967,-1.969,-2.0472,-2.0982,-2.1407,-2.1771,-2.2324,-2.252,-2.2351,-2.2621,-2.2553,-2.2231,-2.1892,-2.1586,-2.1261,-2.0537,-1.9637,-1.8664,-1.806,-1.7405,-1.6757,-1.6228,-1.5391,-1.4564,-1.4504,0.0,0.0,0.0,0.0,0.0,0.0,0.0,0.0,0.0,0.0,0.0,0.0,0.0,0.0,0.0,0.0,0.0,0.0,0.0,0.0,0.0,0.0,0.0,0.0,-1.8122,-1.9428,-2.0296,-2.1169,-2.2069,-2.2991,-2.4225,-2.5007,-2.5007,-2.5654,-2.6058,-2.6058,-2.6395,-2.6614,-2.6691,-2.6965,-2.7101,-2.7193,-2.7437,-2.7591,-2.767,-2.7745,-2.7807,-2.7869,-2.808,-2.8202,-2.8296,-2.8148,-2.8155,-2.8261,-2.808,-2.8024,-2.8096,-2.8512,-2.8728,0.0,0.0,0.0,0.0,0.0,-3.0048,-3.0298,0.0,0.0,0.0,0.0,0.0,0.0,0.0,0.0,0.0,0.0,0.0,-1.2237,-1.3888,-1.5288,-1.6589,-1.7813,-1.7976,-1.7827,0.0,0.0,0.0,-1.7201,-1.8061,-1.8445,-1.8228,-1.9629,-2.0458,-2.066,-2.1174,-2.1694,-2.2277,-2.2295,-2.2315,-2.2365,-2.2327,-2.2214,-2.2025,-2.1807,-2.1381,-2.0825,-2.0588,-2.0124,-1.9528,-1.8763,-1.8164,-1.7629,-1.6999,-1.6486,-1.6067,-1.5844,0.0,0.0,0.0,0.0,0.0,0.0,0.0,0.0,0.0,0.0,0.0,0.0,0.0,0.0,0.0,0.0,0.0,0.0,0.0,0.0,0.0,0.0,0.0,0.0,-1.9895,-2.1263,-2.3037,-2.3655,-2.4103,-2.4622,-2.5705,-2.6401,-2.6401,-2.6454,-2.6494,-2.6494,-2.6494,-2.6494,-2.6494,0.0,0.0,0.0,0.0,-2.8164,-2.8268,-2.8444,-2.8587,-2.8716,-2.8908,-2.9035,-2.9022,-2.8515,-2.8329,-2.8455,-2.8035,-2.7945,-2.8104,-2.8804,-2.9121,-2.9153,-2.9044,-2.9123,-2.9364,-3.025,-3.0599,-3.0702,0.0,0.0,0.0,0.0,0.0,0.0,0.0,0.0,0.0,-0.8872,-1.0574,-1.2033,-1.3107,-1.4244,-1.544,-1.6697,-1.6816,-1.6995,0.0,0.0,-1.7028,-1.7272,-1.8262,-1.8885,-1.8976,-1.9643,-2.0323,-2.0997,-2.1314,-2.1688,-2.2074,-2.2279,-2.2317,-2.2138,-2.1987,-2.1807,-2.1617,-2.1397,-2.1231,-2.1082,-2.0682,-2.0092,-1.9469,-1.9067,-1.8698,-1.8375,-1.8009,-1.7627,-1.723,-1.6978,-1.657,-1.6058,-1.5419,0.0,0.0,0.0,0.0,0.0,0.0,0.0,0.0,0.0,0.0,0.0,0.0,0.0,0.0,0.0,0.0,0.0,0.0,0.0,0.0,-2.0194,-2.1486,-2.2596,-2.3635,-2.4961,-2.5814,-2.5709,-2.6476,-2.704,-2.704,-2.7466,-2.7733,-2.7733,-2.7733,-2.7733,-2.7733,-2.7853,-2.7919,-2.7919,-2.8026,-2.8112,-2.8131,-2.8177,-2.821,-2.8243,0.0,0.0,-2.8716,-2.8693,-2.8811,-2.8951,-2.8858,-2.8834,-2.8879,-2.9021,-2.9264,-2.956,-3.0069,-3.0294,-3.0367,-3.0822,-3.1041,-3.1186,0.0,0.0,0.0,0.0,0.0,0.0,0.0,0.0,0.0,0.0,-0.9751,-1.0976,-1.199,-1.3184,-1.4292,-1.523,-1.5575,0.0,0.0,-1.6629,-1.6929,-1.7239,-1.8413,-1.905,-1.9059,-1.9678,-2.0401,-2.121,-2.1242,-2.1514,-2.2051,-2.2184,-2.2111,-2.1807,-2.1693,-2.154,-2.1359,-2.1128,-2.1061,-2.1021,-2.0448,-1.9872,-1.9389,-1.9191,-1.8869,-1.8508,-1.8258,-1.8072,-1.7922,-1.7382,-1.7082,-1.6808,-1.6225,-1.5465,-1.4733,0.0,0.0,0.0,0.0,0.0,0.0,0.0,0.0,0.0,0.0,0.0,0.0,0.0,0.0,-1.712,0.0,0.0,-2.0327,-2.1779,-2.2803,-2.382,-2.4831,-2.5724,-2.6265,-2.6345,-2.6946,-2.7347,-2.7347,-2.7631,-2.7802,-2.7802,-2.7802,-2.7802,-2.7802,-2.7802,-2.7934,-2.8224,-2.8237,-2.8416,-2.8788,-2.8788,-2.8856,-2.8958,-2.8705,-2.8672,-2.8738,-2.8546,-2.8509,-2.8587,-2.867,-2.8688,-2.8688,-2.8881,-2.9117,-2.9383,-2.9898,-3.0189,-3.0371,-3.0746,-3.0881,-3.1043,0.0,0.0,0.0,0.0,0.0,0.0,0.0,0.0,0.0,0.0,-0.8815,-0.982,-1.0886,-1.203,-1.3023,0.0,0.0,0.0,0.0,-1.6004,-1.6624,-1.7093,-1.8334,-1.894,-1.8819,-1.9539,-2.0324,-2.1102,-2.1012,-2.1301,-2.1964,-2.1993,-2.1807,-2.1502,-2.1436,-2.1282,-2.1138,-2.0906,-2.0741,-2.0632,-2.003,-1.9508,-1.9121,-1.8973,-1.8724,-1.8422,-1.8157,-1.8167,-1.8172,-1.7427,-1.7156,-1.7104,-1.6727,-1.6144,-1.5584,-1.5398,-1.4643,0.0,0.0,0.0,0.0,0.0,0.0,0.0,0.0,0.0,-1.7364,-1.7992,-1.8565,-1.9326,-2.0554,-2.1284,-2.2064,-2.321,-2.396,-2.4798,-2.5914,-2.6131,-2.6339,-2.6713,-2.715,-2.7403,-2.7403,-2.7403,-2.7403,-2.7403,-2.7403,-2.7403,-2.7403,-2.7494,-2.7801,-2.8256,-2.8374,-2.8743,-2.9319,-2.9332,-2.939,-2.9566,-2.9056,-2.8813,-2.8728,-2.8298,-2.8087,-2.8046,-2.8216,-2.8268,-2.83,-2.861,-2.8849,-2.9035,-2.9383,-2.9696,-3.0019,-3.0371,-3.0625,-3.0889,0.0,0.0,0.0,0.0,0.0,0.0,0.0,0.0,0.0,0.0,0.0,0.0,0.0,0.0,0.0,0.0,0.0,0.0,-1.5039,-1.5553,-1.6108,-1.6817,-1.7784,-1.835,-1.8434,-1.9015,-1.9662,-2.0392,-2.0621,-2.0978,-2.1492,-2.1535,-2.154,-2.1464,-2.1138,-2.0945,-2.0906,-2.0547,-2.0169,-1.983,-1.9507,-1.901,-1.8444,-1.8025,-1.8071,-1.8277,-1.8026,-1.793,-1.7863,-1.7215,-1.7035,-1.6999,-1.6973,-1.6678,-1.6403,-1.649,0.0,-1.5236,-1.5427,-1.5279,-1.504,-1.504,-1.5857,-1.6679,0.0,0.0,-1.8836,-1.9813,-2.0302,-2.1022,-2.2566,-2.302,-2.341,-2.4218,-2.4809,-2.534,-2.5831,-2.6341,-2.6739,-2.6955,-2.7007,-2.7045,-2.7045,-2.7045,-2.7045,-2.7045,-2.7045,-2.7045,-2.7045,-2.7494,-2.7811,-2.7875,-2.8328,-2.8623,-2.8687,-2.8687,-2.8723,-2.8723,-2.8659,-2.8482,-2.8192,-2.8127,-2.8007,-2.7855,-2.8033,-2.8112,-2.8145,-2.849,-2.8651,-2.8683,-2.9035,-2.9289,-2.954,-2.9988,-3.067,-3.1424,0.0,0.0,0.0,0.0,0.0,0.0,0.0,0.0,0.0,0.0,0.0,0.0,0.0,0.0,0.0,0.0,0.0,0.0,-1.3648,-1.4597,-1.548,-1.6284,-1.7186,-1.7791,-1.8035,-1.8686,-1.9243,-1.9712,-2.0027,-2.0346,-2.0695,-2.0745,-2.0616,-2.0383,-2.0096,-1.9909,-1.9769,-1.9486,-1.9268,-1.9087,-1.8738,-1.8328,-1.7827,-1.7398,-1.7052,-1.6894,-1.7123,-1.727,0.0,0.0,-1.6838,-1.6953,-1.6831,-1.6787,-1.6765,-1.6628,-1.6372,0.0,-1.616,-1.6297,0.0,0.0,-1.7624,-1.8694,-1.8694,-1.9836,-2.1007,-2.1431,-2.1992,-2.2579,-2.3239,-2.3829,-2.4307,0.0,-2.5197,-2.5738,-2.6011,-2.6292,-2.6465,-2.6705,-2.6705,-2.6773,-2.699,-2.699,-2.699,-2.699,-2.699,-2.7152,-2.746,-2.769,-2.8113,-2.8756,-2.9012,-2.9281,-2.9638,-2.9651,-2.9651,-2.9638,-2.9281,-2.9048,-2.889,-2.8543,-2.8173,-2.779,-2.7546,-2.7766,-2.8303,-2.8438,-2.8873,-2.9484,-2.9718,-2.9918,-3.0107,-3.0263,-3.0654,-3.1234,0.0,0.0,0.0,0.0,0.0,0.0,0.0,0.0,0.0,0.0,0.0,0.0,0.0,0.0,0.0,0.0,0.0,0.0,0.0,-1.36,-1.4672,-1.5516,-1.6403,-1.7086,-1.7521,-1.8048,-1.849,-1.8876,-1.9326,-1.9599,-1.9833,-1.9981,-1.9831,-1.9495,-1.9323,-1.9047,-1.8759,-1.8531,-1.8316,-1.8071,-1.7753,-1.7386,-1.7039,-1.651,-1.6018,-1.5706,-1.6146,-1.632,0.0,0.0,-1.6102,-1.635,-1.6342,-1.6521,-1.6691,-1.664,-1.6874,-1.707,-1.6942,0.0,0.0,-1.8148,-1.9321,-2.0437,-2.0437,-2.1524,-2.2587,-2.2727,-2.3234,-2.371,-2.3887,-2.446,-2.4931,-2.5,-2.5467,-2.5875,-2.6097,-2.6131,-2.6166,-2.6327,-2.6327,-2.643,-2.6671,-2.6739,-2.6786,-2.6786,-2.6752,-2.6945,-2.7478,-2.7678,-2.8246,-2.9237,-2.9465,-2.977,-3.0216,-3.0228,-3.0228,-3.0216,-2.977,-2.9502,-2.9324,-2.8788,-2.8339,-2.7966,-2.7604,-2.7829,-2.8469,-2.8573,-2.91,-2.988,-3.0158,-3.0364,-3.0528,-3.0757,-3.1036,-3.1405,0.0,0.0,0.0,0.0,0.0,0.0,0.0,0.0,0.0,0.0,0.0,0.0,0.0,0.0,0.0,0.0,0.0,0.0,0.0,-1.2731,-1.3606,-1.4396,-1.5356,-1.6158,-1.6818,-1.686,-1.7153,-1.774,-1.8465,-1.8838,-1.8835,-1.9384,-1.9495,-1.9287,-1.9114,-1.8665,-1.8095,-1.7926,-1.7397,-1.6659,-1.6449,-1.6243,-1.595,-1.5088,-1.494,-1.5205,-1.5254,0.0,0.0,0.0,-1.4557,-1.4803,-1.5512,-1.5827,0.0,-1.6776,-1.7551,-1.8165,0.0,0.0,-2.0098,-2.0098,-2.0974,-2.1825,-2.1825,-2.2393,-2.3038,-2.3537,-2.3827,-2.4212,-2.4897,-2.5087,-2.5194,-2.5511,-2.5594,-2.5688,-2.5875,-2.591,-2.591,-2.591,-2.591,-2.591,0.0,-2.6097,-2.6201,-2.6201,-2.605,-2.6179,-2.6721,-2.7408,-2.8064,-2.8624,-2.9389,-2.9818,-2.983,-2.983,-2.983,-2.983,-2.9818,-2.9465,-2.8913,-2.8557,-2.8413,-2.8401,-2.8518,-2.8577,-2.8626,-2.9019,-2.9187,-2.9306,-2.988,-3.0192,-3.0432,-3.1392,-3.2006,-3.241,0.0,0.0,0.0,0.0,0.0,0.0,0.0,0.0,0.0,0.0,0.0,0.0,0.0,0.0,0.0,0.0,0.0,0.0,0.0,-1.1726,-1.2598,-1.3379,-1.4247,-1.4949,-1.5388,-1.5923,-1.6406,-1.6839,-1.7277,-1.7561,-1.7748,-1.7845,-1.7721,-1.7421,-1.7245,-1.6968,-1.6679,-1.647,-1.6099,-1.5601,-1.5546,-1.5133,-1.4588,-1.4272,-1.383,-1.333,0.0,0.0,0.0,0.0,0.0,-1.4603,-1.5318,-1.5653,-1.5991,-1.7184,-1.7712,-1.8119,0.0,0.0,-2.0437,-2.0826,-2.1812,-2.2696,-2.2696,-2.3246,-2.3697,-2.3536,-2.3665,-2.3781,-2.371,-2.3824,-2.3961,-2.4176,-2.451,-2.4841,-2.5117,-2.5491,-2.5758,-2.5875,-2.591,0.0,0.0,0.0,0.0,-2.598,-2.5945,-2.6304,-2.7201,-2.7447,-2.8001,-2.8901,-2.9201,-2.9339,-2.9339,-2.9339,-2.9339,-2.9339,-2.9339,-2.924,-2.9029,-2.8535,-2.8325,-2.8338,-2.8162,-2.8347,-2.8822,-2.9081,-2.9667,-3.0398,-3.0619,-3.0947,-3.142,-3.1896,-3.2583,-3.3358,0.0,0.0,0.0,0.0,0.0,0.0,0.0,0.0,0.0,0.0,0.0,0.0,0.0,0.0,0.0,0.0,0.0,0.0,0.0,0.0,-1.1601,-1.2365,-1.3076,-1.3688,-1.4188,-1.4672,-1.5154,-1.5639,-1.5859,-1.6162,-1.6467,-1.6456,-1.626,-1.5961,-1.5818,-1.5588,-1.5241,-1.5109,-1.4818,-1.4442,-1.4286,-1.3938,-1.3442,-1.3184,-1.2714,0.0,0.0,0.0,0.0,0.0,0.0,-1.3875,-1.4864,-1.5691,-1.6461,-1.7368,-1.8051,-1.8731,-1.9495,-2.0434,-2.1285,-2.1664,-2.2517,-2.3313,-2.3385,-2.3606,-2.3725,-2.3476,-2.3213,-2.2993,-2.2747,-2.2671,-2.2777,-2.3107,-2.3416,-2.3802,-2.4196,-2.4711,-2.5117,-2.5291,-2.5508,-2.5618,0.0,0.0,0.0,-2.5793,-2.5723,-2.6151,-2.7249,-2.7372,-2.7899,-2.8976,-2.9052,-2.9091,-2.9091,-2.9091,-2.9091,-2.9091,-2.9091,-2.9091,-2.9079,-2.8735,-2.8576,-2.8551,-2.8372,-2.8561,-2.91,-2.9341,-2.9922,-3.0685,-3.0911,-3.1248,-3.1646,-3.2253,-3.2946,-3.3679,0.0,0.0,0.0,0.0,0.0,0.0,0.0,0.0,0.0,0.0,0.0,0.0,0.0,0.0,0.0,0.0,0.0,0.0,0.0,0.0,0.0,-1.1318,-1.1776,-1.2378,-1.3148,-1.3068,-1.3403,-1.42,-1.4332,-1.4653,-1.5094,-1.5212,-1.5119,-1.4876,-1.4876,-1.4476,-1.3819,-1.3819,-1.3589,-1.3167,-1.279,-1.2641,-1.254,-1.1829,0.0,0.0,0.0,0.0,0.0,0.0,0.0,0.0,0.0,-1.5876,-1.7284,-1.7387,-1.8594,-1.9911,-1.9997,-2.1266,-2.2604,-2.259,-2.31,-2.3629,-2.379,-2.3442,-2.3103,-2.3234,-2.249,-2.1845,0.0,0.0,-2.1596,-2.2224,-2.2398,-2.2633,-2.3164,-2.3648,-2.4047,0.0,0.0,0.0,0.0,0.0,0.0,-2.5535,0.0,-2.5745,-2.6837,-2.7061,-2.7659,-2.8767,-2.8961,-2.9052,-2.9052,-2.9052,-2.9052,-2.9052,-2.9052,-2.9052,-2.9052,-2.9052,-2.9052,-2.9052,-2.9091,-2.9197,-2.938,-2.9663,-2.9895,-3.0164,-3.0749,-3.0988,-3.1204,-3.2511,-3.3203,-3.3555,0.0,0.0,0.0,0.0,0.0,0.0,0.0,0.0,0.0,0.0,0.0,0.0,0.0,0.0,0.0,0.0,0.0,0.0,0.0,0.0,0.0,0.0,0.0,0.0,0.0,0.0,0.0,0.0,-1.3003,-1.3304,-1.3716,-1.3594,-1.3423,-1.3208,-1.3166,-1.2945,-1.2628,-1.2586,-1.233,-1.1963,0.0,-1.1694,-1.1394,0.0,0.0,0.0,0.0,0.0,0.0,0.0,0.0,0.0,0.0,-1.6265,-1.7303,-1.8448,-1.9198,-1.9939,-2.1126,-2.19,-2.2462,-2.2802,-2.3136,-2.332,-2.3014,-2.2674,-2.2252,-2.1662,-2.0739,-1.9992,0.0,0.0,0.0,-1.9913,-2.0976,0.0,-2.2071,-2.2883,0.0,0.0,0.0,-2.4437,-2.4886,-2.4921,0.0,0.0,-2.5087,-2.5612,-2.6637,-2.6735,-2.7327,-2.8542,-2.863,-2.8669,-2.8669,-2.8669,-2.8669,-2.8669,-2.8669,-2.8669,-2.8669,-2.8669,-2.8669,-2.8657,-2.8803,-2.8922,-2.8988,-2.9353,-2.965,-2.9945,-3.0661,-3.1203,-3.1692,-3.263,-3.3587,-3.4496,0.0,0.0,0.0,0.0,0.0,0.0,0.0,0.0,0.0,0.0,0.0,0.0,0.0,0.0,0.0,0.0,0.0,0.0,0.0,0.0,0.0,0.0,0.0,0.0,0.0,0.0,0.0,0.0,0.0,0.0,-1.2061,-1.1893,-1.1694,-1.1497,-1.1462,-1.135,-1.1197,-1.1138,0.0,0.0,0.0,0.0,0.0,0.0,0.0,0.0,0.0,0.0,0.0,0.0,0.0,-1.4924,-1.5662,-1.6768,-1.7987,-1.8913,0.0,-2.0596,-2.1585,-2.2189,-2.2563,-2.2898,-2.2922,-2.2757,-2.2369,-2.1698,-2.0916,-2.0322,-1.907,0.0,0.0,0.0,0.0,0.0,0.0,0.0,-2.1012,-2.1836,-2.2579,0.0,-2.3593,0.0,-2.4402,-2.4648,-2.4754,0.0,-2.4849,-2.5407,-2.6399,-2.6458,-2.702,-2.8207,-2.8243,-2.8243,-2.8243,-2.8243,-2.8243,-2.8243,-2.8243,-2.8243,-2.8243,-2.8311,-2.8391,-2.8379,0.0,-2.8724,-2.8843,-2.9028,-2.9502,-3.005,-3.0588,-3.117,-3.1887,-3.2908,-3.3794,-3.4658,0.0,0.0,0.0,0.0,0.0,0.0,0.0,0.0,0.0,0.0,0.0,0.0,0.0,0.0,0.0,0.0,0.0,0.0,0.0,0.0,0.0,0.0,0.0,0.0,0.0,0.0,0.0,0.0,0.0,0.0,0.0,0.0,0.0,0.0,0.0,0.0,0.0,0.0,0.0,0.0,0.0,0.0,0.0,0.0,0.0,0.0,0.0,0.0,0.0,0.0,-1.3813,-1.5056,-1.5806,-1.7286,-1.879,-1.9132,-2.0281,-2.1455,-2.1702,-2.2242,-2.274,-2.2927,-2.2626,-2.2207,-2.1869,-2.0632,-1.9454,-1.904,0.0,-1.6147,-1.6103,0.0,-1.5955,-1.6896,0.0,-1.8445,-1.9858,-2.0602,-2.1282,-2.1941,-2.2878,-2.3584,-2.3828,-2.4366,-2.461,-2.4418,-2.4668,-2.5222,-2.6209,-2.6326,-2.6819,-2.7857,-2.7893,-2.7893,-2.7893,-2.7893,-2.7893,-2.7893,-2.7893,-2.7893,-2.7933,-2.807,-2.8179,-2.8179,-2.8391,-2.8578,-2.8724,-2.8864,-2.942,-3.0236,-3.0613,-3.1165,-3.1914,-3.3198,-3.391,-3.4353,0.0,0.0,0.0,0.0,0.0,0.0,0.0,0.0,0.0,0.0,-0.6538,0.0,0.0,0.0,0.0,0.0,0.0,0.0,0.0,0.0,0.0,0.0,0.0,0.0,0.0,0.0,0.0,0.0,0.0,0.0,0.0,0.0,0.0,0.0,0.0,0.0,0.0,0.0,0.0,0.0,0.0,0.0,0.0,0.0,0.0,0.0,0.0,0.0,0.0,0.0,-1.3402,-1.4778,-1.6327,-1.7495,-1.8524,-1.9674,-2.0674,-2.1492,-2.1918,-2.2376,-2.2703,-2.274,-2.2505,-2.2084,-2.1257,-1.9931,0.0,0.0,0.0,-1.4819,-1.4553,-1.4462,0.0,-1.5151,0.0,0.0,0.0,0.0,-2.0347,0.0,0.0,0.0,0.0,0.0,0.0,0.0,0.0,-2.5237,-2.603,-2.6485,-2.7088,-2.7869,-2.7893,-2.7893,-2.7893,-2.7893,-2.7893,-2.7893,-2.7893,-2.7893,-2.7893,-2.7921,-2.7962,-2.7962,-2.8139,0.0,-2.8363,-2.9157,-2.9549,-2.9854,-3.1174,-3.1834,-3.2264,-3.3547,-3.4184,-3.4502,0.0,0.0,0.0,0.0,0.0,0.0,0.0,0.0,0.0,0.0,-0.6538,-0.649,0.0,0.0,0.0,0.0,0.0,0.0,0.0,0.0,0.0,0.0,0.0,0.0,0.0,0.0,0.0,0.0,0.0,0.0,0.0,0.0,0.0,0.0,0.0,0.0,0.0,0.0,0.0,0.0,0.0,0.0,0.0,0.0,0.0,0.0,0.0,0.0,0.0,0.0,-1.2679,-1.4011,-1.6009,-1.743,-1.8649,-1.9839,-2.07,-2.1365,-2.1937,-2.2252,-2.2376,-2.2353,-2.1869,-2.1129,-2.0009,0.0,0.0,0.0,0.0,-1.2962,-1.2522,0.0,0.0,0.0,0.0,0.0,0.0,0.0,0.0,0.0,0.0,0.0,0.0,0.0,0.0,0.0,0.0,-2.5237,-2.5797,-2.6597,-2.718,-2.7505,-2.7557,-2.7557,-2.7557,-2.7557,-2.7557,-2.7557,-2.7557,-2.7557,-2.7557,-2.7626,-2.7696,-2.7696,-2.795,0.0,-2.8636,-2.909,-2.9716,-3.0523,-3.1259,-3.1925,-3.2564,-3.331,-3.3865,-3.4314,0.0,0.0,0.0,0.0,0.0,0.0,0.0,-0.5551,-0.6119,-0.6528,-0.653,-0.6499,-0.6481,-0.6379,-0.6281,0.0,0.0,0.0,0.0,0.0,0.0,0.0,0.0,0.0,0.0,0.0,0.0,0.0,0.0,0.0,0.0,0.0,0.0,0.0,0.0,0.0,0.0,0.0,0.0,0.0,0.0,0.0,0.0,0.0,0.0,0.0,0.0,0.0,0.0,0.0,-1.189,-1.303,-1.5125,-1.6868,-1.8397,-1.9549,-2.0339,-2.0964,-2.1569,-2.1769,-2.1787,-2.1746,-2.1094,-2.0116,-1.8901,-1.7146,0.0,0.0,-1.2522,-1.1458,-1.084,0.0,0.0,0.0,0.0,0.0,0.0,0.0,0.0,0.0,0.0,0.0,0.0,0.0,0.0,0.0,0.0,0.0,-2.5869,-2.6634,-2.7067,-2.7067,-2.7067,-2.7067,-2.7067,-2.7067,-2.7067,-2.7067,-2.7067,-2.7097,-2.7149,-2.729,-2.74,-2.7452,-2.7708,0.0,0.0,-2.9083,-2.993,-3.1082,-3.1277,-3.1853,-3.2581,-3.2939,-3.3411,-3.3949,0.0,0.0,0.0,0.0,0.0,0.0,0.0,-0.5871,-0.6528,-0.651,-0.65,-0.6481,-0.6411,-0.6343,-0.6281,0.0,0.0,0.0,0.0,0.0,0.0,0.0,0.0,0.0,0.0,0.0,0.0,0.0,0.0,0.0,0.0,0.0,0.0,0.0,0.0,0.0,0.0,0.0,0.0,0.0,0.0,0.0,0.0,0.0,0.0,0.0,0.0,0.0,0.0,0.0,0.0,-1.1844,-1.3575,-1.5351,-1.7073,-1.851,0.0,0.0,-2.0431,-2.0688,-2.082,-2.0814,-2.0384,-1.9706,-1.8671,0.0,0.0,-1.3347,-1.2191,-1.1238,-1.0332,-1.0217,-1.0558,0.0,0.0,0.0,0.0,0.0,0.0,0.0,0.0,0.0,0.0,0.0,0.0,0.0,0.0,0.0,-2.6453,-2.6588,-2.6644,-2.6644,-2.6644,-2.6644,-2.6644,-2.6644,-2.6644,-2.6644,-2.6644,-2.6768,-2.6933,-2.6933,-2.7056,-2.7219,-2.7452,0.0,0.0,-2.9343,-3.0076,-3.0656,-3.1583,-3.1989,-3.2169,-3.2853,-3.3154,-3.3326,0.0,0.0,0.0,0.0,0.0,0.0,0.0,-0.5585,-0.6166,-0.6463,-0.646,-0.6428,-0.6405,-0.6343,-0.6281,0.0,0.0,0.0,0.0,0.0,0.0,0.0,0.0,0.0,0.0,0.0,0.0,0.0,0.0,0.0,0.0,0.0,0.0,0.0,0.0,0.0,0.0,0.0,0.0,0.0,0.0,0.0,0.0,0.0,0.0,0.0,0.0,0.0,0.0,0.0,0.0,0.0,-1.2114,-1.3141,0.0,0.0,-1.8263,-1.8692,-1.9417,-1.9682,-1.9711,-1.9551,-1.8977,-1.8151,-1.6965,0.0,0.0,-1.1962,-1.086,-0.9972,-0.9327,-0.9421,-0.9748,0.0,0.0,0.0,0.0,0.0,0.0,0.0,0.0,0.0,0.0,0.0,0.0,0.0,0.0,0.0,-2.5322,-2.6146,-2.6603,-2.6603,-2.6603,-2.6603,-2.6603,-2.6603,-2.6603,-2.6603,-2.6603,-2.6644,-2.6727,-2.6727,-2.6768,-2.6862,-2.7352,0.0,0.0,-2.9495,-3.0185,-3.0856,-3.1368,-3.1673,-3.1893,-3.2288,-3.2723,-3.3167,0.0,0.0,0.0,0.0,0.0,0.0,-0.4609,-0.5257,-0.5829,-0.6183,-0.6331,-0.6396,-0.6379,-0.6317,-0.6242,-0.6177,0.0,0.0,0.0,0.0,0.0,0.0,0.0,0.0,0.0,0.0,0.0,-0.6697,-0.7169,0.0,0.0,0.0,0.0,0.0,0.0,0.0,0.0,0.0,0.0,0.0,0.0,0.0,0.0,0.0,0.0,0.0,0.0,0.0,0.0,0.0,0.0,0.0,0.0,0.0,0.0,0.0,-1.6833,-1.7119,-1.8061,-1.831,-1.8269,-1.8082,-1.7457,-1.6616,0.0,0.0,-1.2332,-1.1064,-0.9901,-0.8988,-0.8666,-0.8764,-0.8967,-0.9219,0.0,0.0,0.0,0.0,0.0,0.0,0.0,0.0,0.0,0.0,0.0,0.0,0.0,0.0,-2.4264,-2.5352,-2.6022,-2.6166,-2.6177,-2.6177,-2.6177,-2.6177,-2.6218,-2.6313,-2.6313,-2.6354,-2.6479,-2.6479,-2.652,-2.6625,-2.7234,0.0,0.0,-2.945,-3.018,-3.0916,-3.1139,-3.1362,-3.1617,-3.1849,-3.2288,-3.281,0.0,0.0,0.0,0.0,0.0,0.0,0.0,-0.5017,-0.5686,-0.5616,-0.6071,-0.6379,-0.6308,-0.6242,-0.6177,-0.6104,0.0,0.0,0.0,0.0,0.0,0.0,0.0,0.0,0.0,0.0,-0.6234,-0.6697,-0.7169,-0.7641,-0.8098,0.0,0.0,0.0,0.0,0.0,0.0,0.0,0.0,0.0,0.0,0.0,0.0,0.0,0.0,0.0,0.0,0.0,0.0,0.0,0.0,0.0,0.0,0.0,0.0,0.0,-1.5028,-1.5225,-1.6184,-1.6433,-1.6433,-1.6423,-1.5903,-1.5313,0.0,0.0,-1.1948,-1.0987,-0.9628,-0.86,-0.86,-0.8222,-0.8197,-0.9059,-0.96,0.0,0.0,0.0,0.0,0.0,0.0,0.0,0.0,0.0,0.0,0.0,0.0,0.0,-2.3767,-2.4253,-2.4711,-2.5179,-2.52,-2.52,-2.52,-2.52,-2.5338,-2.5601,-2.5601,-2.5812,-2.6199,-2.6199,-2.6354,-2.6625,0.0,0.0,0.0,-2.9198,-2.9958,-3.0623,-3.0883,-3.1139,-3.135,-3.1617,-3.1849,-3.2069,0.0,0.0,0.0,0.0,0.0,0.0,0.0,-0.4316,-0.4669,-0.5008,-0.5486,-0.578,-0.5755,-0.5983,-0.5992,-0.5648,0.0,0.0,0.0,0.0,0.0,0.0,0.0,0.0,0.0,0.0,-0.655,-0.7379,-0.7541,-0.805,-0.8921,-0.8921,-0.8735,0.0,0.0,0.0,0.0,0.0,0.0,0.0,0.0,0.0,0.0,0.0,0.0,0.0,0.0,0.0,0.0,0.0,0.0,0.0,0.0,0.0,0.0,0.0,0.0,0.0,-1.4242,-1.449,-1.449,-1.449,-1.4143,-1.3626,-1.289,0.0,-1.0848,-0.9956,-0.8898,-0.8224,-0.8535,-0.8171,-0.8023,-0.8621,-0.9349,0.0,0.0,0.0,0.0,0.0,0.0,0.0,0.0,0.0,0.0,0.0,0.0,0.0,-2.3355,-2.3814,-2.4441,-2.5179,-2.52,-2.52,-2.52,-2.52,-2.5242,-2.5338,-2.5338,-2.5369,-2.5506,-2.5506,-2.5675,0.0,0.0,0.0,0.0,-2.906,-2.9727,-3.0148,-3.0363,-3.0589,-3.0847,-3.1139,-3.1362,-3.1572,0.0,0.0,0.0,0.0,0.0,0.0,0.0,-0.3865,-0.4106,-0.4419,-0.4897,-0.5187,-0.5157,-0.5387,-0.5406,-0.5084,0.0,0.0,0.0,0.0,0.0,0.0,0.0,0.0,0.0,-0.6136,-0.6721,-0.7689,-0.7689,-0.8251,-0.9299,-0.9299,-0.9123,-0.8792,-0.8617,0.0,0.0,0.0,0.0,0.0,0.0,0.0,-0.6141,0.0,0.0,0.0,0.0,0.0,0.0,0.0,0.0,0.0,0.0,0.0,0.0,0.0,-1.006,0.0,0.0,-1.2584,-1.2584,-1.2584,-1.2318,0.0,0.0,0.0,-0.9912,-0.9366,-0.8518,-0.801,-0.8485,-0.8115,-0.7965,-0.8588,-0.9303,0.0,0.0,0.0,0.0,0.0,0.0,0.0,0.0,0.0,0.0,0.0,0.0,0.0,-2.2664,-2.3125,-2.369,-2.4419,-2.4777,-2.4956,-2.4956,-2.4956,-2.4988,-2.5073,-2.5073,-2.5115,-2.52,-2.52,-2.5285,0.0,0.0,0.0,0.0,-2.8775,-2.9451,-2.9783,-2.9909,-3.017,-3.0487,-3.0646,-3.0916,-3.1229,0.0,0.0,0.0,0.0,0.0,0.0,0.0,0.0,0.0,0.0,-0.431,-0.4624,-0.4551,-0.4572,-0.4552,0.0,0.0,0.0,0.0,0.0,0.0,0.0,0.0,0.0,0.0,-0.603,-0.6782,-0.7723,-0.7723,-0.8263,-0.9326,-0.9326,-0.9326,-0.9302,-0.8857,-0.8347,-0.7741,-0.6732,-0.6295,-0.6295,-0.6307,-0.6263,0.0,0.0,0.0,0.0,0.0,0.0,0.0,0.0,0.0,0.0,0.0,0.0,0.0,0.0,0.0,0.0,0.0,0.0,0.0,0.0,0.0,0.0,0.0,0.0,0.0,-0.9137,-0.8416,-0.7943,-0.8402,-0.808,-0.8023,-0.8862,0.0,0.0,0.0,0.0,0.0,0.0,0.0,0.0,0.0,0.0,0.0,0.0,0.0,0.0,-2.1849,-2.2291,-2.2734,-2.3187,-2.4004,-2.4454,-2.4454,-2.4454,-2.4572,-2.4818,-2.4818,-2.4903,-2.5115,-2.5115,-2.5115,0.0,0.0,0.0,0.0,-2.8364,-2.9024,-2.9439,-2.9439,-2.976,-3.017,-3.017,-3.0454,-3.0927,0.0,0.0,0.0,0.0,0.0,0.0,0.0,0.0,0.0,0.0,-0.3786,-0.4078,-0.4061,-0.4333,-0.4376,0.0,0.0,0.0,0.0,0.0,0.0,0.0,0.0,0.0,0.0,-0.6106,-0.6904,-0.8012,-0.7957,-0.8477,-0.9538,-0.9472,-0.9458,-0.9445,-0.934,-0.8753,-0.7806,-0.6751,-0.6295,-0.6307,-0.6305,-0.626,0.0,0.0,0.0,0.0,-0.592,-0.5865,0.0,0.0,0.0,0.0,0.0,0.0,0.0,0.0,-0.7131,-0.7307,-0.8094,0.0,-0.9839,-0.9839,-0.9764,0.0,0.0,0.0,0.0,0.0,0.0,0.0,0.0,0.0,0.0,0.0,0.0,0.0,0.0,0.0,0.0,0.0,0.0,0.0,0.0,0.0,0.0,0.0,0.0,-2.1406,-2.1849,-2.2291,-2.2734,-2.3187,-2.3705,-2.397,-2.397,-2.397,-2.4013,-2.4057,-2.4057,-2.409,-2.4133,-2.4133,-2.4229,0.0,0.0,0.0,-2.6645,-2.7754,-2.8513,-2.8978,-2.8978,-2.9255,-2.9669,-2.9669,-2.9863,-3.0159,0.0,0.0,0.0,0.0,0.0,0.0,0.0,0.0,0.0,0.0,0.0,0.0,0.0,0.0,0.0,0.0,0.0,0.0,0.0,0.0,0.0,0.0,0.0,0.0,-0.5218,-0.5751,-0.6715,-0.81,-0.8056,-0.8583,-0.9604,-0.9564,-0.9525,-0.9486,-0.8982,-0.8441,-0.7839,-0.676,-0.6295,-0.6307,-0.6296,0.0,0.0,0.0,0.0,0.0,-0.592,-0.5856,0.0,-0.572,-0.5682,-0.5677,0.0,0.0,0.0,0.0,-0.6478,-0.6623,-0.7317,-0.8028,-0.8622,-0.8854,-0.8906,-0.886,0.0,0.0,0.0,0.0,0.0,0.0,0.0,0.0,0.0,0.0,0.0,0.0,0.0,0.0,0.0,0.0,0.0,0.0,0.0,0.0,0.0,0.0,0.0,-2.1034,-2.1273,-2.166,-2.1966,-2.2152,-2.2742,-2.3295,-2.3797,-2.3797,-2.3797,-2.3797,-2.3797,-2.3797,-2.3797,-2.3797,-2.3884,0.0,0.0,0.0,-2.6184,-2.7253,-2.7998,-2.8466,-2.8571,-2.885,-2.9209,-2.9255,-2.9497,-2.9737,0.0,0.0,0.0,0.0,0.0,0.0,0.0,0.0,0.0,0.0,0.0,0.0,0.0,0.0,0.0,0.0,0.0,0.0,0.0,0.0,0.0,0.0,0.0,-0.4334,-0.4799,-0.5423,-0.6518,-0.8133,-0.8122,-0.863,-0.9605,-0.9604,-0.9528,-0.9342,-0.8345,-0.7863,-0.7708,-0.6724,-0.6307,-0.6298,-0.6287,0.0,0.0,0.0,0.0,0.0,0.0,0.0,0.0,-0.5678,-0.5653,-0.5595,-0.5521,0.0,0.0,0.0,0.0,0.0,-0.7141,-0.739,-0.7524,-0.8077,-0.8201,-0.8222,-0.8294,0.0,0.0,0.0,0.0,0.0,0.0,0.0,0.0,0.0,0.0,0.0,0.0,0.0,0.0,0.0,0.0,0.0,0.0,0.0,0.0,0.0,0.0,-2.0605,-2.0566,-2.0947,-2.106,-2.0849,-2.1627,-2.2502,-2.3371,-2.3511,-2.358,-2.358,-2.358,-2.358,-2.358,-2.358,-2.358,-2.363,0.0,0.0,-2.5766,-2.6749,-2.7426,-2.7904,-2.8207,-2.8488,-2.8757,-2.8943,-2.9174,-2.9497,0.0,0.0,0.0,0.0,0.0,0.0,0.0,0.0,0.0,0.0,0.0,0.0,0.0,0.0,0.0,0.0,0.0,0.0,0.0,0.0,0.0,0.0,-0.4145,-0.4738,-0.4889,-0.5848,-0.6982,-0.8266,-0.8209,-0.87,-0.9684,-0.9618,-0.9323,-0.879,-0.8176,-0.7648,-0.7181,-0.6568,-0.6302,-0.6299,-0.623,0.0,0.0,0.0,0.0,0.0,0.0,0.0,0.0,-0.5504,-0.5614,-0.5595,-0.5521,0.0,0.0,0.0,0.0,0.0,-0.6665,-0.6902,-0.7121,-0.7994,-0.8201,-0.8305,-0.8699,0.0,0.0,0.0,0.0,0.0,0.0,0.0,0.0,0.0,0.0,0.0,0.0,0.0,0.0,0.0,0.0,0.0,0.0,0.0,0.0,0.0,0.0,-2.0527,-2.0342,-2.0738,-2.0849,-2.0657,-2.1113,-2.144,-2.1581,-2.2255,-2.2608,-2.2608,-2.2608,-2.2608,-2.2608,-2.2608,-2.2608,-2.2681,0.0,-2.4274,-2.4796,-2.5888,-2.6795,-2.7441,-2.7641,-2.8019,-2.8488,-2.8488,-2.8757,-2.9266,0.0,0.0,0.0,0.0,0.0,0.0,0.0,0.0,0.0,0.0,0.0,0.0,0.0,0.0,0.0,0.0,0.0,0.0,0.0,0.0,0.0,-0.3254,-0.4282,-0.4869,-0.4902,-0.5707,-0.6828,-0.8298,-0.8264,-0.8758,-0.9697,-0.9591,-0.9249,-0.867,-0.814,-0.7601,-0.7065,-0.6529,-0.6287,-0.6242,0.0,0.0,0.0,0.0,0.0,0.0,0.0,0.0,0.0,0.0,-0.5393,-0.5595,-0.5521,0.0,0.0,0.0,0.0,0.0,-0.6562,-0.6775,-0.6964,-0.7914,-0.8369,-0.8637,-0.8844,0.0,0.0,0.0,0.0,0.0,0.0,0.0,0.0,0.0,0.0,0.0,0.0,0.0,0.0,0.0,0.0,0.0,0.0,0.0,0.0,0.0,0.0,0.0,-2.0108,-2.024,-2.0275,-2.0085,-2.0357,-2.0439,-2.0347,-2.082,-2.1398,-2.2066,-2.2293,-2.2397,-2.2397,-2.2397,-2.2397,-2.246,0.0,-2.368,-2.4186,-2.5215,-2.6027,-2.6759,-2.7253,-2.7726,-2.8243,-2.8617,-2.8989,-2.9393,0.0,0.0,0.0,0.0,0.0,0.0,0.0,0.0,0.0,0.0,0.0,0.0,0.0,0.0,0.0,0.0,0.0,0.0,0.0,0.0,-0.3254,-0.3318,-0.4358,-0.4915,-0.4915,-0.5617,-0.6754,-0.8298,-0.8298,-0.8783,-0.9697,-0.9431,-0.903,-0.8489,-0.7948,-0.7412,-0.688,-0.6456,-0.6242,-0.6177,0.0,0.0,0.0,0.0,0.0,0.0,0.0,0.0,0.0,0.0,0.0,0.0,0.0,0.0,0.0,-0.5502,-0.5502,-0.5681,-0.6539,-0.6737,-0.6945,-0.7962,0.0,-0.8875,-0.9091,0.0,0.0,0.0,0.0,0.0,0.0,0.0,0.0,0.0,0.0,0.0,0.0,0.0,0.0,0.0,0.0,0.0,0.0,0.0,0.0,0.0,0.0,0.0,-1.9824,-1.9784,-1.9666,-1.9487,-1.9551,-1.9543,-1.9403,-1.9633,-2.0334,-2.1491,-2.1798,-2.1994,-2.2078,-2.2132,-2.2176,-2.2195,-2.2648,-2.3162,-2.3712,-2.4609,-2.5394,-2.618,-2.6934,-2.7536,-2.8081,-2.8839,-2.9255,-2.9577,0.0,0.0,0.0,0.0,0.0,0.0,0.0,0.0,0.0,0.0,0.0,0.0,0.0,0.0,0.0,0.0,0.0,0.0,0.0,0.0,-0.3327,-0.3391,-0.4421,-0.4997,-0.4997,-0.6014,-0.7122,-0.8298,-0.8298,-0.8783,-0.9685,-0.9057,-0.8477,-0.7936,-0.74,-0.6856,-0.6349,-0.6254,-0.6168,-0.6104,-0.6095,0.0,0.0,0.0,0.0,0.0,0.0,0.0,0.0,0.0,0.0,0.0,0.0,0.0,-0.5502,-0.5502,-0.5502,-0.5671,-0.648,-0.6711,-0.7004,-0.8258,-0.8586,0.0,-0.9644,-1.019,0.0,0.0,0.0,0.0,0.0,0.0,0.0,0.0,0.0,0.0,0.0,0.0,0.0,0.0,0.0,0.0,0.0,0.0,0.0,0.0,0.0,0.0,-1.9645,-1.9429,-1.9271,-1.9042,-1.8878,-1.8785,-1.8776,-1.9158,-1.9778,-2.0578,-2.0605,-2.0802,-2.1132,-2.1338,-2.1482,-2.1491,-2.1956,-2.2537,-2.324,-2.4159,-2.5043,-2.592,-2.6622,-2.7357,-2.8081,-2.8839,-2.9255,-2.9577,0.0,0.0,0.0,0.0,0.0,0.0,0.0,0.0,0.0,0.0,0.0,0.0,0.0,0.0,0.0,0.0,0.0,0.0,0.0,0.0,-0.3374,-0.34,-0.4108,-0.4662,-0.4991,-0.6051,-0.6975,-0.7741,-0.8025,-0.8343,-0.8631,-0.8297,-0.788,-0.74,-0.7156,-0.6717,-0.617,-0.615,-0.6093,-0.6013,-0.5714,-0.5484,0.0,0.0,0.0,0.0,0.0,0.0,0.0,0.0,-0.4421,-0.4915,-0.4989,-0.521,-0.5436,-0.5388,-0.5377,-0.5562,-0.6412,-0.6607,-0.689,-0.8219,-0.8882,0.0,0.0,-1.0664,0.0,0.0,0.0,0.0,0.0,0.0,0.0,0.0,0.0,0.0,0.0,0.0,0.0,0.0,0.0,0.0,0.0,0.0,0.0,0.0,0.0,0.0,-1.924,-1.9152,-1.9002,-1.8812,-1.8612,-1.8523,-1.8523,-1.851,-1.8889,-1.9696,-2.0245,-2.0687,-2.0997,-2.1096,-2.1248,-2.1392,-2.1571,-2.2056,-2.2706,-2.336,-2.4333,-2.5593,-2.7009,-2.7762,-2.8092,-2.9024,-2.9393,-2.9623,0.0,0.0,0.0,0.0,0.0,0.0,0.0,0.0,0.0,0.0,0.0,0.0,0.0,0.0,0.0,0.0,0.0,0.0,-0.3404,-0.3417,-0.3434,-0.3434,-0.3924,-0.4376,-0.4745,-0.5612,-0.6503,-0.7406,-0.7851,-0.8044,-0.7999,-0.7711,-0.7395,-0.7051,-0.6814,-0.6476,-0.6066,-0.6068,-0.5949,-0.5722,-0.5401,-0.507,0.0,0.0,0.0,0.0,0.0,0.0,0.0,0.0,-0.3923,-0.4493,-0.4648,-0.492,-0.5195,-0.527,-0.5301,-0.5482,-0.6343,-0.6523,-0.6816,0.0,0.0,0.0,-1.0743,-1.1377,0.0,0.0,0.0,0.0,0.0,0.0,0.0,0.0,0.0,0.0,0.0,0.0,0.0,0.0,0.0,0.0,0.0,0.0,0.0,0.0,0.0,0.0,0.0,-1.8843,-1.8763,-1.8612,-1.8402,-1.8273,-1.8273,-1.8072,-1.8417,-1.9222,-1.9783,-2.0342,-2.0772,-2.0862,-2.1051,-2.1293,-2.1347,-2.1785,-2.2426,-2.2896,-2.3994,-2.5542,-2.7316,-2.7998,-2.8128,-2.9117,-2.9485,-2.9623,0.0,0.0,0.0,0.0,0.0,0.0,0.0,0.0,0.0,0.0,0.0,0.0,0.0,0.0,0.0,0.0,0.0,0.0,-0.3399,-0.3458,-0.3505,-0.3505,-0.3941,-0.4197,-0.4197,-0.4658,-0.5712,-0.7381,-0.7786,-0.7978,-0.7966,-0.7362,-0.7051,-0.6963,-0.6362,-0.6057,-0.6,-0.5995,-0.5687,-0.5203,-0.5203,-0.46,-0.3702,0.0,0.0,0.0,0.0,0.0,0.0,0.0,-0.3494,-0.3639,-0.4434,0.0,-0.4771,-0.5179,-0.5301,-0.5472,-0.6273,-0.6445,0.0,0.0,0.0,0.0,0.0,0.0,0.0,0.0,0.0,0.0,0.0,0.0,0.0,0.0,0.0,0.0,0.0,0.0,0.0,0.0,0.0,0.0,0.0,0.0,0.0,0.0,0.0,0.0,0.0,-1.8523,-1.8402,-1.8402,-1.8161,-1.8,-1.8,-1.8,-1.8425,-1.9222,-1.9222,-1.9573,-2.0292,-2.0564,-2.0826,-2.0997,-2.1293,-2.1785,-2.2426,-2.2896,-2.4159,-2.5956,-2.7432,-2.7998,-2.8128,-2.9117,-2.9485,-2.9623,0.0,0.0,0.0,0.0,0.0,0.0,0.0,0.0,0.0,0.0,0.0,0.0,0.0,0.0,0.0,0.0,0.0,0.0,-0.3415,-0.3487,-0.3505,-0.3505,-0.3585,-0.3817,-0.4197,-0.4609,-0.5066,-0.557,-0.6022,-0.6215,-0.6174,-0.6326,-0.6362,-0.6292,-0.611,-0.5995,-0.5927,-0.5929,-0.565,-0.5161,-0.4784,-0.4262,-0.3658,0.0,0.0,0.0,0.0,0.0,0.0,0.0,0.0,0.0,-0.3654,0.0,-0.4574,-0.4647,-0.4865,-0.5271,-0.6076,0.0,0.0,0.0,0.0,0.0,0.0,0.0,0.0,0.0,0.0,0.0,0.0,0.0,0.0,0.0,0.0,0.0,0.0,0.0,0.0,0.0,0.0,0.0,0.0,0.0,0.0,0.0,0.0,0.0,0.0,-1.8442,-1.8313,-1.8121,-1.804,-1.8119,-1.8425,-1.8425,-1.8811,-1.9529,-1.9529,-1.9829,-2.0292,-2.0382,-2.0645,-2.0997,-2.1096,-2.1588,-2.2489,-2.399,-2.491,-2.5532,-2.7306,-2.7998,-2.8092,-2.8932,-2.9347,-2.9577,0.0,0.0,0.0,0.0,0.0,0.0,0.0,0.0,0.0,0.0,0.0,0.0,0.0,0.0,0.0,0.0,0.0,0.0,0.0,-0.3498,-0.3487,-0.3458,-0.3417,-0.3527,-0.3799,-0.4041,-0.4154,-0.4125,-0.4831,-0.5245,-0.5367,-0.5656,-0.5846,-0.5964,-0.5968,-0.5922,-0.5845,-0.5662,-0.5296,-0.4794,-0.4288,-0.3788,-0.3314,0.0,0.0,0.0,0.0,0.0,0.0,0.0,0.0,0.0,-0.323,0.0,0.0,-0.432,-0.4572,-0.4971,-0.5937,0.0,0.0,0.0,0.0,0.0,0.0,0.0,0.0,0.0,0.0,0.0,0.0,0.0,0.0,0.0,0.0,0.0,0.0,0.0,0.0,0.0,0.0,0.0,0.0,0.0,0.0,0.0,0.0,0.0,0.0,-1.8241,-1.8221,-1.8254,-1.8254,-1.8434,-1.8819,-1.8819,-1.9127,-1.97,-1.97,-1.9896,-2.0292,-2.0292,-2.0555,-2.1042,-2.1401,-2.19,-2.2533,-2.4212,-2.5018,-2.534,-2.6972,-2.7791,-2.8092,-2.8746,-2.9128,-2.9393,0.0,0.0,0.0,0.0,0.0,0.0,0.0,0.0,0.0,0.0,0.0,0.0,0.0,0.0,0.0,0.0,0.0,0.0,0.0,0.0,-0.3358,-0.3403,-0.34,-0.3332,-0.3199,-0.3195,-0.316,-0.3096,-0.4114,-0.4836,-0.5227,-0.5273,-0.5509,-0.5893,-0.5893,-0.5856,-0.576,-0.5291,-0.4782,-0.425,-0.3781,-0.3272,-0.2802,-0.2802,0.0,0.0,0.0,0.0,0.0,0.0,0.0,0.0,-0.3053,-0.3163,-0.3337,-0.4107,-0.4356,-0.4631,0.0,0.0,0.0,0.0,0.0,0.0,0.0,0.0,0.0,0.0,0.0,0.0,0.0,0.0,0.0,0.0,0.0,0.0,0.0,0.0,0.0,0.0,0.0,0.0,0.0,0.0,0.0,0.0,0.0,0.0,0.0,-1.8,-1.8162,-1.8579,-1.8588,-1.8793,-1.9222,-1.9273,-1.9418,-1.9751,-1.9751,-1.9966,-2.0292,-2.0337,-2.06,-2.1087,-2.1989,-2.2397,-2.2514,-2.388,-2.4711,-2.526,-2.6443,-2.7277,-2.7917,-2.844,-2.8718,-2.8949,0.0,0.0,0.0,0.0,0.0,0.0,0.0,0.0,0.0,0.0,0.0,0.0,0.0,0.0,0.0,0.0,0.0,0.0,0.0,0.0,-0.2475,-0.336,-0.3353,-0.328,-0.3199,-0.3145,-0.3117,-0.3096,-0.3699,-0.4232,-0.4676,-0.5043,-0.5439,-0.583,-0.583,-0.5784,-0.5687,-0.5217,-0.4716,-0.4184,-0.3714,-0.3234,-0.2802,-0.2802,-0.2807,0.0,0.0,0.0,0.0,0.0,0.0,0.0,-0.2705,-0.2875,-0.3137,-0.3626,-0.3954,-0.4419,0.0,0.0,0.0,0.0,0.0,0.0,0.0,0.0,0.0,0.0,0.0,0.0,0.0,0.0,0.0,0.0,0.0,0.0,0.0,0.0,0.0,0.0,0.0,0.0,0.0,0.0,0.0,0.0,0.0,0.0,-1.8,-1.8,-1.8162,-1.8579,-1.8588,-1.8922,-1.9571,-1.9571,-1.9804,0.0,-2.0172,-2.0215,-2.0292,-2.0518,-2.0888,-2.1338,-2.2087,-2.2397,-2.2514,-2.3747,-2.4441,-2.474,-2.5764,-2.6365,-2.6697,-2.7024,-2.7284,-2.7442,0.0,0.0,0.0,0.0,0.0,0.0,0.0,0.0,0.0,0.0,0.0,0.0,0.0,0.0,0.0,0.0,0.0,0.0,0.0,0.0,0.0,-0.331,-0.3289,-0.3236,-0.3197,-0.3127,-0.3096,-0.3096,-0.3315,-0.3777,-0.4453,-0.4709,-0.5166,-0.5802,-0.5765,-0.5739,-0.5649,-0.4921,-0.4458,-0.4135,-0.3441,-0.3021,-0.2802,-0.2802,-0.2802,-0.2798,-0.276,0.0,0.0,0.0,0.0,0.0,0.0,0.0,-0.2789,-0.3154,-0.3509,-0.4026,0.0,0.0,0.0,0.0,0.0,0.0,0.0,0.0,0.0,0.0,0.0,0.0,0.0,0.0,0.0,0.0,0.0,0.0,0.0,0.0,0.0,0.0,0.0,0.0,0.0,0.0,0.0,0.0,0.0,-1.7716,-1.7716,-1.7716,-1.7926,-1.8455,-1.8608,-1.9024,-1.9691,-1.987,-2.0103,-2.0292,-2.0292,-2.0419,-2.0645,-2.0781,-2.106,-2.1437,-2.2008,-2.2309,-2.2451,-2.33,-2.3925,-2.4401,-2.498,-2.5519,-2.5986,-2.6121,-2.6301,-2.6525,0.0,0.0,0.0,0.0,0.0,0.0,0.0,0.0,0.0,0.0,0.0,0.0,0.0,0.0,0.0,0.0,0.0,0.0,0.0,0.0,0.0,-0.3247,-0.3229,-0.3205,-0.3199,-0.313,-0.3096,-0.3096,-0.3035,0.0,0.0,0.0,0.0,-0.5774,-0.5729,-0.5682,-0.561,-0.4694,-0.4258,-0.4103,-0.3244,-0.2853,-0.2759,-0.2759,-0.2759,-0.276,-0.2708,-0.268,-0.2675,-0.2622,0.0,0.0,0.0,0.0,-0.2445,-0.2787,-0.3108,-0.3613,0.0,0.0,0.0,0.0,0.0,0.0,0.0,0.0,0.0,0.0,0.0,0.0,0.0,0.0,0.0,0.0,0.0,0.0,0.0,0.0,0.0,0.0,0.0,0.0,0.0,0.0,0.0,0.0,0.0,-1.7392,-1.7392,-1.7392,-1.7639,-1.8221,-1.8532,-1.8987,-1.9647,-1.9999,-2.0187,-2.0292,-2.0292,-2.051,-2.0952,-2.0997,-2.1186,-2.1482,-2.1928,-2.2185,-2.2397,-2.2784,-2.3403,-2.4049,-2.4172,-2.466,-2.5253,-2.5253,-2.5343,-2.5488,0.0,0.0,0.0,0.0,0.0,0.0,0.0,0.0,0.0,0.0,0.0,0.0,0.0,0.0,0.0,0.0,0.0,0.0,-0.0215,0.0,0.0,-0.3212,-0.3203,-0.3205,-0.3199,-0.313,-0.3096,-0.3096,0.0,0.0,0.0,0.0,0.0,-0.5711,0.0,-0.5635,-0.5489,-0.4947,-0.4484,-0.4068,-0.3534,-0.3041,-0.2631,-0.2631,-0.2631,-0.2626,-0.2616,-0.2617,-0.2612,-0.2603,-0.2519,0.0,0.0,0.0,-0.2381,-0.2712,-0.3006,0.0,0.0,0.0,0.0,0.0,0.0,0.0,0.0,0.0,0.0,0.0,0.0,0.0,0.0,0.0,0.0,0.0,0.0,0.0,0.0,0.0,0.0,0.0,0.0,0.0,0.0,0.0,0.0,0.0,-1.7259,-1.7392,-1.7392,-1.7392,-1.7598,-1.8037,-1.8078,-1.8521,-1.9409,-1.9512,-1.9788,-2.0292,-2.0292,-2.0473,-2.0744,-2.0907,-2.123,-2.1696,-2.1963,-2.2097,-2.2141,-2.2397,-2.2779,-2.3232,-2.3266,-2.3491,-2.3759,-2.3759,-2.3672,-2.3442,0.0,0.0,0.0,0.0,0.0,0.0,0.0,0.0,0.0,0.0,0.0,0.0,0.0,0.0,0.0,0.0,0.0,0.0,0.0,-0.1413,-0.2535,-0.3168,-0.3158,-0.314,-0.3139,-0.2564,-0.2523,-0.3049,0.0,0.0,0.0,-0.4324,-0.4788,0.0,0.0,0.0,0.0,-0.4959,-0.46,-0.4337,-0.3866,-0.3542,-0.3322,-0.3281,-0.3247,-0.3183,-0.2958,-0.2884,-0.2842,-0.2576,-0.2446,-0.2387,-0.2362,0.0,0.0,0.0,0.0,0.0,0.0,0.0,0.0,0.0,0.0,0.0,0.0,0.0,0.0,0.0,0.0,0.0,0.0,0.0,0.0,0.0,0.0,0.0,0.0,0.0,0.0,0.0,0.0,0.0,0.0,0.0,0.0,0.0,-1.6206,-1.6444,-1.6557,-1.6741,-1.7048,-1.7491,-1.7662,-1.8051,-1.8614,-1.8918,-1.9387,-1.9984,-1.9984,-2.023,-2.0699,-2.0781,-2.1105,-2.1517,-2.1785,-2.1963,-2.2097,-2.2185,-2.2397,-2.2696,-2.2696,-2.2706,-2.2715,-2.2715,-2.2485,-2.2113,0.0,0.0,0.0,0.0,0.0,0.0,0.0,0.0,0.0,0.0,0.0,0.0,0.0,0.0,0.0,0.0,0.0,0.0,0.0,-0.0704,-0.1731,-0.309,-0.3117,-0.3105,-0.3126,-0.2128,-0.1921,0.0,0.0,0.0,-0.4372,-0.4237,-0.4691,0.0,-0.553,0.0,0.0,0.0,0.0,0.0,0.0,-0.3942,-0.3816,-0.377,-0.3709,-0.3611,-0.3314,-0.3208,-0.3145,-0.278,-0.2584,-0.2495,-0.2424,-0.2294,0.0,0.0,0.0,0.0,0.0,0.0,0.0,0.0,0.0,0.0,0.0,0.0,0.0,0.0,0.0,0.0,0.0,0.0,0.0,0.0,0.0,0.0,0.0,0.0,0.0,0.0,0.0,0.0,0.0,0.0,0.0,0.0,-1.5302,-1.5525,-1.5668,-1.6002,-1.6392,-1.6798,-1.7103,-1.7495,-1.7878,-1.8513,-1.9013,-1.9467,-1.9554,-1.9832,-2.0322,-2.0358,-2.0589,-2.0917,-2.1328,-2.1642,-2.182,-2.182,-2.1954,-2.2132,-2.2078,-2.1945,-2.183,-2.1687,-2.132,-2.0853,0.0,0.0,0.0,0.0,0.0,0.0,0.0,0.0,0.0,0.0,0.0,0.0,-0.1432,-0.1332,-0.0964,-0.0076,0.0,0.0,0.0,-0.0045,-0.0956,-0.2928,-0.3072,0.0,-0.3194,-0.2143,-0.1566,0.0,0.0,0.0,-0.4307,-0.417,-0.4575,-0.5427,-0.5473,-0.5388,-0.5215,0.0,0.0,0.0,0.0,0.0,0.0,0.0,0.0,0.0,0.0,-0.3485,-0.3461,-0.3374,-0.3096,-0.2766,-0.2701,-0.2415,-0.2089,0.0,0.0,0.0,0.0,0.0,0.0,0.0,0.0,0.0,0.0,0.0,0.0,0.0,0.0,0.0,0.0,0.0,0.0,0.0,0.0,0.0,0.0,0.0,0.0,0.0,0.0,0.0,0.0,0.0,0.0,0.0,-1.495,-1.5141,-1.5134,-1.5463,-1.5759,-1.5943,-1.6279,-1.683,-1.7626,-1.8385,-1.88,-1.886,-1.9118,-1.9256,-1.9273,-1.9479,-1.9599,-1.9642,-2.0634,-2.1042,-2.1042,-2.1042,-2.1186,-2.1437,-2.1186,-2.1087,-2.0997,-2.0555,-2.0048,-1.9484,0.0,0.0,0.0,0.0,0.0,0.0,0.0,0.0,0.0,0.0,0.0,0.0,0.0,-0.2299,-0.2181,-0.1886,-0.1274,-0.0639,-0.0043,-0.1204,-0.167,-0.11,-0.233,-0.3044,-0.3074,-0.1434,0.0,0.0,0.0,-0.3211,-0.3852,-0.3981,-0.4319,-0.4835,-0.5162,-0.5214,-0.5068,-0.5068,0.0,0.0,0.0,0.0,0.0,0.0,0.0,0.0,0.0,0.0,0.0,-0.3773,-0.3492,-0.3288,-0.2742,-0.2444,-0.2227,0.0,0.0,0.0,0.0,0.0,0.0,0.0,0.0,0.0,0.0,0.0,0.0,0.0,0.0,0.0,0.0,0.0,0.0,0.0,0.0,0.0,0.0,0.0,0.0,0.0,0.0,0.0,0.0,0.0,0.0,0.0,0.0,-1.4066,-1.4181,-1.4638,-1.5063,-1.5521,-1.5771,-1.6238,-1.6996,-1.7465,-1.7979,-1.8473,-1.86,-1.8812,-1.9213,-1.9256,-1.9299,-1.9307,-1.9496,-1.987,-2.0296,-2.0131,-2.014,-2.0192,-1.9817,-1.9459,-1.9178,-1.8877,-1.8281,-1.7537,0.0,0.0,0.0,0.0,0.0,0.0,0.0,0.0,0.0,0.0,0.0,0.0,0.0,0.0,-0.2799,-0.2866,-0.2257,-0.1609,-0.098,-0.1602,-0.1397,-0.0057,-0.1284,-0.1999,-0.1999,-0.0682,0.0,0.0,0.0,0.0,0.0,-0.3596,-0.3968,-0.4408,-0.4677,-0.4838,0.0,0.0,0.0,-0.4844,0.0,0.0,-0.5235,0.0,0.0,0.0,0.0,0.0,0.0,0.0,-0.406,-0.3702,0.0,0.0,0.0,0.0,0.0,0.0,0.0,0.0,0.0,0.0,0.0,0.0,0.0,0.0,0.0,0.0,0.0,0.0,0.0,0.0,0.0,0.0,0.0,0.0,0.0,0.0,0.0,0.0,0.0,0.0,0.0,0.0,0.0,0.0,0.0,0.0,-1.3433,-1.3877,-1.4428,-1.4989,-1.5475,-1.5924,-1.6434,-1.6871,-1.7384,-1.8004,-1.8086,-1.8296,-1.8701,-1.8701,-1.8667,-1.8583,-1.833,-1.8718,-1.9504,-1.9247,-1.9076,-1.8947,-1.8413,-1.7929,-1.7466,-1.7078,-1.6461,-1.572,0.0,0.0,0.0,0.0,0.0,0.0,0.0,0.0,0.0,-0.2689,0.0,0.0,0.0,0.0,0.0,-0.2814,-0.2808,-0.2798,-0.2798,-0.1094,-0.0051,-0.0,0.0,0.0,0.0,0.0,0.0,0.0,0.0,0.0,0.0,0.0,-0.3525,-0.4146,-0.4035,-0.4228,-0.4653,0.0,-0.4644,-0.4883,0.0,-0.4974,-0.5249,0.0,0.0,0.0,-0.5991,-0.5913,0.0,0.0,0.0,0.0,0.0,0.0,0.0,0.0,0.0,0.0,0.0,0.0,0.0,0.0,0.0,0.0,0.0,0.0,0.0,0.0,0.0,0.0,0.0,0.0,0.0,0.0,0.0,0.0,0.0,0.0,0.0,0.0,0.0,0.0,0.0,0.0,0.0,0.0,-1.2549,-1.2666,-1.2856,-1.3194,-1.3725,-1.4452,-1.5362,-1.5856,-1.5864,-1.6653,-1.7164,-1.7383,-1.7578,-1.77,-1.77,-1.77,-1.7587,-1.7392,-1.718,-1.7705,-1.8715,-1.8302,-1.7999,-1.7755,-1.7033,-1.6448,-1.5948,-1.5274,-1.4702,-1.4108,0.0,0.0,0.0,0.0,0.0,0.0,0.0,0.0,-0.2612,0.0,0.0,0.0,-0.3064,-0.3064,-0.3083,-0.3152,-0.2898,-0.2728,-0.2728,-0.2237,-0.137,-0.0061,0.0,0.0,0.0,0.0,0.0,0.0,0.0,0.0,0.0,0.0,0.0,0.0,-0.3354,-0.354,-0.3785,-0.4135,0.0,0.0,-0.4851,-0.522,0.0,0.0,0.0,0.0,0.0,-0.6476,-0.6324,0.0,-0.5457,-0.4885,0.0,0.0,0.0,0.0,0.0,0.0,-0.2043,0.0,0.0,0.0,0.0,0.0,0.0,0.0,0.0,0.0,0.0,0.0,0.0,0.0,0.0,0.0,0.0,0.0,0.0,0.0,0.0,0.0,0.0,0.0,0.0,0.0,0.0,0.0,-1.166,-1.1824,-1.2218,-1.2849,-1.3397,-1.3908,-1.4562,-1.5038,-1.5327,-1.5928,-1.6429,-1.6765,-1.7098,-1.7343,-1.7465,-1.7465,-1.7383,-1.718,-1.6935,-1.6808,-1.6823,-1.6739,-1.6522,-1.622,-1.5403,-1.4673,-1.4087,-1.3385,-1.2829,-1.2289,0.0,0.0,0.0,0.0,0.0,0.0,0.0,0.0,0.0,0.0,0.0,0.0,-0.333,-0.3347,-0.3378,-0.3424,-0.3086,-0.2869,-0.2869,-0.2741,-0.2187,-0.1135,-0.0391,0.0,0.0,0.0,0.0,0.0,0.0,0.0,0.0,0.0,0.0,0.0,0.0,0.0,0.0,0.0,0.0,0.0,-0.4683,0.0,0.0,-0.6137,-0.6472,0.0,0.0,0.0,-0.6726,-0.6395,-0.5818,0.0,0.0,0.0,0.0,0.0,0.0,0.0,0.0,0.0,0.0,0.0,0.0,0.0,-0.284,-0.32,-0.3587,0.0,0.0,0.0,0.0,0.0,0.0,0.0,0.0,0.0,0.0,0.0,0.0,0.0,0.0,0.0,0.0,-1.026,-1.0445,-1.0891,-1.0916,-1.1177,-1.1814,-1.2321,-1.2847,-1.3353,-1.3963,-1.4476,-1.4897,-1.5428,-1.5874,-1.6312,-1.6669,-1.6919,-1.7016,-1.7082,-1.7017,-1.6763,-1.6353,-1.5989,-1.5631,-1.5249,-1.5075,-1.4936,-1.4055,-1.3203,-1.2448,-1.1865,-1.1299,-1.0769,0.0,0.0,0.0,0.0,0.0,0.0,0.0,0.0,0.0,0.0,-0.3537,-0.3599,-0.3642,-0.3669,-0.3689,-0.3696,-0.3342,-0.311,-0.3081,-0.2796,-0.2621,-0.2583,-0.1096,-0.0184,-0.0,0.0,0.0,0.0,0.0,0.0,0.0,0.0,0.0,0.0,0.0,0.0,0.0,0.0,0.0,-0.4389,-0.4369,-0.4905,0.0,0.0,-0.6468,0.0,-0.7235,-0.7168,-0.6914,-0.6757,-0.5933,0.0,0.0,0.0,0.0,0.0,-0.2693,0.0,0.0,0.0,0.0,0.0,0.0,0.0,-0.265,-0.2924,-0.3182,0.0,0.0,0.0,0.0,0.0,0.0,0.0,0.0,0.0,0.0,0.0,0.0,0.0,0.0,0.0,-0.9246,-0.9302,-0.9556,-1.0238,-1.0355,-1.0715,-1.1449,-1.1717,-1.2136,-1.2764,-1.3459,-1.4037,-1.447,-1.5041,-1.5481,-1.5863,-1.6226,-1.6395,-1.6372,-1.6556,-1.647,-1.6216,-1.5636,-1.52,-1.4873,-1.3942,-1.3724,-1.3844,-1.2912,-1.1972,-1.1063,-1.0593,-1.0117,-0.9647,-0.2437,0.0,0.0,0.0,0.0,0.0,0.0,0.0,0.0,-0.3268,-0.3728,-0.4211,-0.4591,-0.4351,-0.4204,-0.4308,-0.3672,-0.3165,-0.2957,-0.288,-0.2719,-0.2455,-0.2117,-0.1323,-0.0028,0.0,0.0,0.0,0.0,0.0,0.0,0.0,0.0,0.0,0.0,0.0,0.0,0.0,0.0,-0.3717,-0.3971,0.0,-0.5713,-0.577,-0.6318,-0.7052,-0.7023,-0.7086,-0.7104,0.0,-0.5765,-0.52,0.0,0.0,0.0,0.0,0.0,0.0,0.0,0.0,0.0,0.0,0.0,0.0,-0.2536,-0.2675,-0.2808,0.0,0.0,0.0,0.0,0.0,0.0,0.0,0.0,0.0,0.0,0.0,0.0,0.0,0.0,0.0,-0.8603,-0.8694,-0.8945,-0.9562,-1.0109,-1.0531,-1.0789,-1.1136,-1.1587,-1.2087,-1.2556,-1.3107,-1.3697,-1.4425,-1.4893,-1.5127,-1.5618,-1.5785,-1.5615,-1.5928,-1.5723,-1.5205,-1.5182,-1.4706,-1.3906,-1.3173,-1.2918,-1.2869,-1.1923,-1.0982,-1.0115,-0.9471,-0.9095,-0.8804,-0.2348,0.0,0.0,0.0,0.0,0.0,0.0,0.0,0.0,-0.3837,-0.4259,-0.4634,-0.4872,-0.4759,-0.4672,-0.4737,-0.4101,-0.3645,-0.3508,-0.3184,-0.2865,-0.2563,-0.239,-0.1921,-0.1115,-0.0703,-0.0338,0.0,0.0,0.0,0.0,0.0,0.0,0.0,0.0,0.0,0.0,0.0,-0.2619,-0.338,-0.3712,0.0,-0.5402,-0.5471,-0.6103,-0.693,-0.6813,-0.6801,-0.6758,-0.6106,-0.5588,0.0,0.0,-0.4376,-0.4056,0.0,-0.3469,-0.3106,0.0,0.0,0.0,-0.2406,0.0,0.0,0.0,-0.2524,-0.2547,-0.25,0.0,0.0,0.0,0.0,0.0,0.0,0.0,0.0,0.0,0.0,0.0,0.0,0.0,0.0,-0.7636,-0.7753,-0.8008,-0.8559,-0.9203,-0.9703,-1.0089,-1.0466,-1.1009,-1.1678,-1.2075,-1.2571,-1.325,-1.3736,-1.4156,-1.4508,-1.4953,-1.5086,-1.5026,-1.5132,-1.5018,-1.4746,-1.4371,-1.3809,-1.3137,-1.2314,-1.1714,-1.1278,-1.0809,-1.0115,-0.9297,-0.86,-0.8238,-0.8013,-0.2252,0.0,0.0,0.0,0.0,0.0,0.0,0.0,0.0,-0.445,-0.4717,-0.4912,-0.497,0.0,0.0,0.0,-0.4588,-0.4232,-0.4124,0.0,-0.3107,-0.2827,-0.2505,-0.2279,-0.2159,-0.1515,-0.0902,-0.035,0.0,0.0,0.0,0.0,0.0,0.0,0.0,0.0,0.0,0.0,0.0,-0.3172,0.0,-0.4226,-0.5058,-0.5165,-0.584,-0.6724,-0.6654,-0.6482,-0.6255,-0.5845,0.0,-0.4986,-0.4801,-0.4443,0.0,0.0,0.0,0.0,0.0,0.0,0.0,0.0,0.0,-0.2421,0.0,0.0,0.0,-0.2273,-0.2236,0.0,0.0,0.0,0.0,0.0,0.0,0.0,0.0,0.0,0.0,0.0,0.0,0.0,0.0,-0.69,-0.7229,-0.7642,-0.8193,-0.8761,-0.9273,-0.9762,-1.0369,-1.1155,-1.1594,-1.217,-1.2896,-1.3121,-1.3525,-1.4029,-1.4376,-1.4469,-1.4373,-1.4393,-1.4337,-1.4191,-1.3506,-1.2939,-1.2378,-1.152,-1.0593,-0.9685,-0.9685,-0.9253,-0.856,-0.793,-0.7542,-0.7315,-0.2102,-0.2128,0.0,0.0,0.0,0.0,0.0,0.0,0.0,-0.4393,-0.4644,0.0,0.0,0.0,0.0,0.0,0.0,0.0,-0.4223,0.0,0.0,-0.325,-0.2965,-0.2569,-0.2033,-0.1878,-0.1732,-0.1598,0.0,0.0,0.0,0.0,0.0,0.0,-0.1498,0.0,0.0,0.0,-0.2537,0.0,-0.3434,-0.4108,0.0,-0.4853,-0.5519,-0.6471,-0.6639,-0.6366,-0.5891,0.0,-0.5296,-0.5034,0.0,-0.4333,-0.4073,0.0,0.0,0.0,0.0,0.0,0.0,0.0,-0.2788,0.0,0.0,0.0,-0.2281,-0.2155,0.0,-0.1895,-0.1778,0.0,0.0,0.0,0.0,0.0,0.0,0.0,0.0,0.0,0.0,0.0,0.0,-0.6447,-0.6993,-0.7159,-0.764,-0.7998,-0.8265,-0.8931,-0.9537,-1.0065,-1.0738,-1.158,-1.2544,-1.2868,-1.3319,-1.3826,-1.4067,-1.3973,-1.3631,-1.3924,-1.3668,-1.2988,-1.2957,-1.2366,-1.1414,-1.0898,-1.0033,-0.8999,-0.8999,-0.8464,-0.7639,-0.7427,-0.7175,-0.6859,-0.1968,-0.1984,0.0,0.0,0.0,0.0,0.0,0.0,0.0,-0.433,-0.4707,0.0,0.0,0.0,0.0,0.0,0.0,-0.5174,0.0,0.0,0.0,0.0,-0.3329,0.0,-0.2418,-0.226,-0.2022,-0.1683,-0.1489,0.0,0.0,0.0,0.0,0.0,-0.1507,0.0,-0.1933,0.0,0.0,0.0,0.0,0.0,0.0,-0.4558,-0.5166,-0.5844,-0.6089,-0.5895,-0.5513,0.0,-0.4973,0.0,0.0,0.0,0.0,0.0,0.0,0.0,0.0,0.0,0.0,0.0,0.0,0.0,-0.2571,0.0,-0.2235,0.0,0.0,0.0,0.0,0.0,0.0,0.0,-0.1401,0.0,0.0,0.0,0.0,0.0,0.0,0.0,0.0,0.0,0.0,0.0,-0.6558,-0.7043,-0.7426,-0.8063,-0.8711,-0.9475,-1.0064,-1.0755,-1.1628,-1.215,-1.2648,-1.3035,-1.3281,-1.3331,-1.3163,-1.307,-1.2804,-1.2376,-1.2034,-1.1471,-1.0669,-1.0077,-0.9209,-0.8248,-0.7981,-0.7625,-0.72,-0.6863,-0.6675,-0.6573,-0.1998,0.0,0.0,0.0,0.0,0.0,0.0,0.0,0.0,0.0,0.0,0.0,-0.5143,-0.5462,0.0,0.0,-0.5689,-0.5596,0.0,0.0,-0.4554,0.0,0.0,0.0,0.0,0.0,-0.2252,-0.1765,0.0,0.0,0.0,0.0,0.0,0.0,0.0,-0.1703,-0.1931,0.0,0.0,-0.2772,-0.3009,-0.3327,-0.375,-0.4414,-0.4879,-0.523,-0.5504,-0.5421,-0.5149,-0.4909,-0.4683,0.0,-0.4238,0.0,0.0,0.0,0.0,0.0,-0.3276,0.0,0.0,0.0,0.0,0.0,0.0,0.0,0.0,0.0,0.0,0.0,0.0,0.0,-0.1234,0.0,0.0,-0.1125,0.0,0.0,0.0,0.0,0.0,0.0,0.0,0.0,0.0,-0.4968,-0.5544,-0.6106,-0.656,-0.7225,-0.792,-0.8676,-0.9343,-1.0068,-1.0829,-1.1512,-1.2068,-1.2487,-1.2753,-1.2826,-1.2709,-1.2378,-1.2039,-1.1713,-1.1174,-1.0543,-0.9866,-0.9352,-0.8507,-0.7584,-0.7187,-0.6874,-0.6675,-0.6356,-0.6197,-0.62,-0.2292,-0.2182,0.0,0.0,0.0,0.0,0.0,0.0,0.0,0.0,0.0,0.0,0.0,0.0,0.0,0.0,0.0,-0.5969,-0.5725,0.0,-0.4825,0.0,0.0,-0.3724,0.0,0.0,0.0,-0.2178,0.0,0.0,0.0,0.0,0.0,0.0,0.0,-0.1581,-0.1731,-0.2064,-0.2357,-0.263,-0.2969,-0.331,-0.3684,0.0,-0.4722,-0.4661,-0.5004,0.0,0.0,-0.4525,-0.4416,0.0,0.0,0.0,0.0,0.0,0.0,0.0,0.0,0.0,0.0,-0.2901,0.0,0.0,0.0,0.0,-0.2133,0.0,0.0,0.0,0.0,-0.1204,-0.1038,-0.0845,0.0,0.0,0.0,0.0,0.0,0.0,0.0,0.0,0.0,0.0,0.0,-0.4134,-0.4764,-0.5263,-0.554,-0.6472,-0.7149,-0.7436,-0.8616,-0.9606,-1.0421,-1.1136,-1.1861,-1.2487,-1.2753,-1.2709,-1.2305,-1.2114,-1.1595,-1.0804,-1.0484,-0.9816,-0.8941,-0.8724,-0.8045,-0.7095,-0.6881,-0.639,-0.5749,-0.5942,-0.5894,-0.5696,0.0,0.0,0.0,0.0,0.0,0.0,0.0,-0.3501,0.0,0.0,0.0,0.0,0.0,0.0,-0.5755,0.0,0.0,-0.6071,-0.5973,-0.5538,0.0,0.0,0.0,-0.3908,0.0,0.0,0.0,0.0,0.0,0.0,0.0,0.0,0.0,0.0,0.0,-0.1471,0.0,0.0,0.0,0.0,0.0,-0.2936,-0.3274,0.0,0.0,-0.4235,-0.4439,-0.4467,0.0,-0.4215,-0.4144,-0.4091,-0.387,-0.3801,-0.3731,-0.3419,-0.3315,0.0,0.0,0.0,-0.2839,-0.2839,0.0,0.0,0.0,0.0,0.0,0.0,0.0,0.0,0.0,0.0,-0.0989,0.0,0.0,0.0,0.0,0.0,0.0,0.0,0.0,0.0,0.0,0.0,0.0,-0.3371,-0.3792,-0.4244,-0.4738,-0.5297,-0.609,-0.7111,-0.7892,-0.8699,-0.96,-1.0294,-1.0916,-1.1444,-1.1699,-1.1784,-1.1706,-1.1484,-1.1037,-1.038,-1.0009,-0.9408,-0.8649,-0.8165,-0.7527,-0.6836,-0.6302,-0.5858,-0.5523,-0.568,-0.5598,-0.5396,-0.2293,0.0,0.0,0.0,0.0,0.0,0.0,0.0,0.0,0.0,-0.4482,0.0,-0.5132,0.0,-0.5732,0.0,-0.6007,-0.6007,-0.5957,-0.5582,0.0,-0.5038,-0.4547,0.0,0.0,0.0,0.0,0.0,0.0,-0.1699,0.0,0.0,0.0,0.0,0.0,0.0,0.0,0.0,-0.1834,0.0,0.0,-0.2531,0.0,0.0,-0.3573,-0.3798,0.0,-0.3999,-0.3971,-0.383,-0.3774,-0.376,-0.3593,-0.3541,-0.3497,-0.3237,-0.3136,-0.3082,-0.2906,-0.2803,0.0,-0.2723,-0.2598,0.0,-0.2402,0.0,0.0,0.0,0.0,0.0,0.0,0.0,0.0,0.0,0.0,0.0,0.0,-0.0716,0.0,0.0,0.0,0.0,0.0,0.0,-0.2534,-0.2698,-0.2979,-0.3399,0.0,0.0,-0.5231,-0.6319,-0.7117,-0.7937,-0.8812,-0.9588,-1.0271,-1.0783,-1.1053,-1.1222,-1.1298,-1.0925,-1.0443,-0.9857,-0.935,-0.8809,-0.8197,-0.7578,-0.7097,-0.6612,-0.5941,-0.55,-0.525,-0.5319,-0.5196,-0.5013,0.0,0.0,0.0,0.0,-0.2546,0.0,0.0,0.0,-0.3543,0.0,-0.4344,-0.466,-0.4879,-0.5365,-0.5679,-0.5688,-0.5823,0.0,-0.5706,-0.5323,0.0,0.0,-0.4574,-0.4237,-0.3876,0.0,0.0,0.0,0.0,0.0,0.0,0.0,0.0,0.0,-0.1054,0.0,-0.129,-0.1293,-0.1527,-0.1905,-0.2043,-0.2119,-0.2201,-0.2339,-0.2789,-0.3372,-0.3514,-0.3555,-0.3527,-0.3413,-0.3357,-0.333,-0.313,-0.3074,-0.3074,-0.3074,-0.3036,-0.2963,-0.2963,-0.2786,-0.2585,-0.2585,0.0,0.0,0.0,0.0,-0.197,0.0,0.0,0.0,0.0,0.0,0.0,0.0,0.0,0.0,0.0,0.0,0.0,0.0,0.0,0.0,0.0,-0.1575,-0.1823,-0.2148,-0.2365,0.0,0.0,0.0,-0.4604,-0.5144,-0.6304,-0.7289,-0.8069,-0.9029,-0.9882,-1.0575,-1.0829,-1.0991,-1.1037,-1.0443,-0.9846,-0.9218,-0.8569,-0.8006,-0.7537,-0.7077,-0.6663,-0.634,-0.5852,-0.5364,-0.4933,-0.481,-0.4676,-0.4614,-0.2807,-0.271,-0.266,0.0,-0.2841,-0.289,0.0,0.0,0.0,0.0,-0.4248,-0.4522,-0.4931,-0.5224,-0.5473,-0.5606,-0.5743,0.0,0.0,0.0,0.0,-0.4681,-0.4497,-0.4114,-0.3466,-0.3274,0.0,-0.2283,0.0,0.0,-0.1393,0.0,0.0,0.0,0.0,0.0,-0.1081,-0.1136,-0.1377,-0.1769,-0.1907,-0.1995,0.0,0.0,-0.2305,-0.2544,-0.282,-0.2942,-0.2914,-0.2886,-0.2884,-0.2884,-0.2828,-0.28,-0.2772,-0.2687,-0.2645,-0.2601,-0.2434,-0.2362,-0.2291,-0.2291,-0.222,-0.2123,0.0,0.0,0.0,0.0,0.0,0.0,0.0,0.0,0.0,0.0,0.0,0.0,0.0,0.0,0.0,0.0,0.0,0.0,0.0,-0.1413,-0.1548,-0.1735,-0.1981,0.0,0.0,0.0,0.0,-0.4581,-0.5582,-0.659,-0.7566,-0.8243,-0.9058,-0.9991,-1.009,-1.0138,-1.0218,-0.9884,-0.9425,-0.8832,-0.8299,-0.7809,-0.7334,-0.6819,-0.6443,-0.6124,-0.5455,-0.4877,-0.448,-0.4461,-0.4439,-0.4469,-0.2986,0.0,0.0,-0.3014,0.0,0.0,-0.3153,0.0,0.0,-0.3971,-0.4263,0.0,-0.493,-0.5112,-0.525,-0.5357,-0.546,0.0,-0.5275,0.0,0.0,-0.449,-0.4308,-0.3945,-0.3306,-0.3103,0.0,-0.2159,0.0,0.0,-0.1213,0.0,0.0,0.0,0.0,-0.0735,0.0,-0.098,-0.1156,-0.1413,-0.151,0.0,0.0,-0.1744,-0.1767,-0.1821,-0.2018,-0.227,-0.2493,-0.2493,-0.2493,-0.2493,-0.2493,-0.2437,-0.238,-0.238,-0.2324,-0.2268,-0.2212,-0.2212,-0.2212,-0.2212,-0.2124,-0.2067,-0.2067,-0.1986,-0.1881,0.0,0.0,0.0,0.0,0.0,0.0,0.0,0.0,0.0,0.0,0.0,0.0,0.0,0.0,0.0,0.0,-0.1156,-0.1256,-0.1457,0.0,0.0,0.0,0.0,0.0,-0.4103,-0.4931,-0.5899,-0.7043,-0.7628,-0.8445,-0.941,-0.9482,-0.9625,-0.9771,-0.9384,-0.8932,-0.8417,-0.7991,-0.7519,-0.7006,-0.6629,-0.632,-0.6038,-0.5277,-0.4699,-0.43,-0.43,-0.4332,-0.4375,0.0,0.0,0.0,0.0,0.0,0.0,0.0,-0.3673,0.0,-0.3911,0.0,-0.4606,-0.4817,-0.4948,-0.5033,-0.505,0.0,-0.4969,-0.4787,-0.4603,-0.4436,-0.4228,-0.4007,-0.3682,-0.3212,-0.2822,0.0,0.0,0.0,0.0,0.0,0.0,0.0,0.0,0.0,0.0,0.0,-0.0838,-0.0935,-0.102,-0.1085,-0.1178,-0.1306,-0.1313,-0.1312,-0.1291,-0.1291,-0.1625,-0.2073,-0.2073,-0.2073,-0.2073,-0.2073,-0.2015,-0.1931,-0.2043,-0.1987,-0.1931,-0.2043,-0.2073,-0.2073,-0.2073,-0.1987,-0.1903,-0.1903,-0.1822,-0.1713,-0.1572,-0.1507,-0.1393,0.0,0.0,0.0,0.0,0.0,0.0,0.0,0.0,0.0,0.0,0.0,0.0,0.0,0.0,0.0,0.0,0.0,0.0,0.0,0.0,0.0,-0.3654,-0.4363,-0.5288,-0.645,0.0,-0.7943,-0.8785,-0.9013,-0.9228,-0.9437,-0.891,-0.8441,-0.8009,-0.766,-0.7191,-0.6639,-0.6452,-0.6213,-0.5949,-0.5277,-0.4743,-0.4344,-0.43,-0.43,-0.4255,0.0,0.0,0.0,0.0,0.0,-0.3439,-0.3686,-0.3592,-0.3601,-0.3943,-0.4053,-0.4191,-0.4472,-0.4593,-0.4687,-0.4681,-0.469,0.0,0.0,0.0,0.0,-0.3734,-0.3525,-0.3215,-0.2747,-0.2428,-0.2129,0.0,0.0,0.0,0.0,0.0,0.0,0.0,0.0,0.0,-0.0633,-0.0819,0.0,-0.1087,-0.1156,-0.1231,-0.131,-0.1293,-0.1312,-0.1291,-0.1291,-0.1374,-0.1458,-0.1458,-0.1458,-0.1458,-0.1458,-0.143,-0.143,-0.1458,-0.143,-0.143,-0.1458,-0.1458,-0.1458,-0.1458,-0.143,-0.143,-0.143,-0.1402,-0.1375,-0.1347,-0.134,-0.1295,-0.1124,0.0,0.0,0.0,0.0,0.0,0.0,0.0,0.0,0.0,0.0,0.0,0.0,0.0,0.0,0.0,0.0,0.0,0.0,0.0,0.0,0.0,-0.3928,0.0,0.0,0.0,-0.7403,-0.8146,-0.86,-0.8735,-0.8594,-0.8501,-0.8136,-0.7581,-0.7252,-0.6816,-0.6341,-0.6194,-0.5905,-0.5505,-0.5144,-0.4835,-0.4614,-0.4389,-0.4168,-0.3991,0.0,0.0,0.0,0.0,0.0,0.0,0.0,-0.3429,0.0,-0.3911,-0.3926,-0.3979,-0.4227,-0.4302,-0.4333,-0.43,-0.4293,-0.4228,-0.4028,-0.3863,-0.3604,-0.3289,-0.3113,0.0,-0.2414,-0.2128,-0.1839,-0.1501,0.0,0.0,-0.0644,0.0,0.0,0.0,0.0,-0.0295,0.0,0.0,0.0,-0.0738,-0.0767,-0.0796,-0.0822,-0.0836,-0.0842,-0.0842,-0.0842,-0.0842,-0.087,-0.1206,-0.1291,-0.129,-0.1206,-0.115,-0.1094,-0.1094,-0.1079,-0.1122,-0.1209,-0.1312,-0.1359,-0.1359,-0.1359,-0.1359,-0.1359,-0.1359,-0.1323,-0.1272,-0.1238,-0.1191,-0.1022,-0.0894,0.0,0.0,0.0,0.0,0.0,0.0,0.0,0.0,0.0,0.0,0.0,0.0,0.0,0.0,0.0,0.0,0.0,0.0,0.0,0.0,0.0,0.0,0.0,0.0,0.0,-0.7597,-0.8108,-0.8279,-0.8168,-0.7999,-0.7714,-0.7308,-0.6925,-0.6497,-0.6133,-0.5979,-0.5686,-0.5371,-0.5099,-0.4879,-0.4661,-0.4257,-0.3991,-0.3909,0.0,-0.3696,0.0,0.0,-0.341,0.0,-0.3297,-0.3306,-0.3451,-0.3787,-0.3762,-0.3768,-0.395,-0.393,-0.3898,-0.382,-0.3794,-0.3661,-0.3397,-0.3328,-0.3127,-0.2857,-0.2696,-0.2436,-0.2054,-0.1831,-0.1532,0.0,0.0,0.0,0.0,0.0,0.0,0.0,0.0,0.0,0.0,0.0,-0.0331,-0.0409,-0.0395,-0.0408,-0.0393,-0.0393,-0.0393,-0.0393,-0.0393,-0.0393,-0.0477,-0.0954,-0.1122,-0.1094,-0.0982,-0.087,-0.0787,-0.0792,-0.0779,-0.0826,-0.0981,-0.1121,-0.1174,-0.1174,-0.1174,-0.1174,-0.1174,-0.1174,-0.1165,-0.1047,-0.1036,-0.0986,-0.0825,-0.0807,0.0,0.0,0.0,0.0,0.0,0.0,0.0,0.0,0.0,0.0,0.0,0.0,0.0,0.0,0.0,0.0,0.0,0.0,0.0,0.0,0.0,-0.4098,-0.5049,0.0,-0.6558,-0.704,-0.7627,-0.7863,-0.7806,-0.7618,-0.7369,-0.7111,-0.6608,-0.621,-0.5885,-0.5774,-0.5599,-0.5416,-0.5099,-0.4924,-0.4703,-0.4125,-0.3825,-0.3758,0.0,0.0,0.0,0.0,0.0,0.0,-0.3543,-0.3266,-0.317,-0.358,-0.346,-0.3404,-0.354,-0.3382,-0.3284,-0.3259,-0.3159,-0.309,-0.3058,-0.2691,-0.2423,-0.2288,-0.208,-0.1851,-0.1572,-0.1432,-0.1216,0.0,0.0,-0.0475,0.0,0.0,0.0,0.0,0.0,0.0,0.0,-0.0269,-0.0336,-0.0398,-0.0399,-0.0408,-0.0393,-0.0393,-0.0393,-0.0393,-0.0393,-0.0393,-0.0421,-0.0477,-0.0477,-0.0477,-0.0477,-0.0449,-0.0451,-0.0436,-0.0441,-0.0445,-0.0458,-0.0493,-0.0494,-0.0494,-0.0494,-0.0494,-0.0494,-0.0494,-0.0494,-0.0492,-0.0481,-0.047,-0.0438,-0.0556,-0.0638,0.0,0.0,0.0,0.0,0.0,0.0,0.0,0.0,0.0,0.0,-0.0866,0.0,0.0,0.0,0.0,0.0,0.0,0.0,-0.2411,0.0,-0.3793,-0.4559,-0.5478,-0.6138,-0.6471,-0.7195,-0.7446,-0.7273,-0.743,-0.7292,-0.6914,-0.637,-0.5897,-0.5542,-0.5678,-0.5688,-0.5644,-0.5191,-0.501,-0.4877,-0.4168,-0.3676,-0.3328,0.0,0.0,0.0,0.0,0.0,0.0,0.0,-0.3014,-0.2879,-0.2946,-0.2937,-0.2951,-0.3019,-0.2825,-0.2725,-0.2725,-0.2591,-0.2455,-0.2353,-0.2186,-0.2018,-0.185,-0.1749,-0.156,-0.1195,-0.1149,-0.0946,0.0,0.0,0.0,0.0,0.0,0.0,0.0,0.0,0.0065,0.0023,-0.0073,-0.0128,-0.016,-0.0082,-0.0028,-0.0028,0.0056,0.0084,0.0084,0.0084,0.0084,0.0084,0.0084,-0.014,-0.0394,-0.0316,-0.0289,-0.0262,-0.018,-0.0246,-0.0344,-0.0348,-0.0386,-0.0456,-0.0456,-0.0456,-0.0456,-0.0456,-0.0456,-0.0454,-0.0446,-0.0434,-0.0394,-0.0394,-0.0445,-0.0493,0.0,0.0,0.0,0.0,0.0,0.0,0.0,0.0,0.0,0.0,0.0,0.0,0.0,0.0,0.0,0.0,0.0,0.0,-0.2315,0.0,-0.3683,-0.4386,-0.5322,-0.5937,-0.6233,-0.6963,-0.7233,-0.7027,-0.7092,-0.6749,-0.6109,-0.6062,-0.5809,-0.5458,-0.5607,-0.5688,-0.5644,-0.5191,-0.4921,-0.4748,-0.3991,-0.3453,-0.2967,-0.3293,0.0,-0.3227,0.0,-0.306,-0.2855,-0.275,-0.2626,-0.2509,-0.2347,-0.2375,-0.2407,-0.2455,-0.2287,-0.2154,-0.2154,-0.2087,-0.1951,-0.1748,-0.1681,-0.158,-0.1379,-0.1312,0.0,-0.0851,-0.0844,-0.0689,-0.0381,-0.025,0.0,0.0,0.0,0.0,0.0,0.0299,0.0262,0.0248,0.0185,0.0136,0.0165,0.0256,0.0289,0.0289,0.0404,0.0433,0.0433,0.0433,0.0433,0.0433,0.0433,0.0173,-0.0116,-0.0029,0.0,0.003,0.0124,0.0032,-0.0065,-0.0065,-0.0133,-0.0202,-0.0202,-0.0202,-0.0202,-0.0202,-0.0202,-0.0201,-0.0263,-0.0224,-0.0219,-0.0281,-0.0311,-0.0337,-0.033,0.0,0.0,0.0,0.0,0.0,0.0,-0.074,-0.0798,-0.0992,0.0,0.0,0.0,0.0,0.0,0.0,0.0,0.0,0.0,0.0,0.0,-0.4284,-0.5089,-0.5655,-0.6001,-0.6644,-0.6901,-0.682,-0.6814,-0.6367,-0.5613,-0.5877,-0.5785,-0.5429,-0.5632,-0.5644,-0.5552,-0.5146,-0.4835,-0.4484,-0.3791,-0.3162,-0.2618,-0.3192,-0.3192,-0.334,-0.3734,-0.2743,-0.202,-0.2253,-0.2136,-0.1986,-0.1899,-0.1788,-0.1769,-0.189,-0.1715,-0.1614,-0.1614,-0.1614,-0.1513,-0.1311,-0.1176,-0.1008,0.0,0.0,-0.0506,-0.0505,-0.0491,-0.0452,-0.029,0.0,0.0,0.0196,0.0,0.0402,0.0402,0.0403,0.0385,0.04,0.0469,0.0486,0.0502,0.0487,0.0494,0.0494,0.0494,0.0494,0.0494,0.0494,0.0494,0.0494,0.0494,0.0494,0.0491,0.0506,0.0482,0.0497,0.048,0.0484,0.0487,0.0501,0.0506,0.0472,0.0472,0.0472,0.0472,0.0472,0.0472,0.0438,0.0303,0.0296,0.0226,0.0032,-0.0126,-0.0216,-0.0216,0.0,0.0,0.0,0.0,0.0,0.0,-0.0721,-0.0855,-0.0991,0.0,0.0,0.0,0.0,0.0,0.0,0.0,0.0,-0.2576,-0.2866,0.0,-0.4301,-0.4758,-0.5276,-0.5822,-0.622,-0.6462,-0.6593,-0.6607,-0.6254,-0.5613,-0.5877,-0.5785,-0.5429,-0.5632,-0.5597,-0.5371,-0.5099,-0.4699,-0.422,-0.3531,-0.2854,-0.2148,-0.2845,-0.2733,-0.2761,-0.2887,-0.2356,-0.1841,-0.1666,-0.1633,-0.1567,-0.1258,-0.1147,-0.1047,-0.0969,-0.1122,-0.121,0.0,-0.0942,-0.0808,0.0,-0.0707,-0.0674,-0.0606,-0.0539,-0.0472,-0.0371,-0.0367,-0.0198,0.0097,0.0,0.0,0.0,0.0582,0.066,0.0731,0.0646,0.0687,0.0798,0.0746,0.0784,0.0914,0.1015,0.105,0.105,0.1141,0.1171,0.1171,0.1171,0.1171,0.1171,0.1171,0.1219,0.1238,0.1257,0.0916,0.0512,0.0495,0.0499,0.05,0.0504,0.0506,0.0506,0.0506,0.0506,0.0506,0.0506,0.0506,0.0472,0.0438,0.0435,0.0399,0.0233,0.0165,0.0098,-0.0032,-0.0093,0.0,0.0,0.0,0.0,0.0,-0.0632,-0.0796,0.0,-0.1143,0.0,0.0,0.0,0.0,0.0,0.0,0.0,0.0,-0.2968,0.0,-0.3955,-0.4698,-0.5277,-0.5655,-0.617,-0.6485,-0.6603,-0.6269,-0.5993,-0.5738,-0.5797,-0.567,-0.5462,-0.5489,-0.5463,-0.5327,-0.4746,-0.4246,-0.3756,-0.2997,-0.2314,-0.1606,-0.2588,-0.2276,-0.2041,-0.2041,-0.1689,-0.1335,-0.1061,-0.1125,-0.1033,-0.072,-0.0626,-0.0503,-0.0178,-0.0385,0.0,-0.0674,-0.0573,-0.0472,-0.0438,-0.0371,-0.027,-0.0202,-0.0135,-0.0101,0.0,0.0,0.0,0.0361,0.0455,0.0599,0.081,0.0882,0.1,0.1109,0.1048,0.106,0.1173,0.1124,0.1161,0.1288,0.1366,0.1405,0.1436,0.1498,0.1529,0.1529,0.1529,0.1529,0.1529,0.1529,0.1581,0.1605,0.1605,0.1278,0.0889,0.0837,0.0775,0.074,0.074,0.074,0.074,0.074,0.074,0.074,0.074,0.074,0.0707,0.064,0.0607,0.0573,0.0404,0.0371,0.0335,0.0197,0.0159,0.0092,0.0,0.0,0.0,0.0,0.0,0.0,0.0,-0.1183,-0.1302,0.0,0.0,0.0,0.0,0.0,0.0,-0.2518,-0.305,-0.3506,-0.3917,-0.4589,-0.5103,-0.546,-0.5874,-0.6146,-0.6219,-0.5957,-0.579,-0.5681,-0.574,-0.5607,-0.5386,-0.5414,-0.5238,-0.4928,-0.4379,-0.3837,-0.3242,-0.2538,-0.1825,-0.1081,-0.2433,-0.1805,-0.1296,0.0,-0.0864,0.0,-0.051,-0.055,-0.0468,-0.0267,-0.0227,-0.0075,0.0366,0.0401,0.0179,-0.0374,0.0,0.0,0.0,-0.0067,0.0135,0.0303,0.0438,0.0506,0.0506,0.0506,0.0506,0.0539,0.0755,0.0926,0.1057,0.1243,0.1397,0.1518,0.1518,0.1549,0.1552,0.1629,0.1647,0.1684,0.1663,0.1681,0.1681,0.1681,0.1681,0.1681,0.1681,0.1681,0.1681,0.1681,0.1681,0.1681,0.1681,0.1648,0.1614,0.1379,0.1244,0.1143,0.1143,0.1143,0.1143,0.1143,0.1143,0.1143,0.1109,0.1109,0.1043,0.0876,0.0809,0.0775,0.0573,0.0506,0.0506,0.0506,0.0386,0.031,0.0309,0.0,0.0,0.0,0.0,0.0,0.0,-0.113,-0.1328,0.0,0.0,0.0,0.0,0.0,-0.2225,-0.2863,-0.3109,-0.3495,-0.4062,-0.4419,-0.4812,-0.5207,-0.548,-0.561,-0.5617,-0.5744,-0.569,-0.5554,-0.5746,-0.5594,-0.5221,-0.5284,-0.4928,-0.4271,-0.4034,-0.347,-0.2751,-0.208,-0.1325,-0.0592,0.0,0.0,-0.11,-0.0432,-0.0196,-0.0039,0.0275,0.0039,0.0,0.0351,0.0383,0.0416,0.0526,0.0553,0.0508,0.0358,0.0351,0.0344,0.0304,0.0371,0.0404,0.0438,0.0472,0.0506,0.0506,0.0506,0.064,0.0942,0.127,0.1428,0.1452,0.1517,0.1549,0.1581,0.1747,0.1879,0.2046,0.2159,0.2297,0.2428,0.2445,0.2452,0.2452,0.2452,0.2452,0.2452,0.2452,0.2452,0.2452,0.2452,0.2452,0.2452,0.2452,0.2252,0.1985,0.1648,0.1513,0.148,0.148,0.148,0.148,0.148,0.148,0.1446,0.1277,0.1244,0.121,0.1076,0.1043,0.0976,0.0775,0.0742,0.0674,0.0539,0.0458,0.0444,0.0465,0.0298,0.0,0.0,-0.0204,-0.047,-0.0874,-0.0967,-0.1117,0.0,0.0,0.0,0.0,-0.2114,-0.2362,-0.2652,-0.3148,-0.3584,-0.3853,-0.4357,-0.4856,-0.5349,-0.5617,-0.5744,-0.5747,-0.5723,-0.5752,-0.5803,-0.5478,-0.538,-0.5333,-0.4781,-0.4475,-0.4314,-0.3459,-0.2873,-0.2323,-0.1369,-0.0644,-0.005,-0.0707,-0.0707,-0.0432,0.0432,0.0589,0.0668,0.0904,0.0746,0.0668,0.0904,0.101,0.1078,0.1194,0.1179,0.1165,0.1151,0.0824,0.0592,0.0549,0.0678,0.0774,0.0774,0.0909,0.101,0.101,0.101,0.1111,0.1344,0.1513,0.1648,0.1748,0.1817,0.1918,0.1985,0.2185,0.2319,0.242,0.2522,0.2587,0.2686,0.2686,0.2686,0.2686,0.2686,0.2686,0.2686,0.2686,0.2686,0.2686,0.2686,0.2686,0.2686,0.2686,0.2586,0.2386,0.215,0.1849,0.1614,0.1614,0.1614,0.1614,0.1614,0.1614,0.158,0.1446,0.1446,0.1379,0.121,0.1176,0.1144,0.0976,0.0942,0.0909,0.0808,0.0691,0.0642,0.0632,0.0491,0.0,0.0151,0.0,-0.0244,-0.0597,-0.0861,-0.1066,-0.1245,-0.1525,0.0,-0.1938,-0.217,-0.2431,-0.2763,-0.3191,-0.3548,-0.3797,-0.421,-0.4672,-0.5154,-0.5206,-0.5297,-0.544,-0.5315,-0.5318,-0.5378,-0.5211,-0.5031,-0.4906,-0.4497,-0.4093,-0.3705,-0.2934,-0.2262,-0.1621,-0.0743,0.005,0.0716,0.0157,0.0196,0.0432,0.1178,0.1296,0.1296,0.1296,0.1335,0.1415,0.1414,0.1571,0.1729,0.1887,0.1887,0.1871,0.1832,0.1167,0.0777,0.0771,0.1028,0.1182,0.1177,0.1446,0.1614,0.1614,0.1648,0.1681,0.1681,0.1748,0.1849,0.2017,0.2186,0.2321,0.2456,0.2654,0.2753,0.2753,0.2753,0.2787,0.2787,0.2787,0.2787,0.282,0.282,0.2854,0.2854,0.2854,0.2854,0.2854,0.2854,0.2854,0.2854,0.2822,0.2787,0.2787,0.2753,0.2284,0.1782,0.1782,0.1748,0.1715,0.1715,0.1715,0.1681,0.1648,0.1653,0.159,0.1388,0.1358,0.1327,0.1191,0.1153,0.115,0.1116,0.0959,0.0844,0.084,0.0,0.0497,0.0342,0.0156,-0.0032,-0.0293,-0.0704,-0.0997,-0.1056,-0.1404,-0.1714,-0.1897,-0.2124,-0.2481,-0.2879,-0.3118,-0.3444,-0.3788,-0.4077,-0.4448,-0.4831,-0.4659,-0.468,-0.4987,-0.488,-0.4841,-0.4846,-0.49,-0.4723,-0.439,-0.4264,-0.3712,-0.2875,-0.2339,-0.1671,-0.089,-0.0101,0.0665,0.14,0.0943,0.11,0.1139,0.1257,0.1296,0.1296,0.1296,0.1572,0.1847,0.1961,0.1885,0.1848,0.1887,0.1887,0.1884,0.1877,0.1714,0.1581,0.1547,0.1571,0.1585,0.1514,0.158,0.1614,0.1614,0.1918,0.212,0.212,0.2386,0.2552,0.2586,0.2621,0.2621,0.2654,0.2855,0.2956,0.2956,0.3058,0.3125,0.3125,0.3125,0.3226,0.3362,0.3362,0.3493,0.3625,0.3625,0.3625,0.3625,0.3625,0.3625,0.3591,0.3429,0.3261,0.3092,0.2989,0.2755,0.2519,0.2519,0.2421,0.2288,0.2288,0.2188,0.2052,0.1884,0.1884,0.1881,0.1672,0.1667,0.1658,0.1477,0.1379,0.1289,0.1114,0.1089,0.1027,0.0972,0.0,0.0674,0.0481,0.0328,0.0101,-0.0276,-0.039,-0.0577,-0.0905,-0.1091,-0.1276,-0.1495,-0.1899,-0.2251,-0.249,-0.2837,-0.3291,-0.3797,-0.4244,-0.4471,-0.4546,-0.4683,-0.4777,-0.4841,-0.4941,-0.4987,-0.4947,-0.4645,-0.4468,-0.4348,-0.3531,-0.3022,-0.2638,-0.1666,-0.0991,-0.0403,0.0718,0.1344,0.1766,0.1218,0.1649,0.1962,0.1962,0.1962,0.1962,0.1962,0.212,0.2199,0.2117,0.2158,0.2238,0.2238,0.2316,0.2396,0.2396,0.2449,0.2473,0.2418,0.2137,0.194,0.192,0.2084,0.2183,0.2183,0.2386,0.2453,0.2453,0.2621,0.2686,0.2686,0.282,0.2889,0.2989,0.3192,0.3326,0.3424,0.3491,0.3527,0.3531,0.3551,0.3641,0.3717,0.3807,0.3827,0.3844,0.3844,0.384,0.3792,0.3792,0.383,0.3844,0.3744,0.3714,0.3676,0.3518,0.3125,0.2686,0.2686,0.2621,0.2555,0.2555,0.2421,0.2297,0.2229,0.2154,0.2078,0.1928,0.1954,0.1897,0.1714,0.1624,0.1539,0.1361,0.1295,0.0,0.1082,0.1013,0.0912,0.0743,0.0657,0.0459,0.0071,-0.0073,-0.026,-0.0558,-0.0829,-0.1101,-0.1329,-0.1651,-0.1903,-0.2123,-0.2755,-0.3245,-0.3479,-0.372,-0.4033,-0.4334,-0.4299,-0.4411,-0.4726,-0.4505,-0.4416,-0.4462,-0.4141,-0.3885,-0.3679,-0.3085,-0.2547,-0.1994,-0.1097,-0.0351,0.0354,0.1184,0.1981,0.2741,0.1571,0.208,0.2511,0.2511,0.2511,0.2511,0.2511,0.2511,0.2431,0.2314,0.247,0.2589,0.2628,0.2787,0.2865,0.2865,0.3061,0.3145,0.3106,0.2758,0.2516,0.2347,0.2562,0.2686,0.2686,0.2787,0.282,0.282,0.2921,0.2954,0.2954,0.3123,0.3226,0.336,0.3496,0.3661,0.3792,0.3818,0.3828,0.3837,0.3911,0.3989,0.4031,0.4116,0.4132,0.4094,0.4094,0.404,0.4002,0.4002,0.406,0.4094,0.4021,0.408,0.413,0.3977,0.3513,0.3005,0.2898,0.2855,0.2825,0.281,0.2647,0.2498,0.2603,0.249,0.237,0.2272,0.2254,0.2189,0.193,0.1884,0.184,0.1618,0.0,0.1379,0.0,0.1167,0.1061,0.0919,0.0905,0.0772,0.0404,0.0188,0.0,-0.0229,-0.0544,-0.0866,-0.1109,-0.1387,-0.1641,-0.1923,-0.2664,-0.3076,-0.3158,-0.3266,-0.3585,-0.4035,-0.3839,-0.4016,-0.4435,-0.4036,-0.3854,-0.3928,-0.3671,-0.3374,-0.3042,-0.2613,-0.2043,-0.1314,-0.0455,0.0354,0.1121,0.1866,0.269,0.3542,0.2393,0.247,0.2511,0.2511,0.2511,0.2511,0.2511,0.2511,0.2589,0.2826,0.2787,0.2865,0.3023,0.3062,0.3062,0.3062,0.3255,0.3374,0.3366,0.3573,0.3406,0.2795,0.2724,0.2686,0.2686,0.2989,0.3159,0.3159,0.3525,0.3725,0.3725,0.3725,0.3758,0.3758,0.3758,0.3792,0.3797,0.3863,0.3904,0.3913,0.402,0.4207,0.4347,0.439,0.4501,0.464,0.464,0.4635,0.4626,0.4626,0.4632,0.4604,0.4419,0.4352,0.4323,0.4138,0.4058,0.3904,0.3546,0.3295,0.3145,0.3088,0.2933,0.2812,0.2925,0.296,0.2899,0.2678,0.2689,0.2616,0.2223,0.2186,0.2079,0.1813,0.0,0.0,0.1491,0.1308,0.1127,0.0909,0.0892,0.083,0.0604,0.0386,0.0196,0.0,-0.0235,-0.0436,-0.0649,-0.1096,-0.1517,-0.197,-0.2433,-0.2769,-0.3022,-0.3343,-0.3511,-0.3561,-0.359,-0.3626,-0.3676,-0.3631,-0.3674,-0.3704,-0.3255,-0.3079,-0.3046,-0.2051,-0.1363,-0.0758,0.0303,0.1071,0.1763,0.2955,0.3437,0.3608,0.254,0.2511,0.2511,0.2511,0.2511,0.2668,0.3214,0.3059,0.2943,0.3141,0.3062,0.3061,0.3333,0.3452,0.3569,0.3728,0.3919,0.4016,0.402,0.4079,0.3887,0.3453,0.3408,0.3389,0.3389,0.3491,0.3558,0.3558,0.3725,0.3792,0.3792,0.3792,0.3895,0.403,0.403,0.4171,0.4342,0.4387,0.4405,0.4415,0.464,0.476,0.4839,0.5069,0.5165,0.5208,0.5208,0.5155,0.5084,0.5084,0.5028,0.4944,0.4868,0.4811,0.475,0.4566,0.4494,0.4419,0.4116,0.3921,0.3754,0.3721,0.3478,0.3247,0.3335,0.3192,0.3002,0.2971,0.2965,0.2904,0.2628,0.2571,0.244,0.209,0.0,0.1868,0.1718,0.1531,0.1344,0.127,0.1183,0.1046,0.0814,0.0703,0.0593,0.0441,0.008,-0.0162,-0.0208,-0.0674,-0.115,-0.163,-0.1782,-0.2045,-0.2448,-0.2588,-0.2835,-0.3143,-0.3169,-0.3317,-0.3587,-0.3317,-0.3196,-0.3252,-0.2756,-0.2428,-0.2099,-0.141,-0.0707,0.0051,0.096,0.1787,0.2599,0.3279,0.382,0.438,0.2657,0.2624,0.2624,0.2624,0.287,0.3221,0.3614,0.3463,0.335,0.3534,0.343,0.3491,0.3803,0.3936,0.4075,0.4272,0.4465,0.4618,0.4696,0.4673,0.4437,0.3854,0.3842,0.3825,0.3792,0.3825,0.3859,0.3859,0.3928,0.3979,0.4009,0.4009,0.414,0.4358,0.4358,0.4506,0.4801,0.4801,0.4891,0.4975,0.5176,0.5263,0.5275,0.5523,0.5579,0.5538,0.5538,0.5473,0.5393,0.5393,0.5343,0.5263,0.5263,0.5213,0.5154,0.5067,0.5018,0.4953,0.4802,0.4691,0.4501,0.4245,0.3942,0.378,0.3835,0.3631,0.3421,0.3324,0.3335,0.3217,0.2943,0.2826,0.2707,0.2431,0.2284,0.2145,0.1954,0.1762,0.161,0.161,0.1478,0.134,0.1151,0.0993,0.0883,0.0821,0.0453,0.0166,0.0,-0.0304,-0.0703,-0.1185,-0.1202,-0.1336,-0.1667,-0.2005,-0.2378,-0.2689,-0.2689,-0.2869,-0.3139,-0.2825,-0.2706,-0.2764,-0.2241,-0.1853,-0.1415,-0.0707,0.0,0.0758,0.1677,0.2472,0.3197,0.3732,0.4393,0.5015,0.292,0.292,0.292,0.292,0.3676,0.4106,0.3511,0.3576,0.3805,0.4086,0.3998,0.4102,0.4546,0.4488,0.4504,0.4701,0.489,0.5082,0.5282,0.5433,0.502,0.3962,0.3918,0.3868,0.3797,0.393,0.3997,0.3997,0.42,0.436,0.4506,0.4506,0.4572,0.469,0.469,0.4801,0.4996,0.5078,0.5242,0.5523,0.5582,0.5598,0.5598,0.5598,0.5598,0.5598,0.5598,0.5598,0.5598,0.5598,0.5598,0.5598,0.5598,0.5598,0.5598,0.5598,0.5598,0.5598,0.5598,0.5598,0.5372,0.4528,0.4315,0.4339,0.4399,0.4384,0.4268,0.388,0.3802,0.3647,0.318,0.2943,0.2826,0.2787,0.247,0.2196,0.2196,0.2042,0.1887,0.1887,0.173,0.1587,0.1584,0.1262,0.1027,0.1009,0.0801,0.0511,0.0043,0.0,-0.0224,-0.0673,-0.0673,-0.0718,-0.0718,-0.1705,-0.2199,-0.2199,-0.2199,-0.2199,-0.2199,-0.2199,-0.225,-0.2242,-0.1717,-0.1365,-0.1111,-0.0051,0.0707,0.1316,0.2525,0.3199,0.3626,0.4503,0.5076,0.5427,0.292,0.292,0.3097,0.3765,0.4659,0.5127,0.4621,0.4595,0.4654,0.4545,0.4631,0.4858,0.5149,0.5168,0.5254,0.5533,0.5451,0.544,0.5518,0.5562,0.5424,0.5026,0.479,0.4586,0.4439,0.4474,0.4548,0.4692,0.4762,0.4885,0.506,0.506,0.5132,0.526,0.526,0.5314,0.5407,0.5443,0.5573,0.5806,0.6009,0.618,0.6331,0.6444,0.6518,0.6518,0.6518,0.6405,0.6293,0.6293,0.6099,0.5789,0.5637,0.5598,0.5598,0.5598,0.5598,0.5598,0.5598,0.5598,0.5512,0.5085,0.4878,0.4771,0.4652,0.4501,0.4384,0.4229,0.4229,0.4073,0.3686,0.3528,0.3413,0.3061,0.2787,0.2628,0.2628,0.2315,0.2133,0.2169,0.2011,0.1908,0.1953,0.1832,0.1723,0.159,0.1222,0.0839,0.0489,0.0492,0.0269,-0.0179,-0.0224,-0.0359,-0.0718,-0.0987,-0.13,-0.166,-0.166,-0.1839,-0.2199,-0.1794,-0.1652,-0.1717,-0.1001,-0.0585,-0.0303,0.0606,0.1363,0.2124,0.2937,0.3722,0.4424,0.494,0.5355,0.571,0.3454,0.3454,0.3765,0.4703,0.546,0.5816,0.5366,0.529,0.5305,0.5261,0.5339,0.5521,0.5737,0.575,0.5813,0.6,0.5949,0.587,0.587,0.587,0.5793,0.5667,0.5473,0.523,0.4942,0.4939,0.5015,0.5126,0.5126,0.5225,0.5383,0.5383,0.5421,0.5553,0.5553,0.5676,0.587,0.587,0.6022,0.6325,0.6486,0.6602,0.6714,0.6865,0.6941,0.6962,0.6962,0.6967,0.6911,0.6911,0.6709,0.646,0.6166,0.6071,0.6061,0.5925,0.587,0.587,0.587,0.587,0.5831,0.5592,0.5395,0.5204,0.509,0.4971,0.4813,0.4654,0.4654,0.4499,0.4112,0.3958,0.3804,0.3452,0.3176,0.302,0.2943,0.2767,0.2599,0.2556,0.2376,0.2244,0.221,0.2129,0.2064,0.1977,0.1603,0.1256,0.0987,0.0897,0.0673,0.0269,0.0269,0.0134,-0.0134,-0.0134,-0.0493,-0.1121,-0.1121,-0.13,-0.1615,-0.1256,-0.1101,-0.1049,-0.0477,0.0049,0.0556,0.1363,0.207,0.2782,0.3581,0.4323,0.4961,0.536,0.5773,0.6212,0.4387,0.4476,0.4746,0.5597,0.6124,0.6296,0.5852,0.5808,0.5899,0.6127,0.611,0.6122,0.6387,0.6304,0.6252,0.6327,0.6333,0.6359,0.6359,0.6306,0.618,0.5941,0.5941,0.5784,0.5379,0.5337,0.5337,0.5337,0.5337,0.5439,0.5566,0.5601,0.5632,0.5676,0.5715,0.5948,0.6335,0.6377,0.6602,0.6942,0.6995,0.6999,0.7042,0.7057,0.712,0.7257,0.7257,0.7355,0.7492,0.745,0.7409,0.7342,0.695,0.6863,0.6795,0.6496,0.6369,0.6359,0.6359,0.6349,0.6257,0.6018,0.5828,0.5637,0.5598,0.5598,0.5479,0.5124,0.5043,0.4927,0.454,0.4309,0.4116,0.3919,0.3643,0.3409,0.3217,0.3282,0.325,0.3016,0.2871,0.2681,0.2523,0.231,0.2197,0.224,0.2019,0.1749,0.148,0.13,0.1076,0.0762,0.0762,0.0762,0.0718,0.0718,0.0269,-0.0628,-0.0628,-0.0628,-0.0673,-0.0628,-0.0505,-0.0334,0.0,0.0585,0.1313,0.212,0.2826,0.3393,0.4348,0.4941,0.5341,0.5742,0.6204,0.6712,0.523,0.5675,0.603,0.621,0.6479,0.6612,0.6479,0.6523,0.6571,0.6659,0.6936,0.7176,0.722,0.7261,0.7282,0.7288,0.6909,0.6672,0.6672,0.6443,0.6261,0.6219,0.6219,0.6188,0.6086,0.574,0.5622,0.5771,0.5771,0.5905,0.6133,0.6283,0.6377,0.6409,0.656,0.6672,0.6788,0.6949,0.7142,0.7381,0.7717,0.7928,0.8098,0.8252,0.8337,0.8371,0.8371,0.827,0.8139,0.7818,0.7574,0.7402,0.7286,0.7275,0.7267,0.7189,0.7046,0.6943,0.6943,0.6734,0.6525,0.6444,0.6293,0.6067,0.5676,0.5598,0.5559,0.5479,0.5479,0.5401,0.5165,0.4929,0.4735,0.4543,0.4194,0.3921,0.3884,0.3681,0.3515,0.3539,0.3405,0.3349,0.3334,0.2982,0.2721,0.2732,0.2332,0.2109,0.2019,0.1974,0.1749,0.1256,0.1256,0.1076,0.0718,0.0718,0.0403,-0.0134,-0.0134,-0.0269,-0.0448,-0.0269,0.0,0.0286,0.0954,0.1462,0.1866,0.2675,0.3482,0.4196,0.4753,0.5306,0.5864,0.6204,0.6471,0.6755,0.5586,0.6251,0.6697,0.6564,0.6877,0.7054,0.6922,0.7146,0.7323,0.7323,0.754,0.7672,0.7672,0.7727,0.7688,0.7606,0.7296,0.7042,0.6962,0.6763,0.6603,0.6454,0.6525,0.6525,0.6451,0.6293,0.6212,0.6251,0.6251,0.6367,0.6602,0.6755,0.6909,0.7027,0.7224,0.7418,0.7613,0.7736,0.7899,0.8105,0.8448,0.8644,0.8738,0.8964,0.911,0.9197,0.9197,0.9085,0.8903,0.8615,0.8407,0.8264,0.8094,0.8028,0.7967,0.768,0.7509,0.7396,0.7274,0.7134,0.6987,0.6987,0.6911,0.6672,0.6058,0.5948,0.5909,0.575,0.575,0.5673,0.5479,0.5359,0.5204,0.501,0.4815,0.4641,0.4498,0.4351,0.4242,0.4085,0.4088,0.3984,0.3758,0.3537,0.336,0.3227,0.278,0.2556,0.2556,0.2333,0.2064,0.1794,0.1794,0.166,0.1436,0.1436,0.1211,0.0852,0.0493,0.0269,0.0134,0.0403,0.0688,0.1001,0.1668,0.2192,0.2623,0.343,0.4085,0.4645,0.5193,0.5704,0.623,0.6447,0.678,0.7199,0.5941,0.6609,0.7095,0.6925,0.7319,0.7536,0.7272,0.7632,0.794,0.794,0.7988,0.8032,0.8032,0.8032,0.7975,0.7787,0.7586,0.7432,0.7248,0.7174,0.7016,0.6766,0.6911,0.6911,0.6723,0.6911,0.6885,0.6637,0.6666,0.6793,0.7026,0.7196,0.7392,0.7681,0.7914,0.8226,0.8505,0.8587,0.8714,0.8887,0.9169,0.9306,0.9306,0.9545,0.9711,0.987,0.987,0.9809,0.9689,0.9519,0.9432,0.9362,0.9025,0.8888,0.8772,0.8242,0.8052,0.7944,0.7737,0.7594,0.7533,0.7533,0.745,0.7256,0.663,0.6471,0.6366,0.6138,0.6054,0.6018,0.5867,0.5792,0.5721,0.5584,0.5509,0.5398,0.5165,0.5154,0.5051,0.476,0.4775,0.4659,0.4206,0.4072,0.3941,0.3721,0.3315,0.3047,0.3002,0.2645,0.2423,0.2378,0.2341,0.2297,0.2243,0.2207,0.2072,0.1839,0.1256,0.0942,0.0897,0.1125,0.1427,0.1812,0.2247,0.2833,0.3482,0.4185,0.4686,0.5044,0.5632,0.6103,0.6494,0.6632,0.7128,0.7756,0.6874,0.7183,0.7492,0.772,0.7808,0.7852,0.7808,0.7984,0.8157,0.8157,0.834,0.852,0.852,0.852,0.8512,0.8488,0.815,0.7912,0.7889,0.7537,0.7323,0.7304,0.7301,0.7301,0.7301,0.7301,0.7195,0.6865,0.6971,0.7156,0.7438,0.7773,0.8061,0.8302,0.8746,0.8964,0.9046,0.9368,0.9526,0.9586,0.9983,1.0141,1.0166,1.0436,1.0527,1.0552,1.0552,1.0399,1.0207,1.0164,1.0038,0.9903,0.9831,0.9648,0.947,0.9399,0.9098,0.8839,0.8797,0.8384,0.802,0.802,0.7694,0.7357,0.7271,0.7108,0.6961,0.6778,0.6749,0.6749,0.671,0.6598,0.6489,0.6586,0.6291,0.6096,0.6191,0.5951,0.5783,0.5714,0.5478,0.5282,0.5191,0.4837,0.448,0.421,0.3939,0.3673,0.3497,0.3452,0.3318,0.3093,0.2964,0.274,0.247,0.2285,0.2194,0.2154,0.2064,0.1885,0.1661,0.1737,0.2052,0.2574,0.291,0.3512,0.4288,0.4585,0.5188,0.5842,0.5957,0.6295,0.6828,0.7273,0.7864,0.8374,0.7496,0.7628,0.776,0.7896,0.7984,0.8069,0.8069,0.8248,0.8428,0.8428,0.852,0.8612,0.8612,0.8696,0.8828,0.8955,0.8835,0.8656,0.8547,0.8379,0.8205,0.7979,0.8061,0.8065,0.7975,0.8061,0.8069,0.79,0.7741,0.7817,0.819,0.8578,0.8914,0.9137,0.9583,0.9846,1.0015,1.0179,1.0263,1.0273,1.0709,1.0878,1.0889,1.13,1.1429,1.1429,1.1289,1.1198,1.1068,1.0895,1.0722,1.0554,1.0554,1.0381,1.0207,1.0033,0.988,0.968,0.9422,0.9145,0.8913,0.8785,0.8619,0.8424,0.8317,0.823,0.7996,0.7298,0.707,0.7003,0.7003,0.6928,0.6914,0.6944,0.6913,0.6863,0.6884,0.6793,0.6648,0.6595,0.6354,0.6127,0.5991,0.568,0.5327,0.4924,0.4654,0.4431,0.4212,0.3942,0.3738,0.369,0.3497,0.3335,0.3297,0.3187,0.3139,0.3158,0.3158,0.2815,0.2235,0.2441,0.2869,0.3438,0.3856,0.4358,0.4889,0.5288,0.5691,0.5992,0.6189,0.6535,0.7085,0.7756,0.82,0.854]}]]